| time (UTC) | temp C | wind direction | speed KPH | gust KPH | rain 1hr cm | rain 24hr cm | rain mn cm | humidity % | barometer mb |
| 20260902082815 | 14 | 129 | 3.2 | 8.0 | 0.00 | 0.00 | 0.00 | 84 | 1016.2 |
| 20260902082716 | 14 | 136 | 3.2 | 8.0 | 0.00 | 0.00 | 0.00 | 84 | 1016.2 |
| 20260902082653 | 14 | 135 | 3.2 | 8.0 | 0.00 | 0.00 | 0.00 | 84 | 1016.2 |
| 20260902082615 | 14 | 124 | 3.2 | 8.0 | 0.00 | 0.00 | 0.00 | 84 | 1016.2 |
| 20260902082514 | 14 | 146 | 3.2 | 8.0 | 0.00 | 0.00 | 0.00 | 84 | 1016.2 |
| 20260902082424 | 14 | 140 | 3.2 | 8.0 | 0.00 | 0.00 | 0.00 | 84 | 1016.2 |
| 20260902082414 | 14 | 136 | 3.2 | 8.0 | 0.00 | 0.00 | 0.00 | 84 | 1016.2 |
| 20260902082314 | 14 | 165 | 3.2 | 8.0 | 0.00 | 0.00 | 0.00 | 84 | 1016.2 |
| 20260902082308 | 14 | 139 | 3.2 | 8.0 | 0.00 | 0.00 | 0.00 | 84 | 1016.2 |
| 20260902082112 | 14 | 158 | 3.2 | 8.0 | 0.00 | 0.00 | 0.00 | 84 | 1016.2 |
| 20260902082013 | 14 | 156 | 3.2 | 8.0 | 0.00 | 0.00 | 0.00 | 84 | 1016.2 |
| 20260902081912 | 14 | 134 | 1.6 | 4.8 | 0.00 | 0.00 | 0.00 | 84 | 1016.2 |
| 20260902081812 | 14 | 136 | 1.6 | 4.8 | 0.00 | 0.00 | 0.00 | 84 | 1016.2 |
| 20260902081712 | 14 | 159 | 1.6 | 4.8 | 0.00 | 0.00 | 0.00 | 84 | 1016.2 |
| 20260902081651 | 14 | 135 | 1.6 | 4.8 | 0.00 | 0.00 | 0.00 | 84 | 1016.2 |
| 20260902081610 | 14 | 146 | 1.6 | 4.8 | 0.00 | 0.00 | 0.00 | 84 | 1016.1 |
| 20260902081510 | 14 | 163 | 1.6 | 4.8 | 0.00 | 0.00 | 0.00 | 84 | 1016.2 |
| 20260902081410 | 14 | 146 | 1.6 | 4.8 | 0.00 | 0.00 | 0.00 | 84 | 1016.2 |
| 20260902081310 | 14 | 146 | 1.6 | 4.8 | 0.00 | 0.00 | 0.00 | 84 | 1016.2 |
| 20260902081210 | 14 | 145 | 1.6 | 4.8 | 0.00 | 0.00 | 0.00 | 84 | 1016.1 |
| 20260902081151 | 14 | 159 | 1.6 | 3.2 | 0.00 | 0.00 | 0.00 | 84 | 1016.1 |
| 20260902081110 | 14 | 146 | 1.6 | 4.8 | 0.00 | 0.00 | 0.00 | 84 | 1016.2 |
| 20260902081010 | 14 | 143 | 1.6 | 4.8 | 0.00 | 0.00 | 0.00 | 83 | 1016.1 |
| 20260902080907 | 14 | 137 | 1.6 | 4.8 | 0.00 | 0.00 | 0.00 | 83 | 1016.2 |
| 20260902080804 | 14 | 169 | 1.6 | 4.8 | 0.00 | 0.00 | 0.00 | 84 | 1016.2 |
| 20260902080704 | 14 | 93 | 1.6 | 4.8 | 0.00 | 0.00 | 0.00 | 84 | 1016.1 |
| 20260902080649 | 14 | 94 | 1.6 | 4.8 | 0.00 | 0.00 | 0.00 | 84 | 1016.1 |
| 20260902080602 | 14 | 96 | 1.6 | 4.8 | 0.00 | 0.00 | 0.00 | 84 | 1016.1 |
| 20260902080502 | 14 | 116 | 1.6 | 4.8 | 0.00 | 0.00 | 0.00 | 84 | 1016.1 |
| 20260902080356 | 14 | 132 | 1.6 | 4.8 | 0.00 | 0.00 | 0.00 | 83 | 1016.1 |
| 20260902080256 | 15 | 133 | 1.6 | 4.8 | 0.00 | 0.00 | 0.00 | 83 | 1016.1 |
| 20260902080159 | 15 | 150 | 1.6 | 4.8 | 0.00 | 0.00 | 0.00 | 83 | 1016.2 |
| 20260902080149 | 15 | 161 | 1.6 | 4.8 | 0.00 | 0.00 | 0.00 | 83 | 1016.2 |
| 20260902080058 | 15 | 138 | 1.6 | 3.2 | 0.00 | 0.00 | 0.00 | 83 | 1016.1 |
| 20260902075957 | 15 | 146 | 1.6 | 3.2 | 0.00 | 0.00 | 0.00 | 83 | 1016.1 |
| 20260902075856 | 15 | 146 | 1.6 | 3.2 | 0.00 | 0.00 | 0.00 | 83 | 1016.1 |
| 20260902075756 | 15 | 99 | 1.6 | 4.8 | 0.00 | 0.00 | 0.00 | 83 | 1016.1 |
| 20260902075650 | 15 | 99 | 1.6 | 4.8 | 0.00 | 0.00 | 0.00 | 83 | 1016.0 |
| 20260902075555 | 15 | 99 | 1.6 | 4.8 | 0.00 | 0.00 | 0.00 | 83 | 1016.1 |
| 20260902075453 | 15 | 99 | 1.6 | 4.8 | 0.00 | 0.00 | 0.00 | 83 | 1016.1 |
| 20260902075352 | 15 | 99 | 1.6 | 4.8 | 0.00 | 0.00 | 0.00 | 83 | 1016.0 |
| 20260902075252 | 15 | 136 | 3.2 | 6.4 | 0.00 | 0.00 | 0.00 | 83 | 1016.0 |
| 20260902075153 | 15 | 136 | 3.2 | 9.7 | 0.00 | 0.00 | 0.00 | 83 | 1016.0 |
| 20260902075053 | 15 | 136 | 3.2 | 9.7 | 0.00 | 0.00 | 0.00 | 83 | 1016.0 |
| 20260902074951 | 15 | 148 | 3.2 | 9.7 | 0.00 | 0.00 | 0.00 | 83 | 1016.0 |
| 20260902074850 | 15 | 148 | 3.2 | 9.7 | 0.00 | 0.00 | 0.00 | 83 | 1016.0 |
| 20260902074750 | 15 | 134 | 4.8 | 9.7 | 0.00 | 0.00 | 0.00 | 83 | 1016.0 |
| 20260902074652 | 15 | 133 | 4.8 | 9.7 | 0.00 | 0.00 | 0.00 | 83 | 1016.0 |
| 20260902074646 | 15 | 132 | 4.8 | 9.7 | 0.00 | 0.00 | 0.00 | 83 | 1016.0 |
| 20260902074549 | 15 | 163 | 4.8 | 9.7 | 0.00 | 0.00 | 0.00 | 83 | 1015.9 |
| 20260902074447 | 15 | 141 | 4.8 | 9.7 | 0.00 | 0.00 | 0.00 | 83 | 1015.9 |
| 20260902074346 | 15 | 141 | 3.2 | 9.7 | 0.00 | 0.00 | 0.00 | 83 | 1016.0 |
| 20260902074246 | 15 | 124 | 3.2 | 9.7 | 0.00 | 0.00 | 0.00 | 83 | 1016.0 |
| 20260902074151 | 15 | 199 | 3.2 | 8.0 | 0.00 | 0.00 | 0.00 | 83 | 1015.9 |
| 20260902074145 | 15 | 180 | 3.2 | 8.0 | 0.00 | 0.00 | 0.00 | 83 | 1015.9 |
| 20260902074047 | 15 | 143 | 3.2 | 8.0 | 0.00 | 0.00 | 0.00 | 83 | 1015.9 |
| 20260902073944 | 15 | 160 | 3.2 | 8.0 | 0.00 | 0.00 | 0.00 | 83 | 1016.0 |
| 20260902073844 | 15 | 121 | 1.6 | 6.4 | 0.00 | 0.00 | 0.00 | 83 | 1016.0 |
| 20260902073743 | 15 | 141 | 1.6 | 6.4 | 0.00 | 0.00 | 0.00 | 83 | 1016.0 |
| 20260902073650 | 15 | 149 | 1.6 | 6.4 | 0.00 | 0.00 | 0.00 | 83 | 1016.0 |
| 20260902073644 | 15 | 150 | 1.6 | 6.4 | 0.00 | 0.00 | 0.00 | 83 | 1016.0 |
| 20260902073547 | 15 | 142 | 1.6 | 6.4 | 0.00 | 0.00 | 0.00 | 83 | 1016.0 |
| 20260902073440 | 15 | 158 | 1.6 | 6.4 | 0.00 | 0.00 | 0.00 | 83 | 1016.0 |
| 20260902073338 | 15 | 124 | 1.6 | 6.4 | 0.00 | 0.00 | 0.00 | 83 | 1016.0 |
| 20260902073238 | 15 | 141 | 1.6 | 6.4 | 0.00 | 0.00 | 0.00 | 83 | 1016.0 |
| 20260902073144 | 15 | 150 | 1.6 | 6.4 | 0.00 | 0.00 | 0.00 | 83 | 1016.1 |
| 20260902073138 | 15 | 149 | 1.6 | 6.4 | 0.00 | 0.00 | 0.00 | 83 | 1016.1 |
| 20260902073038 | 15 | 150 | 1.6 | 6.4 | 0.00 | 0.00 | 0.00 | 83 | 1016.0 |
| 20260902072936 | 15 | 128 | 3.2 | 6.4 | 0.00 | 0.00 | 0.00 | 83 | 1016.0 |
| 20260902072836 | 15 | 136 | 3.2 | 6.4 | 0.00 | 0.00 | 0.00 | 83 | 1016.0 |
| 20260902072736 | 15 | 145 | 3.2 | 6.4 | 0.00 | 0.00 | 0.00 | 83 | 1016.0 |
| 20260902072641 | 15 | 132 | 1.6 | 6.4 | 0.00 | 0.00 | 0.00 | 83 | 1016.0 |
| 20260902072636 | 15 | 139 | 1.6 | 6.4 | 0.00 | 0.00 | 0.00 | 83 | 1016.0 |
| 20260902072536 | 15 | 129 | 3.2 | 6.4 | 0.00 | 0.00 | 0.00 | 83 | 1015.9 |
| 20260902072434 | 15 | 136 | 3.2 | 6.4 | 0.00 | 0.00 | 0.00 | 83 | 1015.9 |
| 20260902072335 | 15 | 127 | 1.6 | 6.4 | 0.00 | 0.00 | 0.00 | 83 | 1015.9 |
| 20260902072234 | 15 | 134 | 3.2 | 6.4 | 0.00 | 0.00 | 0.00 | 83 | 1015.9 |
| 20260902072141 | 15 | 138 | 3.2 | 6.4 | 0.00 | 0.00 | 0.00 | 83 | 1015.9 |
| 20260902072134 | 15 | 136 | 3.2 | 6.4 | 0.00 | 0.00 | 0.00 | 83 | 1015.9 |
| 20260902072034 | 15 | 119 | 3.2 | 6.4 | 0.00 | 0.00 | 0.00 | 83 | 1015.9 |
| 20260902071934 | 15 | 158 | 3.2 | 6.4 | 0.00 | 0.00 | 0.00 | 83 | 1015.9 |
| 20260902071834 | 15 | 142 | 3.2 | 6.4 | 0.00 | 0.00 | 0.00 | 83 | 1015.9 |
| 20260902071642 | 15 | 149 | 3.2 | 9.7 | 0.00 | 0.00 | 0.00 | 82 | 1015.9 |
| 20260902071633 | 15 | 150 | 3.2 | 9.7 | 0.00 | 0.00 | 0.00 | 82 | 1015.9 |
| 20260902071532 | 15 | 172 | 3.2 | 9.7 | 0.00 | 0.00 | 0.00 | 82 | 1015.9 |
| 20260902071433 | 15 | 143 | 3.2 | 9.7 | 0.00 | 0.00 | 0.00 | 82 | 1015.9 |
| 20260902071332 | 15 | 110 | 3.2 | 9.7 | 0.00 | 0.00 | 0.00 | 82 | 1015.9 |
| 20260902071231 | 15 | 95 | 3.2 | 9.7 | 0.00 | 0.00 | 0.00 | 82 | 1015.9 |
| 20260902071142 | 15 | 109 | 3.2 | 9.7 | 0.00 | 0.00 | 0.00 | 82 | 1015.9 |
| 20260902071136 | 15 | 103 | 3.2 | 9.7 | 0.00 | 0.00 | 0.00 | 82 | 1015.9 |
| 20260902071126 | 15 | 81 | 1.6 | 8.0 | 0.00 | 0.00 | 0.00 | 82 | 1015.9 |
| 20260902071032 | 15 | 113 | 3.2 | 9.7 | 0.00 | 0.00 | 0.00 | 82 | 1015.9 |
| 20260902071013 | 15 | 96 | 3.2 | 9.7 | 0.00 | 0.00 | 0.00 | 82 | 1015.9 |
| 20260902070831 | 15 | 98 | 3.2 | 9.7 | 0.00 | 0.00 | 0.00 | 82 | 1015.9 |
| 20260902070751 | 15 | 88 | 1.6 | 9.7 | 0.00 | 0.00 | 0.00 | 82 | 1015.9 |
| 20260902070632 | 15 | 110 | 1.6 | 8.0 | 0.00 | 0.00 | 0.00 | 82 | 1015.9 |
| 20260902070532 | 15 | 101 | 1.6 | 6.4 | 0.00 | 0.00 | 0.00 | 82 | 1015.9 |
| 20260902070432 | 15 | 110 | 1.6 | 6.4 | 0.00 | 0.00 | 0.00 | 82 | 1015.9 |
| 20260902070404 | 15 | 129 | 1.6 | 6.4 | 0.00 | 0.00 | 0.00 | 82 | 1015.9 |
| 20260902070332 | 15 | 110 | 1.6 | 6.4 | 0.00 | 0.00 | 0.00 | 82 | 1015.9 |
| 20260902070251 | 15 | 108 | 1.6 | 6.4 | 0.00 | 0.00 | 0.00 | 82 | 1015.9 |
| 20260902070132 | 15 | 110 | 1.6 | 6.4 | 0.00 | 0.00 | 0.00 | 82 | 1015.9 |
| 20260902070032 | 15 | 114 | 1.6 | 6.4 | 0.00 | 0.00 | 0.00 | 82 | 1015.8 |
| 20260902065930 | 15 | 114 | 1.6 | 6.4 | 0.00 | 0.00 | 0.00 | 82 | 1015.8 |
| 20260902065830 | 15 | 114 | 1.6 | 6.4 | 0.00 | 0.00 | 0.00 | 82 | 1015.8 |
| 20260902065730 | 15 | 114 | 3.2 | 6.4 | 0.00 | 0.00 | 0.00 | 82 | 1015.8 |
| 20260902065631 | 15 | 107 | 3.2 | 6.4 | 0.00 | 0.00 | 0.00 | 82 | 1015.8 |
| 20260902065527 | 15 | 92 | 3.2 | 6.4 | 0.00 | 0.00 | 0.00 | 82 | 1015.8 |
| 20260902065428 | 15 | 121 | 3.2 | 6.4 | 0.00 | 0.00 | 0.00 | 81 | 1015.8 |
| 20260902065324 | 15 | 121 | 3.2 | 6.4 | 0.00 | 0.00 | 0.00 | 81 | 1015.9 |
| 20260902065225 | 15 | 113 | 3.2 | 6.4 | 0.00 | 0.00 | 0.00 | 81 | 1015.9 |
| 20260902065138 | 15 | 91 | 1.6 | 6.4 | 0.00 | 0.00 | 0.00 | 81 | 1015.8 |
| 20260902065125 | 15 | 114 | 1.6 | 6.4 | 0.00 | 0.00 | 0.00 | 81 | 1015.8 |
| 20260902065023 | 15 | 107 | 1.6 | 6.4 | 0.00 | 0.00 | 0.00 | 81 | 1015.8 |
| 20260902064921 | 15 | 113 | 1.6 | 6.4 | 0.00 | 0.00 | 0.00 | 81 | 1015.8 |
| 20260902064857 | 16 | 129 | 1.6 | 4.8 | 0.00 | 0.00 | 0.00 | 81 | 1015.8 |
| 20260902064815 | 16 | 107 | 1.6 | 6.4 | 0.00 | 0.00 | 0.00 | 81 | 1015.9 |
| 20260902064746 | 16 | 116 | 1.6 | 4.8 | 0.00 | 0.00 | 0.00 | 81 | 1015.8 |
| 20260902064614 | 16 | 117 | 1.6 | 4.8 | 0.00 | 0.00 | 0.00 | 81 | 1015.8 |
| 20260902064515 | 16 | 120 | 1.6 | 6.4 | 0.00 | 0.00 | 0.00 | 81 | 1015.8 |
| 20260902064414 | 16 | 102 | 1.6 | 6.4 | 0.00 | 0.00 | 0.00 | 81 | 1015.8 |
| 20260902064311 | 16 | 107 | 1.6 | 6.4 | 0.00 | 0.00 | 0.00 | 81 | 1015.8 |
| 20260902064211 | 16 | 136 | 1.6 | 6.4 | 0.00 | 0.00 | 0.00 | 82 | 1015.7 |
| 20260902064134 | 16 | 138 | 1.6 | 6.4 | 0.00 | 0.00 | 0.00 | 81 | 1015.7 |
| 20260902064115 | 16 | 138 | 1.6 | 6.4 | 0.00 | 0.00 | 0.00 | 82 | 1015.7 |
| 20260902064111 | 16 | 138 | 3.2 | 6.4 | 0.00 | 0.00 | 0.00 | 81 | 1015.8 |
| 20260902064013 | 16 | 145 | 3.2 | 6.4 | 0.00 | 0.00 | 0.00 | 81 | 1015.7 |
| 20260902064005 | 16 | 146 | 3.2 | 6.4 | 0.00 | 0.00 | 0.00 | 81 | 1015.7 |
| 20260902063805 | 16 | 149 | 3.2 | 6.4 | 0.00 | 0.00 | 0.00 | 82 | 1015.8 |
| 20260902063743 | 16 | 162 | 1.6 | 6.4 | 0.00 | 0.00 | 0.00 | 82 | 1015.7 |
| 20260902063603 | 16 | 144 | 1.6 | 6.4 | 0.00 | 0.00 | 0.00 | 82 | 1015.8 |
| 20260902063503 | 16 | 131 | 1.6 | 6.4 | 0.00 | 0.00 | 0.00 | 81 | 1015.8 |
| 20260902063403 | 16 | 134 | 1.6 | 6.4 | 0.00 | 0.00 | 0.00 | 81 | 1015.8 |
| 20260902063257 | 16 | 121 | 1.6 | 6.4 | 0.00 | 0.00 | 0.00 | 81 | 1015.8 |
| 20260902063134 | 16 | 134 | 1.6 | 6.4 | 0.00 | 0.00 | 0.00 | 81 | 1015.8 |
| 20260902063056 | 16 | 134 | 1.6 | 6.4 | 0.00 | 0.00 | 0.00 | 81 | 1015.8 |
| 20260902062956 | 16 | 148 | 1.6 | 3.2 | 0.00 | 0.00 | 0.00 | 81 | 1015.9 |
| 20260902062857 | 16 | 130 | 1.6 | 3.2 | 0.00 | 0.00 | 0.00 | 81 | 1015.8 |
| 20260902062751 | 16 | 139 | 1.6 | 3.2 | 0.00 | 0.00 | 0.00 | 81 | 1015.9 |
| 20260902062631 | 16 | 127 | 1.6 | 4.8 | 0.00 | 0.00 | 0.00 | 81 | 1015.9 |
| 20260902062551 | 16 | 121 | 1.6 | 4.8 | 0.00 | 0.00 | 0.00 | 81 | 1015.9 |
| 20260902062450 | 16 | 121 | 1.6 | 4.8 | 0.00 | 0.00 | 0.00 | 81 | 1015.9 |
| 20260902062350 | 16 | 134 | 1.6 | 6.4 | 0.00 | 0.00 | 0.00 | 81 | 1015.8 |
| 20260902062250 | 16 | 136 | 1.6 | 6.4 | 0.00 | 0.00 | 0.00 | 81 | 1015.8 |
| 20260902062132 | 16 | 135 | 1.6 | 6.4 | 0.00 | 0.00 | 0.00 | 81 | 1015.8 |
| 20260902062050 | 16 | 136 | 3.2 | 8.0 | 0.00 | 0.00 | 0.00 | 81 | 1015.8 |
| 20260902061948 | 16 | 136 | 3.2 | 11.3 | 0.00 | 0.00 | 0.00 | 81 | 1015.8 |
| 20260902061844 | 16 | 181 | 3.2 | 11.3 | 0.00 | 0.00 | 0.00 | 81 | 1015.8 |
| 20260902061742 | 16 | 150 | 3.2 | 11.3 | 0.00 | 0.00 | 0.00 | 81 | 1015.8 |
| 20260902061632 | 16 | 141 | 3.2 | 11.3 | 0.00 | 0.00 | 0.00 | 81 | 1015.8 |
| 20260902061555 | 16 | 169 | 3.2 | 11.3 | 0.00 | 0.00 | 0.00 | 81 | 1015.8 |
| 20260902061551 | 16 | 143 | 3.2 | 11.3 | 0.00 | 0.00 | 0.00 | 81 | 1015.8 |
| 20260902061343 | 16 | 228 | 3.2 | 11.3 | 0.00 | 0.00 | 0.00 | 81 | 1015.8 |
| 20260902061243 | 16 | 176 | 3.2 | 11.3 | 0.00 | 0.00 | 0.00 | 81 | 1015.8 |
| 20260902061130 | 16 | 226 | 3.2 | 11.3 | 0.00 | 0.00 | 0.00 | 81 | 1015.7 |
| 20260902061045 | 16 | 236 | 3.2 | 11.3 | 0.00 | 0.00 | 0.00 | 81 | 1015.7 |
| 20260902060939 | 16 | 194 | 3.2 | 11.3 | 0.00 | 0.00 | 0.00 | 81 | 1015.7 |
| 20260902060850 | 16 | 233 | 3.2 | 11.3 | 0.00 | 0.00 | 0.00 | 80 | 1015.7 |
| 20260902060838 | 16 | 204 | 3.2 | 11.3 | 0.00 | 0.00 | 0.00 | 80 | 1015.7 |
| 20260902060746 | 16 | 174 | 3.2 | 11.3 | 0.00 | 0.00 | 0.00 | 80 | 1015.8 |
| 20260902060738 | 16 | 233 | 3.2 | 11.3 | 0.00 | 0.00 | 0.00 | 80 | 1015.7 |
| 20260902060544 | 16 | 218 | 4.8 | 12.9 | 0.00 | 0.00 | 0.00 | 80 | 1015.8 |
| 20260902060438 | 16 | 141 | 4.8 | 12.9 | 0.00 | 0.00 | 0.00 | 80 | 1015.7 |
| 20260902060338 | 16 | 226 | 3.2 | 12.9 | 0.00 | 0.00 | 0.00 | 80 | 1015.7 |
| 20260902060238 | 16 | 235 | 4.8 | 12.9 | 0.00 | 0.00 | 0.00 | 80 | 1015.7 |
| 20260902060138 | 16 | 235 | 4.8 | 12.9 | 0.00 | 0.00 | 0.00 | 80 | 1015.8 |
| 20260902060128 | 16 | 200 | 4.8 | 12.9 | 0.00 | 0.00 | 0.00 | 80 | 1015.8 |
| 20260902060037 | 16 | 236 | 4.8 | 12.9 | 0.00 | 0.00 | 0.00 | 80 | 1015.7 |
| 20260902055934 | 16 | 236 | 4.8 | 12.9 | 0.00 | 0.00 | 0.00 | 80 | 1015.7 |
| 20260902055835 | 16 | 195 | 4.8 | 12.9 | 0.00 | 0.00 | 0.00 | 80 | 1015.8 |
| 20260902055732 | 16 | 232 | 4.8 | 12.9 | 0.00 | 0.00 | 0.00 | 80 | 1015.8 |
| 20260902055632 | 16 | 233 | 4.8 | 12.9 | 0.00 | 0.00 | 0.00 | 80 | 1015.8 |
| 20260902055530 | 16 | 229 | 4.8 | 11.3 | 0.00 | 0.00 | 0.00 | 80 | 1015.9 |
| 20260902055430 | 16 | 228 | 4.8 | 11.3 | 0.00 | 0.00 | 0.00 | 80 | 1015.8 |
| 20260902055330 | 16 | 232 | 4.8 | 11.3 | 0.00 | 0.00 | 0.00 | 80 | 1015.9 |
| 20260902055230 | 16 | 258 | 4.8 | 11.3 | 0.00 | 0.00 | 0.00 | 80 | 1015.8 |
| 20260902055131 | 16 | 267 | 4.8 | 9.7 | 0.00 | 0.00 | 0.00 | 80 | 1015.9 |
| 20260902055024 | 16 | 217 | 4.8 | 9.7 | 0.00 | 0.00 | 0.00 | 80 | 1015.8 |
| 20260902054925 | 16 | 228 | 4.8 | 14.5 | 0.00 | 0.00 | 0.00 | 80 | 1015.9 |
| 20260902054824 | 16 | 226 | 4.8 | 14.5 | 0.00 | 0.00 | 0.00 | 80 | 1015.8 |
| 20260902054722 | 16 | 231 | 4.8 | 14.5 | 0.00 | 0.00 | 0.00 | 80 | 1015.8 |
| 20260902054628 | 16 | 236 | 4.8 | 14.5 | 0.00 | 0.00 | 0.00 | 80 | 1015.9 |
| 20260902054623 | 16 | 242 | 4.8 | 14.5 | 0.00 | 0.00 | 0.00 | 80 | 1015.9 |
| 20260902054516 | 16 | 250 | 6.4 | 14.5 | 0.00 | 0.00 | 0.00 | 80 | 1015.9 |
| 20260902054424 | 16 | 239 | 6.4 | 14.5 | 0.00 | 0.00 | 0.00 | 80 | 1015.9 |
| 20260902054317 | 16 | 269 | 6.4 | 14.5 | 0.00 | 0.00 | 0.00 | 80 | 1015.9 |
| 20260902054217 | 16 | 239 | 6.4 | 14.5 | 0.00 | 0.00 | 0.00 | 80 | 1015.9 |
| 20260902054126 | 16 | 233 | 6.4 | 14.5 | 0.00 | 0.00 | 0.00 | 79 | 1015.9 |
| 20260902054116 | 16 | 219 | 6.4 | 16.1 | 0.00 | 0.00 | 0.00 | 79 | 1015.9 |
| 20260902054011 | 16 | 176 | 6.4 | 16.1 | 0.00 | 0.00 | 0.00 | 79 | 1015.9 |
| 20260902053911 | 16 | 236 | 6.4 | 16.1 | 0.00 | 0.00 | 0.00 | 79 | 1015.9 |
| 20260902053810 | 16 | 248 | 6.4 | 16.1 | 0.00 | 0.00 | 0.00 | 79 | 1015.9 |
| 20260902053710 | 16 | 204 | 6.4 | 16.1 | 0.00 | 0.00 | 0.00 | 79 | 1015.9 |
| 20260902053625 | 16 | 207 | 6.4 | 16.1 | 0.00 | 0.00 | 0.00 | 79 | 1015.9 |
| 20260902053611 | 16 | 238 | 6.4 | 17.7 | 0.00 | 0.00 | 0.00 | 79 | 1015.9 |
| 20260902053504 | 16 | 231 | 6.4 | 17.7 | 0.00 | 0.00 | 0.00 | 79 | 1015.9 |
| 20260902053404 | 16 | 228 | 6.4 | 17.7 | 0.00 | 0.00 | 0.00 | 79 | 1015.8 |
| 20260902053304 | 16 | 256 | 8.0 | 17.7 | 0.00 | 0.00 | 0.00 | 79 | 1015.9 |
| 20260902053206 | 16 | 218 | 8.0 | 17.7 | 0.00 | 0.00 | 0.00 | 79 | 1015.8 |
| 20260902053139 | 16 | 215 | 8.0 | 17.7 | 0.00 | 0.00 | 0.00 | 79 | 1015.8 |
| 20260902053105 | 16 | 252 | 8.0 | 17.7 | 0.00 | 0.00 | 0.00 | 79 | 1015.8 |
| 20260902053000 | 16 | 229 | 8.0 | 17.7 | 0.00 | 0.00 | 0.00 | 79 | 1015.8 |
| 20260902052900 | 16 | 207 | 8.0 | 17.7 | 0.00 | 0.00 | 0.00 | 79 | 1015.8 |
| 20260902052849 | 16 | 195 | 8.0 | 17.7 | 0.00 | 0.00 | 0.00 | 78 | 1015.8 |
| 20260902052801 | 16 | 248 | 8.0 | 17.7 | 0.00 | 0.00 | 0.00 | 78 | 1015.8 |
| 20260902052736 | 16 | 238 | 8.0 | 17.7 | 0.00 | 0.00 | 0.00 | 78 | 1015.8 |
| 20260902052559 | 16 | 219 | 8.0 | 17.7 | 0.00 | 0.00 | 0.00 | 78 | 1015.8 |
| 20260902052452 | 16 | 225 | 8.0 | 17.7 | 0.00 | 0.00 | 0.00 | 78 | 1015.9 |
| 20260902052353 | 16 | 207 | 8.0 | 17.7 | 0.00 | 0.00 | 0.00 | 78 | 1015.8 |
| 20260902052153 | 16 | 253 | 6.4 | 16.1 | 0.00 | 0.00 | 0.00 | 78 | 1015.8 |
| 20260902052126 | 16 | 226 | 6.4 | 16.1 | 0.00 | 0.00 | 0.00 | 78 | 1015.8 |
| 20260902052053 | 17 | 256 | 6.4 | 16.1 | 0.00 | 0.00 | 0.00 | 78 | 1015.9 |
| 20260902051949 | 17 | 225 | 6.4 | 16.1 | 0.00 | 0.00 | 0.00 | 78 | 1015.9 |
| 20260902051847 | 17 | 214 | 8.0 | 17.7 | 0.00 | 0.00 | 0.00 | 78 | 1015.9 |
| 20260902051746 | 17 | 243 | 8.0 | 17.7 | 0.00 | 0.00 | 0.00 | 78 | 1015.9 |
| 20260902051646 | 17 | 256 | 8.0 | 17.7 | 0.00 | 0.00 | 0.00 | 77 | 1015.9 |
| 20260902051625 | 17 | 236 | 8.0 | 17.7 | 0.00 | 0.00 | 0.00 | 77 | 1015.9 |
| 20260902051547 | 17 | 243 | 8.0 | 17.7 | 0.00 | 0.00 | 0.00 | 77 | 1015.9 |
| 20260902051443 | 17 | 216 | 8.0 | 17.7 | 0.00 | 0.00 | 0.00 | 77 | 1015.8 |
| 20260902051341 | 17 | 225 | 6.4 | 17.7 | 0.00 | 0.00 | 0.00 | 77 | 1015.8 |
| 20260902051240 | 17 | 222 | 8.0 | 20.9 | 0.00 | 0.00 | 0.00 | 77 | 1015.8 |
| 20260902051125 | 17 | 231 | 8.0 | 20.9 | 0.00 | 0.00 | 0.00 | 77 | 1015.8 |
| 20260902051050 | 17 | 281 | 8.0 | 20.9 | 0.00 | 0.00 | 0.00 | 77 | 1015.9 |
| 20260902050935 | 17 | 236 | 9.7 | 20.9 | 0.00 | 0.00 | 0.00 | 77 | 1015.9 |
| 20260902050834 | 17 | 228 | 9.7 | 24.1 | 0.00 | 0.00 | 0.00 | 77 | 1015.9 |
| 20260902050735 | 17 | 253 | 9.7 | 24.1 | 0.00 | 0.00 | 0.00 | 77 | 1015.9 |
| 20260902050636 | 17 | 274 | 9.7 | 24.1 | 0.00 | 0.00 | 0.00 | 77 | 1015.8 |
| 20260902050626 | 17 | 232 | 9.7 | 24.1 | 0.00 | 0.00 | 0.00 | 77 | 1015.8 |
| 20260902050534 | 17 | 235 | 9.7 | 24.1 | 0.00 | 0.00 | 0.00 | 77 | 1015.8 |
| 20260902050431 | 17 | 229 | 9.7 | 24.1 | 0.00 | 0.00 | 0.00 | 77 | 1015.8 |
| 20260902050328 | 17 | 228 | 11.3 | 24.1 | 0.00 | 0.00 | 0.00 | 77 | 1015.8 |
| 20260902050229 | 17 | 250 | 11.3 | 24.1 | 0.00 | 0.00 | 0.00 | 77 | 1015.9 |
| 20260902050130 | 17 | 267 | 11.3 | 24.1 | 0.00 | 0.00 | 0.00 | 77 | 1015.9 |
| 20260902050030 | 17 | 250 | 9.7 | 24.1 | 0.00 | 0.00 | 0.00 | 77 | 1015.8 |
| 20260902045924 | 17 | 210 | 9.7 | 24.1 | 0.00 | 0.00 | 0.00 | 76 | 1015.7 |
| 20260902045827 | 17 | 233 | 8.0 | 20.9 | 0.00 | 0.00 | 0.00 | 76 | 1015.7 |
| 20260902045727 | 17 | 246 | 8.0 | 20.9 | 0.00 | 0.00 | 0.00 | 76 | 1015.7 |
| 20260902045629 | 17 | 239 | 8.0 | 20.9 | 0.00 | 0.00 | 0.00 | 76 | 1015.7 |
| 20260902045623 | 17 | 231 | 8.0 | 20.9 | 0.00 | 0.00 | 0.00 | 76 | 1015.7 |
| 20260902045522 | 17 | 242 | 8.0 | 20.9 | 0.00 | 0.00 | 0.00 | 76 | 1015.7 |
| 20260902045418 | 17 | 195 | 6.4 | 20.9 | 0.00 | 0.00 | 0.00 | 76 | 1015.8 |
| 20260902045351 | 17 | 236 | 4.8 | 20.9 | 0.00 | 0.00 | 0.00 | 75 | 1015.8 |
| 20260902045318 | 17 | 253 | 6.4 | 20.9 | 0.00 | 0.00 | 0.00 | 76 | 1015.8 |
| 20260902045235 | 17 | 221 | 6.4 | 20.9 | 0.00 | 0.00 | 0.00 | 76 | 1015.8 |
| 20260902045120 | 17 | 266 | 4.8 | 20.9 | 0.00 | 0.00 | 0.00 | 75 | 1015.8 |
| 20260902045017 | 17 | 236 | 6.4 | 17.7 | 0.00 | 0.00 | 0.00 | 75 | 1015.8 |
| 20260902044910 | 17 | 221 | 6.4 | 17.7 | 0.00 | 0.00 | 0.00 | 75 | 1015.8 |
| 20260902044810 | 17 | 228 | 6.4 | 17.7 | 0.00 | 0.00 | 0.00 | 75 | 1015.8 |
| 20260902044714 | 17 | 210 | 6.4 | 17.7 | 0.00 | 0.00 | 0.00 | 75 | 1015.8 |
| 20260902044625 | 17 | 245 | 6.4 | 17.7 | 0.00 | 0.00 | 0.00 | 75 | 1015.8 |
| 20260902044611 | 17 | 242 | 6.4 | 17.7 | 0.00 | 0.00 | 0.00 | 75 | 1015.7 |
| 20260902044511 | 17 | 248 | 6.4 | 19.3 | 0.00 | 0.00 | 0.00 | 74 | 1015.7 |
| 20260902044414 | 17 | 256 | 8.0 | 19.3 | 0.00 | 0.00 | 0.00 | 74 | 1015.8 |
| 20260902044308 | 17 | 228 | 8.0 | 19.3 | 0.00 | 0.00 | 0.00 | 74 | 1015.8 |
| 20260902044208 | 17 | 230 | 8.0 | 19.3 | 0.00 | 0.00 | 0.00 | 74 | 1015.8 |
| 20260902044126 | 17 | 264 | 8.0 | 19.3 | 0.00 | 0.00 | 0.00 | 74 | 1015.8 |
| 20260902044109 | 17 | 232 | 9.7 | 19.3 | 0.00 | 0.00 | 0.00 | 74 | 1015.8 |
| 20260902044009 | 17 | 262 | 9.7 | 19.3 | 0.00 | 0.00 | 0.00 | 74 | 1015.8 |
| 20260902043908 | 17 | 204 | 9.7 | 19.3 | 0.00 | 0.00 | 0.00 | 74 | 1015.8 |
| 20260902043808 | 17 | 215 | 9.7 | 19.3 | 0.00 | 0.00 | 0.00 | 74 | 1015.7 |
| 20260902043709 | 17 | 250 | 9.7 | 19.3 | 0.00 | 0.00 | 0.00 | 73 | 1015.7 |
| 20260902043625 | 17 | 248 | 9.7 | 19.3 | 0.00 | 0.00 | 0.00 | 73 | 1015.7 |
| 20260902043610 | 17 | 239 | 8.0 | 19.3 | 0.00 | 0.00 | 0.00 | 73 | 1015.7 |
| 20260902043509 | 17 | 236 | 8.0 | 19.3 | 0.00 | 0.00 | 0.00 | 73 | 1015.7 |
| 20260902043412 | 17 | 230 | 8.0 | 19.3 | 0.00 | 0.00 | 0.00 | 73 | 1015.7 |
| 20260902043308 | 17 | 240 | 8.0 | 19.3 | 0.00 | 0.00 | 0.00 | 73 | 1015.6 |
| 20260902043208 | 17 | 219 | 8.0 | 19.3 | 0.00 | 0.00 | 0.00 | 73 | 1015.6 |
| 20260902043124 | 17 | 236 | 8.0 | 19.3 | 0.00 | 0.00 | 0.00 | 73 | 1015.6 |
| 20260902043110 | 17 | 183 | 8.0 | 19.3 | 0.00 | 0.00 | 0.00 | 73 | 1015.6 |
| 20260902043009 | 17 | 231 | 8.0 | 19.3 | 0.00 | 0.00 | 0.00 | 72 | 1015.6 |
| 20260902042908 | 17 | 237 | 8.0 | 19.3 | 0.00 | 0.00 | 0.00 | 72 | 1015.6 |
| 20260902042811 | 17 | 245 | 8.0 | 19.3 | 0.00 | 0.00 | 0.00 | 72 | 1015.6 |
| 20260902042708 | 17 | 230 | 6.4 | 19.3 | 0.00 | 0.00 | 0.00 | 72 | 1015.6 |
| 20260902042639 | 17 | 211 | 6.4 | 19.3 | 0.00 | 0.00 | 0.00 | 72 | 1015.6 |
| 20260902042604 | 17 | 225 | 8.0 | 19.3 | 0.00 | 0.00 | 0.00 | 72 | 1015.6 |
| 20260902042502 | 17 | 264 | 8.0 | 19.3 | 0.00 | 0.00 | 0.00 | 72 | 1015.6 |
| 20260902042403 | 17 | 219 | 6.4 | 19.3 | 0.00 | 0.00 | 0.00 | 71 | 1015.6 |
| 20260902042308 | 17 | 223 | 6.4 | 19.3 | 0.00 | 0.00 | 0.00 | 71 | 1015.6 |
| 20260902042157 | 17 | 233 | 6.4 | 19.3 | 0.00 | 0.00 | 0.00 | 71 | 1015.6 |
| 20260902042118 | 17 | 253 | 8.0 | 19.3 | 0.00 | 0.00 | 0.00 | 71 | 1015.6 |
| 20260902042057 | 17 | 225 | 8.0 | 19.3 | 0.00 | 0.00 | 0.00 | 71 | 1015.6 |
| 20260902041956 | 17 | 236 | 6.4 | 19.3 | 0.00 | 0.00 | 0.00 | 71 | 1015.6 |
| 20260902041856 | 17 | 260 | 6.4 | 19.3 | 0.00 | 0.00 | 0.00 | 71 | 1015.6 |
| 20260902041756 | 17 | 226 | 8.0 | 19.3 | 0.00 | 0.00 | 0.00 | 71 | 1015.6 |
| 20260902041651 | 17 | 200 | 8.0 | 25.7 | 0.00 | 0.00 | 0.00 | 70 | 1015.5 |
| 20260902041611 | 17 | 242 | 8.0 | 25.7 | 0.00 | 0.00 | 0.00 | 70 | 1015.5 |
| 20260902041550 | 18 | 224 | 8.0 | 25.7 | 0.00 | 0.00 | 0.00 | 70 | 1015.5 |
| 20260902041450 | 18 | 239 | 8.0 | 25.7 | 0.00 | 0.00 | 0.00 | 70 | 1015.5 |
| 20260902041350 | 18 | 256 | 8.0 | 25.7 | 0.00 | 0.00 | 0.00 | 70 | 1015.5 |
| 20260902041250 | 18 | 253 | 8.0 | 25.7 | 0.00 | 0.00 | 0.00 | 70 | 1015.5 |
| 20260902041145 | 18 | 250 | 9.7 | 25.7 | 0.00 | 0.00 | 0.00 | 70 | 1015.5 |
| 20260902041105 | 18 | 228 | 9.7 | 25.7 | 0.00 | 0.00 | 0.00 | 69 | 1015.4 |
| 20260902041045 | 18 | 186 | 9.7 | 25.7 | 0.00 | 0.00 | 0.00 | 69 | 1015.4 |
| 20260902040944 | 18 | 242 | 9.7 | 25.7 | 0.00 | 0.00 | 0.00 | 69 | 1015.4 |
| 20260902040845 | 18 | 192 | 9.7 | 25.7 | 0.00 | 0.00 | 0.00 | 69 | 1015.4 |
| 20260902040744 | 18 | 283 | 9.7 | 25.7 | 0.00 | 0.00 | 0.00 | 69 | 1015.4 |
| 20260902040638 | 18 | 243 | 9.7 | 25.7 | 0.00 | 0.00 | 0.00 | 69 | 1015.4 |
| 20260902040559 | 18 | 229 | 9.7 | 25.7 | 0.00 | 0.00 | 0.00 | 69 | 1015.3 |
| 20260902040542 | 18 | 250 | 9.7 | 25.7 | 0.00 | 0.00 | 0.00 | 69 | 1015.3 |
| 20260902040439 | 18 | 226 | 9.7 | 25.7 | 0.00 | 0.00 | 0.00 | 68 | 1015.4 |
| 20260902040339 | 18 | 240 | 9.7 | 25.7 | 0.00 | 0.00 | 0.00 | 68 | 1015.3 |
| 20260902040238 | 18 | 194 | 9.7 | 25.7 | 0.00 | 0.00 | 0.00 | 68 | 1015.3 |
| 20260902040132 | 18 | 228 | 8.0 | 25.7 | 0.00 | 0.00 | 0.00 | 68 | 1015.3 |
| 20260902040107 | 18 | 236 | 8.0 | 25.7 | 0.00 | 0.00 | 0.00 | 68 | 1015.2 |
| 20260902040033 | 18 | 246 | 8.0 | 25.7 | 0.00 | 0.00 | 0.00 | 68 | 1015.2 |
| 20260902035932 | 18 | 224 | 8.0 | 25.7 | 0.00 | 0.00 | 0.00 | 68 | 1015.3 |
| 20260902035833 | 18 | 240 | 6.4 | 25.7 | 0.00 | 0.00 | 0.00 | 67 | 1015.3 |
| 20260902035732 | 18 | 228 | 6.4 | 20.9 | 0.00 | 0.00 | 0.00 | 67 | 1015.3 |
| 20260902035626 | 18 | 231 | 6.4 | 20.9 | 0.00 | 0.00 | 0.00 | 67 | 1015.3 |
| 20260902035548 | 18 | 217 | 6.4 | 17.7 | 0.00 | 0.00 | 0.00 | 67 | 1015.3 |
| 20260902035526 | 18 | 300 | 6.4 | 17.7 | 0.00 | 0.00 | 0.00 | 67 | 1015.3 |
| 20260902035426 | 18 | 242 | 6.4 | 17.7 | 0.00 | 0.00 | 0.00 | 67 | 1015.2 |
| 20260902035326 | 18 | 210 | 6.4 | 17.7 | 0.00 | 0.00 | 0.00 | 67 | 1015.2 |
| 20260902035227 | 18 | 235 | 6.4 | 19.3 | 0.00 | 0.00 | 0.00 | 66 | 1015.2 |
| 20260902035124 | 18 | 259 | 6.4 | 19.3 | 0.00 | 0.00 | 0.00 | 66 | 1015.2 |
| 20260902035043 | 18 | 239 | 6.4 | 19.3 | 0.00 | 0.00 | 0.00 | 66 | 1015.2 |
| 20260902035021 | 18 | 242 | 6.4 | 19.3 | 0.00 | 0.00 | 0.00 | 66 | 1015.2 |
| 20260902034920 | 18 | 278 | 6.4 | 19.3 | 0.00 | 0.00 | 0.00 | 66 | 1015.1 |
| 20260902034820 | 18 | 304 | 6.4 | 19.3 | 0.00 | 0.00 | 0.00 | 66 | 1015.2 |
| 20260902034721 | 18 | 233 | 8.0 | 19.3 | 0.00 | 0.00 | 0.00 | 66 | 1015.0 |
| 20260902034617 | 18 | 228 | 8.0 | 20.9 | 0.00 | 0.00 | 0.00 | 66 | 1015.1 |
| 20260902034550 | 18 | 304 | 8.0 | 20.9 | 0.00 | 0.00 | 0.00 | 66 | 1015.1 |
| 20260902034516 | 18 | 183 | 8.0 | 20.9 | 0.00 | 0.00 | 0.00 | 66 | 1015.1 |
| 20260902034416 | 18 | 208 | 8.0 | 20.9 | 0.00 | 0.00 | 0.00 | 66 | 1015.1 |
| 20260902034316 | 18 | 215 | 8.0 | 20.9 | 0.00 | 0.00 | 0.00 | 66 | 1015.1 |
| 20260902034214 | 18 | 242 | 9.7 | 20.9 | 0.00 | 0.00 | 0.00 | 65 | 1015.1 |
| 20260902034108 | 18 | 226 | 9.7 | 20.9 | 0.00 | 0.00 | 0.00 | 65 | 1015.1 |
| 20260902034042 | 18 | 250 | 9.7 | 20.9 | 0.00 | 0.00 | 0.00 | 65 | 1015.1 |
| 20260902034008 | 18 | 203 | 9.7 | 20.9 | 0.00 | 0.00 | 0.00 | 65 | 1015.1 |
| 20260902033910 | 18 | 216 | 9.7 | 20.9 | 0.00 | 0.00 | 0.00 | 65 | 1015.0 |
| 20260902033809 | 18 | 233 | 8.0 | 20.9 | 0.00 | 0.00 | 0.00 | 65 | 1015.0 |
| 20260902033714 | 18 | 277 | 9.7 | 20.9 | 0.00 | 0.00 | 0.00 | 65 | 1015.0 |
| 20260902033608 | 18 | 240 | 9.7 | 25.7 | 0.00 | 0.00 | 0.00 | 65 | 1015.0 |
| 20260902033524 | 18 | 217 | 9.7 | 25.7 | 0.00 | 0.00 | 0.00 | 65 | 1015.0 |
| 20260902033507 | 18 | 250 | 9.7 | 25.7 | 0.00 | 0.00 | 0.00 | 65 | 1015.0 |
| 20260902033405 | 18 | 248 | 8.0 | 25.7 | 0.00 | 0.00 | 0.00 | 65 | 1014.9 |
| 20260902033302 | 18 | 281 | 8.0 | 25.7 | 0.00 | 0.00 | 0.00 | 65 | 1014.9 |
| 20260902033241 | 18 | 239 | 8.0 | 25.7 | 0.00 | 0.00 | 0.00 | 64 | 1014.8 |
| 20260902033202 | 18 | 224 | 6.4 | 25.7 | 0.00 | 0.00 | 0.00 | 65 | 1014.9 |
| 20260902033128 | 18 | 211 | 6.4 | 25.7 | 0.00 | 0.00 | 0.00 | 65 | 1014.9 |
| 20260902033000 | 18 | 225 | 8.0 | 25.7 | 0.00 | 0.00 | 0.00 | 64 | 1014.8 |
| 20260902032900 | 18 | 281 | 8.0 | 27.4 | 0.00 | 0.00 | 0.00 | 64 | 1014.9 |
| 20260902032758 | 18 | 280 | 9.7 | 27.4 | 0.00 | 0.00 | 0.00 | 64 | 1014.9 |
| 20260902032656 | 19 | 226 | 8.0 | 27.4 | 0.00 | 0.00 | 0.00 | 64 | 1014.9 |
| 20260902032551 | 19 | 223 | 8.0 | 27.4 | 0.00 | 0.00 | 0.00 | 64 | 1014.8 |
| 20260902032511 | 19 | 225 | 8.0 | 27.4 | 0.00 | 0.00 | 0.00 | 64 | 1014.8 |
| 20260902032454 | 19 | 219 | 8.0 | 27.4 | 0.00 | 0.00 | 0.00 | 64 | 1014.8 |
| 20260902032355 | 19 | 239 | 8.0 | 27.4 | 0.00 | 0.00 | 0.00 | 64 | 1014.7 |
| 20260902032250 | 19 | 250 | 8.0 | 27.4 | 0.00 | 0.00 | 0.00 | 64 | 1014.7 |
| 20260902032223 | 19 | 240 | 6.4 | 27.4 | 0.00 | 0.00 | 0.00 | 64 | 1014.6 |
| 20260902032153 | 19 | 226 | 8.0 | 27.4 | 0.00 | 0.00 | 0.00 | 64 | 1014.7 |
| 20260902032119 | 19 | 228 | 8.0 | 27.4 | 0.00 | 0.00 | 0.00 | 64 | 1014.7 |
| 20260902031945 | 19 | 276 | 6.4 | 27.4 | 0.00 | 0.00 | 0.00 | 64 | 1014.6 |
| 20260902031846 | 19 | 250 | 6.4 | 22.5 | 0.00 | 0.00 | 0.00 | 63 | 1014.7 |
| 20260902031744 | 19 | 183 | 4.8 | 19.3 | 0.00 | 0.00 | 0.00 | 64 | 1014.6 |
| 20260902031721 | 19 | 238 | 4.8 | 17.7 | 0.00 | 0.00 | 0.00 | 63 | 1014.6 |
| 20260902031644 | 19 | 249 | 4.8 | 19.3 | 0.00 | 0.00 | 0.00 | 63 | 1014.6 |
| 20260902031610 | 19 | 257 | 4.8 | 17.7 | 0.00 | 0.00 | 0.00 | 63 | 1014.6 |
| 20260902031438 | 19 | 247 | 4.8 | 17.7 | 0.00 | 0.00 | 0.00 | 63 | 1014.6 |
| 20260902031339 | 19 | 267 | 6.4 | 17.7 | 0.00 | 0.00 | 0.00 | 63 | 1014.6 |
| 20260902031238 | 19 | 241 | 6.4 | 17.7 | 0.00 | 0.00 | 0.00 | 63 | 1014.6 |
| 20260902031140 | 19 | 248 | 6.4 | 17.7 | 0.00 | 0.00 | 0.00 | 63 | 1014.6 |
| 20260902031032 | 19 | 239 | 6.4 | 17.7 | 0.00 | 0.00 | 0.00 | 63 | 1014.6 |
| 20260902030953 | 19 | 286 | 6.4 | 17.7 | 0.00 | 0.00 | 0.00 | 63 | 1014.6 |
| 20260902030932 | 19 | 242 | 6.4 | 17.7 | 0.00 | 0.00 | 0.00 | 63 | 1014.6 |
| 20260902030832 | 19 | 238 | 6.4 | 17.7 | 0.00 | 0.00 | 0.00 | 63 | 1014.6 |
| 20260902030732 | 19 | 200 | 6.4 | 17.7 | 0.00 | 0.00 | 0.00 | 63 | 1014.6 |
| 20260902030705 | 19 | 214 | 8.0 | 17.7 | 0.00 | 0.00 | 0.00 | 62 | 1014.5 |
| 20260902030632 | 19 | 235 | 8.0 | 17.7 | 0.00 | 0.00 | 0.00 | 63 | 1014.5 |
| 20260902030559 | 19 | 233 | 8.0 | 17.7 | 0.00 | 0.00 | 0.00 | 62 | 1014.4 |
| 20260902030427 | 19 | 214 | 8.0 | 17.7 | 0.00 | 0.00 | 0.00 | 62 | 1014.5 |
| 20260902030326 | 19 | 208 | 6.4 | 17.7 | 0.00 | 0.00 | 0.00 | 62 | 1014.4 |
| 20260902030226 | 19 | 221 | 6.4 | 17.7 | 0.00 | 0.00 | 0.00 | 62 | 1014.4 |
| 20260902030126 | 19 | 248 | 6.4 | 17.7 | 0.00 | 0.00 | 0.00 | 62 | 1014.4 |
| 20260902030020 | 19 | 225 | 6.4 | 17.7 | 0.00 | 0.00 | 0.00 | 62 | 1014.4 |
| 20260902025941 | 19 | 229 | 6.4 | 17.7 | 0.00 | 0.00 | 0.00 | 62 | 1014.4 |
| 20260902025921 | 19 | 250 | 6.4 | 17.7 | 0.00 | 0.00 | 0.00 | 62 | 1014.4 |
| 20260902025820 | 19 | 222 | 6.4 | 19.3 | 0.00 | 0.00 | 0.00 | 62 | 1014.4 |
| 20260902025721 | 19 | 233 | 6.4 | 19.3 | 0.00 | 0.00 | 0.00 | 62 | 1014.3 |
| 20260902025620 | 19 | 298 | 6.4 | 19.3 | 0.00 | 0.00 | 0.00 | 62 | 1014.3 |
| 20260902025514 | 19 | 263 | 6.4 | 19.3 | 0.00 | 0.00 | 0.00 | 62 | 1014.3 |
| 20260902025435 | 19 | 263 | 6.4 | 19.3 | 0.00 | 0.00 | 0.00 | 62 | 1014.3 |
| 20260902025415 | 19 | 316 | 6.4 | 19.3 | 0.00 | 0.00 | 0.00 | 62 | 1014.3 |
| 20260902025315 | 19 | 294 | 6.4 | 19.3 | 0.00 | 0.00 | 0.00 | 62 | 1014.4 |
| 20260902025214 | 19 | 229 | 6.4 | 19.3 | 0.00 | 0.00 | 0.00 | 62 | 1014.3 |
| 20260902025114 | 19 | 253 | 8.0 | 20.9 | 0.00 | 0.00 | 0.00 | 62 | 1014.3 |
| 20260902025008 | 19 | 301 | 8.0 | 20.9 | 0.00 | 0.00 | 0.00 | 61 | 1014.3 |
| 20260902024929 | 19 | 259 | 8.0 | 20.9 | 0.00 | 0.00 | 0.00 | 61 | 1014.3 |
| 20260902024909 | 19 | 253 | 8.0 | 20.9 | 0.00 | 0.00 | 0.00 | 61 | 1014.3 |
| 20260902024808 | 19 | 187 | 8.0 | 20.9 | 0.00 | 0.00 | 0.00 | 61 | 1014.3 |
| 20260902024708 | 19 | 239 | 8.0 | 20.9 | 0.00 | 0.00 | 0.00 | 61 | 1014.2 |
| 20260902024609 | 20 | 256 | 8.0 | 20.9 | 0.00 | 0.00 | 0.00 | 61 | 1014.3 |
| 20260902024506 | 20 | 281 | 8.0 | 20.9 | 0.00 | 0.00 | 0.00 | 61 | 1014.2 |
| 20260902024423 | 20 | 316 | 8.0 | 20.9 | 0.00 | 0.00 | 0.00 | 61 | 1014.2 |
| 20260902024406 | 20 | 248 | 8.0 | 20.9 | 0.00 | 0.00 | 0.00 | 61 | 1014.2 |
| 20260902024305 | 20 | 230 | 8.0 | 20.9 | 0.00 | 0.00 | 0.00 | 61 | 1014.2 |
| 20260902024204 | 20 | 221 | 8.0 | 20.9 | 0.00 | 0.00 | 0.00 | 61 | 1014.3 |
| 20260902024103 | 20 | 243 | 8.0 | 20.9 | 0.00 | 0.00 | 0.00 | 61 | 1014.3 |
| 20260902023958 | 20 | 311 | 8.0 | 22.5 | 0.00 | 0.00 | 0.00 | 61 | 1014.2 |
| 20260902023917 | 20 | 246 | 8.0 | 22.5 | 0.00 | 0.00 | 0.00 | 61 | 1014.2 |
| 20260902023903 | 20 | 256 | 8.0 | 22.5 | 0.00 | 0.00 | 0.00 | 60 | 1014.2 |
| 20260902023756 | 20 | 232 | 8.0 | 22.5 | 0.00 | 0.00 | 0.00 | 60 | 1014.2 |
| 20260902023656 | 20 | 222 | 8.0 | 22.5 | 0.00 | 0.00 | 0.00 | 60 | 1014.2 |
| 20260902023557 | 20 | 263 | 6.4 | 22.5 | 0.00 | 0.00 | 0.00 | 60 | 1014.2 |
| 20260902023450 | 20 | 264 | 6.4 | 22.5 | 0.00 | 0.00 | 0.00 | 60 | 1014.2 |
| 20260902023411 | 20 | 219 | 6.4 | 22.5 | 0.00 | 0.00 | 0.00 | 60 | 1014.2 |
| 20260902023350 | 20 | 285 | 6.4 | 22.5 | 0.00 | 0.00 | 0.00 | 60 | 1014.2 |
| 20260902023250 | 20 | 278 | 6.4 | 22.5 | 0.00 | 0.00 | 0.00 | 60 | 1014.1 |
| 20260902023151 | 20 | 258 | 6.4 | 22.5 | 0.00 | 0.00 | 0.00 | 60 | 1014.1 |
| 20260902023140 | 20 | 236 | 6.4 | 22.5 | 0.00 | 0.00 | 0.00 | 59 | 1014.1 |
| 20260902023051 | 20 | 257 | 6.4 | 22.5 | 0.00 | 0.00 | 0.00 | 59 | 1014.1 |
| 20260902023028 | 20 | 281 | 6.4 | 22.5 | 0.00 | 0.00 | 0.00 | 59 | 1014.1 |
| 20260902022845 | 20 | 264 | 6.4 | 22.5 | 0.00 | 0.00 | 0.00 | 59 | 1014.1 |
| 20260902022745 | 20 | 269 | 4.8 | 20.9 | 0.00 | 0.00 | 0.00 | 59 | 1014.1 |
| 20260902022645 | 20 | 253 | 4.8 | 20.9 | 0.00 | 0.00 | 0.00 | 59 | 1014.1 |
| 20260902022622 | 20 | 225 | 4.8 | 20.9 | 0.00 | 0.00 | 0.00 | 58 | 1014.1 |
| 20260902022545 | 20 | 253 | 6.4 | 20.9 | 0.00 | 0.00 | 0.00 | 58 | 1014.0 |
| 20260902022515 | 20 | 282 | 6.4 | 20.9 | 0.00 | 0.00 | 0.00 | 58 | 1014.1 |
| 20260902022342 | 20 | 232 | 4.8 | 20.9 | 0.00 | 0.00 | 0.00 | 58 | 1014.1 |
| 20260902022241 | 20 | 256 | 4.8 | 20.9 | 0.00 | 0.00 | 0.00 | 58 | 1014.1 |
| 20260902022145 | 20 | 260 | 4.8 | 20.9 | 0.00 | 0.00 | 0.00 | 58 | 1014.1 |
| 20260902022041 | 20 | 212 | 4.8 | 24.1 | 0.00 | 0.00 | 0.00 | 58 | 1014.1 |
| 20260902021932 | 20 | 291 | 6.4 | 24.1 | 0.00 | 0.00 | 0.00 | 58 | 1014.0 |
| 20260902021906 | 20 | 283 | 6.4 | 24.1 | 0.00 | 0.00 | 0.00 | 58 | 1014.0 |
| 20260902021832 | 20 | 353 | 6.4 | 24.1 | 0.00 | 0.00 | 0.00 | 58 | 1014.0 |
| 20260902021732 | 20 | 253 | 6.4 | 24.1 | 0.00 | 0.00 | 0.00 | 58 | 1014.0 |
| 20260902021632 | 20 | 146 | 6.4 | 24.1 | 0.00 | 0.00 | 0.00 | 58 | 1014.0 |
| 20260902021532 | 20 | 285 | 6.4 | 24.1 | 0.00 | 0.00 | 0.00 | 57 | 1013.9 |
| 20260902021429 | 20 | 239 | 6.4 | 24.1 | 0.00 | 0.00 | 0.00 | 57 | 1014.0 |
| 20260902021347 | 20 | 287 | 6.4 | 24.1 | 0.00 | 0.00 | 0.00 | 57 | 1013.9 |
| 20260902021327 | 20 | 290 | 6.4 | 24.1 | 0.00 | 0.00 | 0.00 | 57 | 1013.9 |
| 20260902021226 | 20 | 274 | 4.8 | 24.1 | 0.00 | 0.00 | 0.00 | 57 | 1013.9 |
| 20260902021126 | 20 | 264 | 4.8 | 20.9 | 0.00 | 0.00 | 0.00 | 57 | 1014.0 |
| 20260902021025 | 20 | 226 | 4.8 | 16.1 | 0.00 | 0.00 | 0.00 | 57 | 1013.9 |
| 20260902020920 | 20 | 238 | 4.8 | 16.1 | 0.00 | 0.00 | 0.00 | 57 | 1013.9 |
| 20260902020842 | 20 | 212 | 4.8 | 16.1 | 0.00 | 0.00 | 0.00 | 57 | 1013.9 |
| 20260902020821 | 20 | 225 | 4.8 | 16.1 | 0.00 | 0.00 | 0.00 | 57 | 1013.9 |
| 20260902020720 | 20 | 307 | 3.2 | 16.1 | 0.00 | 0.00 | 0.00 | 57 | 1013.9 |
| 20260902020620 | 20 | 219 | 3.2 | 16.1 | 0.00 | 0.00 | 0.00 | 57 | 1013.8 |
| 20260902020520 | 20 | 239 | 4.8 | 16.1 | 0.00 | 0.00 | 0.00 | 57 | 1013.8 |
| 20260902020414 | 20 | 260 | 4.8 | 16.1 | 0.00 | 0.00 | 0.00 | 57 | 1013.9 |
| 20260902020335 | 20 | 226 | 4.8 | 16.1 | 0.00 | 0.00 | 0.00 | 57 | 1013.9 |
| 20260902020314 | 20 | 283 | 4.8 | 16.1 | 0.00 | 0.00 | 0.00 | 57 | 1013.8 |
| 20260902020215 | 20 | 221 | 4.8 | 16.1 | 0.00 | 0.00 | 0.00 | 56 | 1013.8 |
| 20260902020115 | 20 | 234 | 4.8 | 14.5 | 0.00 | 0.00 | 0.00 | 57 | 1013.8 |
| 20260902020014 | 20 | 271 | 4.8 | 14.5 | 0.00 | 0.00 | 0.00 | 56 | 1013.8 |
| 20260902015909 | 20 | 302 | 4.8 | 19.3 | 0.00 | 0.00 | 0.00 | 56 | 1013.9 |
| 20260902015808 | 20 | 270 | 4.8 | 19.3 | 0.00 | 0.00 | 0.00 | 56 | 1013.9 |
| 20260902015708 | 20 | 269 | 4.8 | 19.3 | 0.00 | 0.00 | 0.00 | 56 | 1013.8 |
| 20260902015609 | 20 | 291 | 4.8 | 19.3 | 0.00 | 0.00 | 0.00 | 56 | 1013.8 |
| 20260902015508 | 20 | 286 | 6.4 | 19.3 | 0.00 | 0.00 | 0.00 | 56 | 1013.9 |
| 20260902015404 | 20 | 243 | 6.4 | 19.3 | 0.00 | 0.00 | 0.00 | 56 | 1013.9 |
| 20260902015323 | 20 | 240 | 6.4 | 19.3 | 0.00 | 0.00 | 0.00 | 56 | 1013.9 |
| 20260902015306 | 20 | 193 | 6.4 | 19.3 | 0.00 | 0.00 | 0.00 | 56 | 1013.8 |
| 20260902015205 | 20 | 291 | 6.4 | 19.3 | 0.00 | 0.00 | 0.00 | 56 | 1013.9 |
| 20260902015104 | 21 | 242 | 6.4 | 19.3 | 0.00 | 0.00 | 0.00 | 56 | 1013.9 |
| 20260902015002 | 21 | 304 | 4.8 | 19.3 | 0.00 | 0.00 | 0.00 | 56 | 1013.8 |
| 20260902014856 | 21 | 308 | 4.8 | 17.7 | 0.00 | 0.00 | 0.00 | 56 | 1013.8 |
| 20260902014817 | 21 | 226 | 4.8 | 17.7 | 0.00 | 0.00 | 0.00 | 55 | 1013.8 |
| 20260902014756 | 21 | 301 | 4.8 | 17.7 | 0.00 | 0.00 | 0.00 | 55 | 1013.8 |
| 20260902014656 | 21 | 263 | 6.4 | 17.7 | 0.00 | 0.00 | 0.00 | 55 | 1013.8 |
| 20260902014557 | 21 | 195 | 4.8 | 17.7 | 0.00 | 0.00 | 0.00 | 55 | 1013.8 |
| 20260902014533 | 21 | 250 | 6.4 | 19.3 | 0.00 | 0.00 | 0.00 | 55 | 1013.8 |
| 20260902014456 | 21 | 259 | 4.8 | 12.9 | 0.00 | 0.00 | 0.00 | 55 | 1013.8 |
| 20260902014421 | 21 | 298 | 4.8 | 19.3 | 0.00 | 0.00 | 0.00 | 55 | 1013.8 |
| 20260902014250 | 21 | 242 | 6.4 | 19.3 | 0.00 | 0.00 | 0.00 | 55 | 1013.8 |
| 20260902014150 | 21 | 238 | 6.4 | 19.3 | 0.00 | 0.00 | 0.00 | 55 | 1013.8 |
| 20260902014051 | 21 | 243 | 6.4 | 20.9 | 0.00 | 0.00 | 0.00 | 55 | 1013.7 |
| 20260902013950 | 21 | 193 | 6.4 | 20.9 | 0.00 | 0.00 | 0.00 | 55 | 1013.7 |
| 20260902013846 | 21 | 250 | 6.4 | 20.9 | 0.00 | 0.00 | 0.00 | 55 | 1013.7 |
| 20260902013806 | 21 | 222 | 8.0 | 20.9 | 0.00 | 0.00 | 0.00 | 54 | 1013.7 |
| 20260902013744 | 21 | 246 | 8.0 | 20.9 | 0.00 | 0.00 | 0.00 | 54 | 1013.7 |
| 20260902013644 | 21 | 236 | 8.0 | 20.9 | 0.00 | 0.00 | 0.00 | 54 | 1013.7 |
| 20260902013546 | 21 | 269 | 8.0 | 20.9 | 0.00 | 0.00 | 0.00 | 54 | 1013.8 |
| 20260902013520 | 21 | 218 | 8.0 | 20.9 | 0.00 | 0.00 | 0.00 | 53 | 1013.8 |
| 20260902013444 | 21 | 298 | 8.0 | 20.9 | 0.00 | 0.00 | 0.00 | 54 | 1013.7 |
| 20260902013338 | 21 | 274 | 8.0 | 20.9 | 0.00 | 0.00 | 0.00 | 54 | 1013.7 |
| 20260902013239 | 21 | 238 | 8.0 | 20.9 | 0.00 | 0.00 | 0.00 | 53 | 1013.8 |
| 20260902013138 | 21 | 253 | 8.0 | 20.9 | 0.00 | 0.00 | 0.00 | 53 | 1013.7 |
| 20260902013039 | 21 | 281 | 8.0 | 20.9 | 0.00 | 0.00 | 0.00 | 53 | 1013.7 |
| 20260902012938 | 21 | 253 | 8.0 | 20.9 | 0.00 | 0.00 | 0.00 | 53 | 1013.7 |
| 20260902012834 | 21 | 290 | 8.0 | 20.9 | 0.00 | 0.00 | 0.00 | 53 | 1013.7 |
| 20260902012753 | 21 | 255 | 8.0 | 20.9 | 0.00 | 0.00 | 0.00 | 53 | 1013.7 |
| 20260902012732 | 21 | 259 | 8.0 | 20.9 | 0.00 | 0.00 | 0.00 | 52 | 1013.7 |
| 20260902012632 | 21 | 231 | 8.0 | 20.9 | 0.00 | 0.00 | 0.00 | 52 | 1013.6 |
| 20260902012535 | 21 | 289 | 6.4 | 20.9 | 0.00 | 0.00 | 0.00 | 52 | 1013.6 |
| 20260902012432 | 22 | 271 | 6.4 | 20.9 | 0.00 | 0.00 | 0.00 | 52 | 1013.6 |
| 20260902012326 | 22 | 264 | 6.4 | 19.3 | 0.00 | 0.00 | 0.00 | 52 | 1013.6 |
| 20260902012247 | 22 | 248 | 6.4 | 19.3 | 0.00 | 0.00 | 0.00 | 51 | 1013.6 |
| 20260902012227 | 22 | 246 | 6.4 | 19.3 | 0.00 | 0.00 | 0.00 | 51 | 1013.6 |
| 20260902012126 | 22 | 252 | 6.4 | 19.3 | 0.00 | 0.00 | 0.00 | 51 | 1013.6 |
| 20260902012026 | 22 | 222 | 6.4 | 19.3 | 0.00 | 0.00 | 0.00 | 51 | 1013.6 |
| 20260902011926 | 22 | 238 | 6.4 | 19.3 | 0.00 | 0.00 | 0.00 | 51 | 1013.6 |
| 20260902011821 | 22 | 232 | 6.4 | 19.3 | 0.00 | 0.00 | 0.00 | 51 | 1013.6 |
| 20260902011742 | 22 | 238 | 4.8 | 19.3 | 0.00 | 0.00 | 0.00 | 51 | 1013.6 |
| 20260902011721 | 22 | 232 | 4.8 | 19.3 | 0.00 | 0.00 | 0.00 | 51 | 1013.6 |
| 20260902011620 | 22 | 259 | 4.8 | 19.3 | 0.00 | 0.00 | 0.00 | 51 | 1013.5 |
| 20260902011521 | 22 | 262 | 4.8 | 19.3 | 0.00 | 0.00 | 0.00 | 51 | 1013.6 |
| 20260902011420 | 22 | 290 | 6.4 | 20.9 | 0.00 | 0.00 | 0.00 | 51 | 1013.5 |
| 20260902011316 | 22 | 243 | 8.0 | 20.9 | 0.00 | 0.00 | 0.00 | 51 | 1013.5 |
| 20260902011235 | 22 | 228 | 8.0 | 20.9 | 0.00 | 0.00 | 0.00 | 51 | 1013.5 |
| 20260902011214 | 22 | 256 | 8.0 | 20.9 | 0.00 | 0.00 | 0.00 | 51 | 1013.5 |
| 20260902011115 | 22 | 253 | 8.0 | 20.9 | 0.00 | 0.00 | 0.00 | 51 | 1013.5 |
| 20260902011015 | 22 | 259 | 8.0 | 20.9 | 0.00 | 0.00 | 0.00 | 51 | 1013.5 |
| 20260902010914 | 22 | 253 | 9.7 | 20.9 | 0.00 | 0.00 | 0.00 | 51 | 1013.5 |
| 20260902010810 | 22 | 270 | 9.7 | 20.9 | 0.00 | 0.00 | 0.00 | 51 | 1013.5 |
| 20260902010729 | 22 | 269 | 9.7 | 20.9 | 0.00 | 0.00 | 0.00 | 51 | 1013.5 |
| 20260902010708 | 22 | 218 | 9.7 | 20.9 | 0.00 | 0.00 | 0.00 | 51 | 1013.4 |
| 20260902010609 | 22 | 285 | 9.7 | 22.5 | 0.00 | 0.00 | 0.00 | 51 | 1013.5 |
| 20260902010508 | 22 | 217 | 8.0 | 22.5 | 0.00 | 0.00 | 0.00 | 51 | 1013.4 |
| 20260902010409 | 22 | 228 | 8.0 | 22.5 | 0.00 | 0.00 | 0.00 | 50 | 1013.5 |
| 20260902010304 | 22 | 238 | 6.4 | 22.5 | 0.00 | 0.00 | 0.00 | 50 | 1013.5 |
| 20260902010223 | 22 | 231 | 6.4 | 22.5 | 0.00 | 0.00 | 0.00 | 50 | 1013.5 |
| 20260902010203 | 22 | 232 | 6.4 | 22.5 | 0.00 | 0.00 | 0.00 | 50 | 1013.5 |
| 20260902010004 | 22 | 240 | 6.4 | 22.5 | 0.00 | 0.00 | 0.00 | 50 | 1013.5 |
| 20260902005902 | 22 | 242 | 4.8 | 22.5 | 0.00 | 0.00 | 0.00 | 50 | 1013.5 |
| 20260902005758 | 22 | 243 | 3.2 | 22.5 | 0.00 | 0.00 | 0.00 | 50 | 1013.5 |
| 20260902005717 | 22 | 250 | 3.2 | 22.5 | 0.00 | 0.00 | 0.00 | 50 | 1013.5 |
| 20260902005658 | 22 | 281 | 3.2 | 22.5 | 0.00 | 0.00 | 0.00 | 50 | 1013.5 |
| 20260902005600 | 22 | 283 | 3.2 | 12.9 | 0.00 | 0.00 | 0.00 | 50 | 1013.5 |
| 20260902005458 | 22 | 233 | 3.2 | 12.9 | 0.00 | 0.00 | 0.00 | 50 | 1013.5 |
| 20260902005430 | 22 | 221 | 3.2 | 12.9 | 0.00 | 0.00 | 0.00 | 50 | 1013.5 |
| 20260902005359 | 22 | 233 | 3.2 | 12.9 | 0.00 | 0.00 | 0.00 | 50 | 1013.5 |
| 20260902005322 | 22 | 240 | 3.2 | 12.9 | 0.00 | 0.00 | 0.00 | 50 | 1013.5 |
| 20260902005152 | 22 | 212 | 3.2 | 12.9 | 0.00 | 0.00 | 0.00 | 50 | 1013.5 |
| 20260902005053 | 22 | 271 | 3.2 | 12.9 | 0.00 | 0.00 | 0.00 | 50 | 1013.4 |
| 20260902004952 | 22 | 250 | 3.2 | 16.1 | 0.00 | 0.00 | 0.00 | 51 | 1013.4 |
| 20260902004933 | 22 | 243 | 4.8 | 16.1 | 0.00 | 0.00 | 0.00 | 50 | 1013.4 |
| 20260902004850 | 22 | 214 | 3.2 | 16.1 | 0.00 | 0.00 | 0.00 | 51 | 1013.4 |
| 20260902004815 | 22 | 243 | 4.8 | 16.1 | 0.00 | 0.00 | 0.00 | 51 | 1013.4 |
| 20260902004644 | 22 | 243 | 4.8 | 16.1 | 0.00 | 0.00 | 0.00 | 50 | 1013.4 |
| 20260902004545 | 22 | 235 | 6.4 | 20.9 | 0.00 | 0.00 | 0.00 | 50 | 1013.5 |
| 20260902004444 | 22 | 230 | 6.4 | 20.9 | 0.00 | 0.00 | 0.00 | 50 | 1013.5 |
| 20260902004348 | 22 | 253 | 8.0 | 20.9 | 0.00 | 0.00 | 0.00 | 50 | 1013.5 |
| 20260902004238 | 22 | 252 | 6.4 | 20.9 | 0.00 | 0.00 | 0.00 | 50 | 1013.5 |
| 20260902004159 | 22 | 243 | 8.0 | 20.9 | 0.00 | 0.00 | 0.00 | 50 | 1013.4 |
| 20260902004138 | 22 | 236 | 8.0 | 20.9 | 0.00 | 0.00 | 0.00 | 50 | 1013.4 |
| 20260902004040 | 22 | 245 | 6.4 | 20.9 | 0.00 | 0.00 | 0.00 | 49 | 1013.5 |
| 20260902003939 | 22 | 255 | 6.4 | 20.9 | 0.00 | 0.00 | 0.00 | 48 | 1013.5 |
| 20260902003839 | 23 | 239 | 6.4 | 20.9 | 0.00 | 0.00 | 0.00 | 48 | 1013.4 |
| 20260902003734 | 23 | 221 | 6.4 | 25.7 | 0.00 | 0.00 | 0.00 | 48 | 1013.4 |
| 20260902003653 | 23 | 210 | 6.4 | 25.7 | 0.00 | 0.00 | 0.00 | 48 | 1013.5 |
| 20260902003633 | 23 | 243 | 6.4 | 25.7 | 0.00 | 0.00 | 0.00 | 48 | 1013.5 |
| 20260902003538 | 23 | 218 | 6.4 | 25.7 | 0.00 | 0.00 | 0.00 | 48 | 1013.5 |
| 20260902003432 | 23 | 219 | 6.4 | 25.7 | 0.00 | 0.00 | 0.00 | 48 | 1013.4 |
| 20260902003332 | 23 | 183 | 6.4 | 25.7 | 0.00 | 0.00 | 0.00 | 49 | 1013.4 |
| 20260902003226 | 23 | 231 | 6.4 | 25.7 | 0.00 | 0.00 | 0.00 | 48 | 1013.4 |
| 20260902003148 | 23 | 207 | 6.4 | 25.7 | 0.00 | 0.00 | 0.00 | 48 | 1013.5 |
| 20260902003128 | 23 | 253 | 6.4 | 25.7 | 0.00 | 0.00 | 0.00 | 48 | 1013.5 |
| 20260902003026 | 23 | 236 | 6.4 | 25.7 | 0.00 | 0.00 | 0.00 | 48 | 1013.5 |
| 20260902002926 | 23 | 124 | 6.4 | 25.7 | 0.00 | 0.00 | 0.00 | 48 | 1013.5 |
| 20260902002826 | 23 | 231 | 6.4 | 25.7 | 0.00 | 0.00 | 0.00 | 48 | 1013.6 |
| 20260902002720 | 23 | 235 | 4.8 | 19.3 | 0.00 | 0.00 | 0.00 | 48 | 1013.6 |
| 20260902002641 | 23 | 212 | 4.8 | 19.3 | 0.00 | 0.00 | 0.00 | 48 | 1013.5 |
| 20260902002620 | 23 | 236 | 4.8 | 19.3 | 0.00 | 0.00 | 0.00 | 48 | 1013.5 |
| 20260902002520 | 23 | 253 | 6.4 | 19.3 | 0.00 | 0.00 | 0.00 | 48 | 1013.5 |
| 20260902002420 | 23 | 210 | 4.8 | 19.3 | 0.00 | 0.00 | 0.00 | 48 | 1013.5 |
| 20260902002357 | 23 | 246 | 6.4 | 19.3 | 0.00 | 0.00 | 0.00 | 47 | 1013.5 |
| 20260902002320 | 23 | 139 | 4.8 | 19.3 | 0.00 | 0.00 | 0.00 | 48 | 1013.5 |
| 20260902002246 | 23 | 246 | 6.4 | 19.3 | 0.00 | 0.00 | 0.00 | 48 | 1013.5 |
| 20260902002114 | 23 | 245 | 6.4 | 19.3 | 0.00 | 0.00 | 0.00 | 47 | 1013.4 |
| 20260902002014 | 23 | 271 | 6.4 | 19.3 | 0.00 | 0.00 | 0.00 | 48 | 1013.5 |
| 20260902001914 | 23 | 243 | 8.0 | 24.1 | 0.00 | 0.00 | 0.00 | 48 | 1013.4 |
| 20260902001814 | 23 | 263 | 8.0 | 24.1 | 0.00 | 0.00 | 0.00 | 48 | 1013.5 |
| 20260902001708 | 23 | 257 | 6.4 | 24.1 | 0.00 | 0.00 | 0.00 | 47 | 1013.5 |
| 20260902001629 | 23 | 231 | 6.4 | 24.1 | 0.00 | 0.00 | 0.00 | 47 | 1013.5 |
| 20260902001608 | 23 | 236 | 6.4 | 24.1 | 0.00 | 0.00 | 0.00 | 47 | 1013.4 |
| 20260902001508 | 23 | 246 | 6.4 | 24.1 | 0.00 | 0.00 | 0.00 | 48 | 1013.4 |
| 20260902001408 | 23 | 253 | 4.8 | 24.1 | 0.00 | 0.00 | 0.00 | 48 | 1013.4 |
| 20260902001343 | 23 | 270 | 4.8 | 24.1 | 0.00 | 0.00 | 0.00 | 47 | 1013.4 |
| 20260902001309 | 23 | 238 | 4.8 | 24.1 | 0.00 | 0.00 | 0.00 | 48 | 1013.4 |
| 20260902001233 | 23 | 283 | 4.8 | 24.1 | 0.00 | 0.00 | 0.00 | 47 | 1013.4 |
| 20260902001103 | 23 | 193 | 4.8 | 24.1 | 0.00 | 0.00 | 0.00 | 47 | 1013.5 |
| 20260902001002 | 23 | 256 | 4.8 | 20.9 | 0.00 | 0.00 | 0.00 | 47 | 1013.4 |
| 20260902000903 | 23 | 208 | 4.8 | 16.1 | 0.00 | 0.00 | 0.00 | 47 | 1013.4 |
| 20260902000802 | 23 | 232 | 4.8 | 16.1 | 0.00 | 0.00 | 0.00 | 48 | 1013.4 |
| 20260902000702 | 23 | 230 | 4.8 | 16.1 | 0.00 | 0.00 | 0.00 | 48 | 1013.5 |
| 20260902000617 | 23 | 231 | 4.8 | 16.1 | 0.00 | 0.00 | 0.00 | 48 | 1013.5 |
| 20260902000601 | 23 | 221 | 4.8 | 16.1 | 0.00 | 0.00 | 0.00 | 48 | 1013.5 |
| 20260902000500 | 23 | 235 | 6.4 | 16.1 | 0.00 | 0.00 | 0.00 | 48 | 1013.5 |
| 20260902000359 | 23 | 260 | 6.4 | 25.7 | 0.00 | 0.00 | 0.00 | 47 | 1013.5 |
| 20260902000257 | 23 | 230 | 6.4 | 25.7 | 0.00 | 0.00 | 0.00 | 47 | 1013.4 |
| 20260902000150 | 23 | 243 | 6.4 | 25.7 | 0.00 | 0.00 | 0.00 | 47 | 1013.5 |
| 20260902000112 | 23 | 225 | 6.4 | 25.7 | 0.00 | 0.00 | 0.00 | 47 | 1013.5 |
| 20260902000051 | 23 | 236 | 4.8 | 25.7 | 0.00 | 0.00 | 0.00 | 47 | 1013.5 |
| 20260901235950 | 23 | 198 | 4.8 | 25.7 | 0.00 | 0.00 | 0.00 | 47 | 1013.5 |
| 20260901235851 | 23 | 271 | 4.8 | 25.7 | 0.00 | 0.00 | 0.00 | 47 | 1013.5 |
| 20260901235750 | 23 | 192 | 4.8 | 25.7 | 0.00 | 0.00 | 0.00 | 47 | 1013.5 |
| 20260901235646 | 23 | 325 | 4.8 | 25.7 | 0.00 | 0.00 | 0.00 | 46 | 1013.5 |
| 20260901235605 | 23 | 226 | 4.8 | 25.7 | 0.00 | 0.00 | 0.00 | 46 | 1013.5 |
| 20260901235544 | 23 | 245 | 4.8 | 25.7 | 0.00 | 0.00 | 0.00 | 46 | 1013.5 |
| 20260901235444 | 23 | 246 | 4.8 | 25.7 | 0.00 | 0.00 | 0.00 | 47 | 1013.5 |
| 20260901235344 | 23 | 240 | 4.8 | 16.1 | 0.00 | 0.00 | 0.00 | 46 | 1013.5 |
| 20260901235244 | 23 | 270 | 4.8 | 19.3 | 0.00 | 0.00 | 0.00 | 46 | 1013.5 |
| 20260901235140 | 23 | 246 | 4.8 | 19.3 | 0.00 | 0.00 | 0.00 | 47 | 1013.5 |
| 20260901235059 | 23 | 246 | 4.8 | 19.3 | 0.00 | 0.00 | 0.00 | 47 | 1013.5 |
| 20260901235042 | 23 | 245 | 4.8 | 19.3 | 0.00 | 0.00 | 0.00 | 47 | 1013.5 |
| 20260901234940 | 23 | 240 | 4.8 | 19.3 | 0.00 | 0.00 | 0.00 | 47 | 1013.6 |
| 20260901234840 | 23 | 231 | 4.8 | 19.3 | 0.00 | 0.00 | 0.00 | 47 | 1013.5 |
| 20260901234738 | 23 | 226 | 6.4 | 19.3 | 0.00 | 0.00 | 0.00 | 47 | 1013.5 |
| 20260901234632 | 23 | 233 | 6.4 | 19.3 | 0.00 | 0.00 | 0.00 | 45 | 1013.6 |
| 20260901234554 | 23 | 240 | 6.4 | 20.9 | 0.00 | 0.00 | 0.00 | 45 | 1013.6 |
| 20260901234538 | 23 | 235 | 6.4 | 20.9 | 0.00 | 0.00 | 0.00 | 46 | 1013.6 |
| 20260901234432 | 24 | 267 | 6.4 | 20.9 | 0.00 | 0.00 | 0.00 | 45 | 1013.6 |
| 20260901234332 | 24 | 225 | 6.4 | 20.9 | 0.00 | 0.00 | 0.00 | 45 | 1013.5 |
| 20260901234231 | 24 | 233 | 4.8 | 20.9 | 0.00 | 0.00 | 0.00 | 45 | 1013.5 |
| 20260901234126 | 24 | 207 | 6.4 | 20.9 | 0.00 | 0.00 | 0.00 | 46 | 1013.5 |
| 20260901234048 | 24 | 250 | 6.4 | 20.9 | 0.00 | 0.00 | 0.00 | 46 | 1013.5 |
| 20260901234026 | 24 | 224 | 6.4 | 20.9 | 0.00 | 0.00 | 0.00 | 46 | 1013.5 |
| 20260901233927 | 24 | 248 | 8.0 | 20.9 | 0.00 | 0.00 | 0.00 | 46 | 1013.5 |
| 20260901233827 | 24 | 229 | 8.0 | 25.7 | 0.00 | 0.00 | 0.00 | 45 | 1013.5 |
| 20260901233726 | 24 | 259 | 8.0 | 25.7 | 0.00 | 0.00 | 0.00 | 45 | 1013.5 |
| 20260901233623 | 24 | 149 | 8.0 | 25.7 | 0.00 | 0.00 | 0.00 | 46 | 1013.5 |
| 20260901233542 | 24 | 159 | 8.0 | 25.7 | 0.00 | 0.00 | 0.00 | 46 | 1013.5 |
| 20260901233520 | 24 | 231 | 8.0 | 25.7 | 0.00 | 0.00 | 0.00 | 46 | 1013.5 |
| 20260901233421 | 24 | 273 | 8.0 | 25.7 | 0.00 | 0.00 | 0.00 | 46 | 1013.6 |
| 20260901233320 | 24 | 273 | 8.0 | 25.7 | 0.00 | 0.00 | 0.00 | 45 | 1013.6 |
| 20260901233259 | 24 | 248 | 6.4 | 25.7 | 0.00 | 0.00 | 0.00 | 45 | 1013.6 |
| 20260901233220 | 24 | 228 | 8.0 | 25.7 | 0.00 | 0.00 | 0.00 | 45 | 1013.6 |
| 20260901233154 | 24 | 225 | 6.4 | 25.7 | 0.00 | 0.00 | 0.00 | 45 | 1013.6 |
| 20260901233016 | 24 | 228 | 6.4 | 25.7 | 0.00 | 0.00 | 0.00 | 45 | 1013.6 |
| 20260901232914 | 24 | 226 | 6.4 | 25.7 | 0.00 | 0.00 | 0.00 | 45 | 1013.6 |
| 20260901232814 | 24 | 300 | 4.8 | 19.3 | 0.00 | 0.00 | 0.00 | 44 | 1013.6 |
| 20260901232714 | 25 | 214 | 3.2 | 17.7 | 0.00 | 0.00 | 0.00 | 44 | 1013.6 |
| 20260901232609 | 25 | 148 | 3.2 | 17.7 | 0.00 | 0.00 | 0.00 | 44 | 1013.7 |
| 20260901232540 | 25 | 249 | 3.2 | 17.7 | 0.00 | 0.00 | 0.00 | 44 | 1013.7 |
| 20260901232508 | 25 | 182 | 3.2 | 17.7 | 0.00 | 0.00 | 0.00 | 44 | 1013.6 |
| 20260901232408 | 25 | 217 | 3.2 | 17.7 | 0.00 | 0.00 | 0.00 | 44 | 1013.7 |
| 20260901232308 | 25 | 322 | 3.2 | 11.3 | 0.00 | 0.00 | 0.00 | 45 | 1013.6 |
| 20260901232208 | 25 | 212 | 3.2 | 11.3 | 0.00 | 0.00 | 0.00 | 45 | 1013.7 |
| 20260901232102 | 24 | 226 | 3.2 | 16.1 | 0.00 | 0.00 | 0.00 | 45 | 1013.6 |
| 20260901232040 | 24 | 204 | 3.2 | 16.1 | 0.00 | 0.00 | 0.00 | 45 | 1013.6 |
| 20260901232003 | 24 | 240 | 4.8 | 16.1 | 0.00 | 0.00 | 0.00 | 45 | 1013.7 |
| 20260901231902 | 24 | 212 | 4.8 | 16.1 | 0.00 | 0.00 | 0.00 | 45 | 1013.7 |
| 20260901231803 | 24 | 270 | 4.8 | 16.1 | 0.00 | 0.00 | 0.00 | 45 | 1013.7 |
| 20260901231702 | 24 | 188 | 4.8 | 16.1 | 0.00 | 0.00 | 0.00 | 45 | 1013.7 |
| 20260901231557 | 24 | 248 | 4.8 | 16.1 | 0.00 | 0.00 | 0.00 | 45 | 1013.7 |
| 20260901231541 | 24 | 250 | 4.8 | 16.1 | 0.00 | 0.00 | 0.00 | 45 | 1013.7 |
| 20260901231456 | 24 | 250 | 4.8 | 16.1 | 0.00 | 0.00 | 0.00 | 45 | 1013.7 |
| 20260901231358 | 24 | 217 | 4.8 | 16.1 | 0.00 | 0.00 | 0.00 | 45 | 1013.7 |
| 20260901231256 | 24 | 256 | 6.4 | 17.7 | 0.00 | 0.00 | 0.00 | 45 | 1013.7 |
| 20260901231156 | 24 | 224 | 6.4 | 17.7 | 0.00 | 0.00 | 0.00 | 45 | 1013.8 |
| 20260901231054 | 24 | 229 | 6.4 | 17.7 | 0.00 | 0.00 | 0.00 | 44 | 1013.8 |
| 20260901231039 | 24 | 259 | 6.4 | 17.7 | 0.00 | 0.00 | 0.00 | 45 | 1013.8 |
| 20260901230955 | 24 | 252 | 6.4 | 17.7 | 0.00 | 0.00 | 0.00 | 45 | 1013.8 |
| 20260901230854 | 24 | 280 | 6.4 | 17.7 | 0.00 | 0.00 | 0.00 | 45 | 1013.7 |
| 20260901230752 | 24 | 280 | 6.4 | 17.7 | 0.00 | 0.00 | 0.00 | 45 | 1013.8 |
| 20260901230652 | 24 | 280 | 6.4 | 17.7 | 0.00 | 0.00 | 0.00 | 44 | 1013.8 |
| 20260901230603 | 24 | 236 | 4.8 | 17.7 | 0.00 | 0.00 | 0.00 | 45 | 1013.8 |
| 20260901230553 | 24 | 291 | 4.8 | 17.7 | 0.00 | 0.00 | 0.00 | 44 | 1013.8 |
| 20260901230452 | 24 | 198 | 6.4 | 17.7 | 0.00 | 0.00 | 0.00 | 44 | 1013.8 |
| 20260901230352 | 24 | 236 | 4.8 | 17.7 | 0.00 | 0.00 | 0.00 | 45 | 1013.9 |
| 20260901230250 | 24 | 236 | 4.8 | 14.5 | 0.00 | 0.00 | 0.00 | 44 | 1013.9 |
| 20260901230151 | 24 | 207 | 4.8 | 14.5 | 0.00 | 0.00 | 0.00 | 44 | 1013.9 |
| 20260901230050 | 24 | 177 | 6.4 | 19.3 | 0.00 | 0.00 | 0.00 | 44 | 1013.9 |
| 20260901225950 | 24 | 229 | 6.4 | 19.3 | 0.00 | 0.00 | 0.00 | 44 | 1013.8 |
| 20260901225850 | 24 | 129 | 8.0 | 20.9 | 0.00 | 0.00 | 0.00 | 44 | 1013.9 |
| 20260901225751 | 24 | 160 | 8.0 | 20.9 | 0.00 | 0.00 | 0.00 | 45 | 1013.9 |
| 20260901225650 | 24 | 312 | 8.0 | 20.9 | 0.00 | 0.00 | 0.00 | 45 | 1013.9 |
| 20260901225550 | 24 | 30 | 8.0 | 20.9 | 0.00 | 0.00 | 0.00 | 45 | 1013.9 |
| 20260901225535 | 24 | 250 | 8.0 | 20.9 | 0.00 | 0.00 | 0.00 | 45 | 1013.9 |
| 20260901225448 | 24 | 233 | 8.0 | 20.9 | 0.00 | 0.00 | 0.00 | 44 | 1013.9 |
| 20260901225348 | 24 | 143 | 8.0 | 20.9 | 0.00 | 0.00 | 0.00 | 45 | 1013.9 |
| 20260901225248 | 24 | 228 | 8.0 | 20.9 | 0.00 | 0.00 | 0.00 | 44 | 1013.9 |
| 20260901225148 | 24 | 273 | 8.0 | 20.9 | 0.00 | 0.00 | 0.00 | 43 | 1013.9 |
| 20260901225049 | 24 | 263 | 8.0 | 20.9 | 0.00 | 0.00 | 0.00 | 44 | 1013.9 |
| 20260901225036 | 24 | 226 | 8.0 | 20.9 | 0.00 | 0.00 | 0.00 | 44 | 1013.9 |
| 20260901224948 | 24 | 231 | 6.4 | 20.9 | 0.00 | 0.00 | 0.00 | 44 | 1013.9 |
| 20260901224842 | 24 | 243 | 6.4 | 20.9 | 0.00 | 0.00 | 0.00 | 44 | 1013.9 |
| 20260901224743 | 24 | 164 | 6.4 | 17.7 | 0.00 | 0.00 | 0.00 | 44 | 1013.8 |
| 20260901224643 | 24 | 112 | 6.4 | 17.7 | 0.00 | 0.00 | 0.00 | 43 | 1013.8 |
| 20260901224547 | 24 | 242 | 6.4 | 17.7 | 0.00 | 0.00 | 0.00 | 43 | 1013.9 |
| 20260901224537 | 24 | 229 | 6.4 | 17.7 | 0.00 | 0.00 | 0.00 | 43 | 1013.9 |
| 20260901224442 | 24 | 232 | 6.4 | 17.7 | 0.00 | 0.00 | 0.00 | 44 | 1013.8 |
| 20260901224341 | 24 | 161 | 4.8 | 16.1 | 0.00 | 0.00 | 0.00 | 44 | 1013.9 |
| 20260901224240 | 24 | 225 | 4.8 | 16.1 | 0.00 | 0.00 | 0.00 | 44 | 1013.9 |
| 20260901224138 | 24 | 245 | 4.8 | 16.1 | 0.00 | 0.00 | 0.00 | 44 | 1013.9 |
| 20260901224041 | 24 | 242 | 4.8 | 16.1 | 0.00 | 0.00 | 0.00 | 43 | 1014.0 |
| 20260901223936 | 24 | 266 | 4.8 | 17.7 | 0.00 | 0.00 | 0.00 | 44 | 1014.0 |
| 20260901223830 | 24 | 250 | 4.8 | 17.7 | 0.00 | 0.00 | 0.00 | 44 | 1013.9 |
| 20260901223731 | 24 | 260 | 4.8 | 17.7 | 0.00 | 0.00 | 0.00 | 44 | 1014.0 |
| 20260901223631 | 24 | 259 | 4.8 | 17.7 | 0.00 | 0.00 | 0.00 | 44 | 1014.0 |
| 20260901223540 | 24 | 291 | 4.8 | 17.7 | 0.00 | 0.00 | 0.00 | 45 | 1014.0 |
| 20260901223534 | 24 | 228 | 4.8 | 17.7 | 0.00 | 0.00 | 0.00 | 45 | 1014.0 |
| 20260901223430 | 24 | 300 | 4.8 | 17.7 | 0.00 | 0.00 | 0.00 | 45 | 1014.0 |
| 20260901223325 | 24 | 304 | 6.4 | 17.7 | 0.00 | 0.00 | 0.00 | 45 | 1014.0 |
| 20260901223225 | 24 | 225 | 6.4 | 17.7 | 0.00 | 0.00 | 0.00 | 44 | 1014.0 |
| 20260901223124 | 24 | 228 | 6.4 | 17.7 | 0.00 | 0.00 | 0.00 | 44 | 1014.0 |
| 20260901223034 | 24 | 225 | 8.0 | 22.5 | 0.00 | 0.00 | 0.00 | 45 | 1014.0 |
| 20260901223025 | 24 | 239 | 8.0 | 22.5 | 0.00 | 0.00 | 0.00 | 45 | 1014.0 |
| 20260901222924 | 24 | 242 | 9.7 | 22.5 | 0.00 | 0.00 | 0.00 | 44 | 1014.1 |
| 20260901222819 | 24 | 236 | 9.7 | 22.5 | 0.00 | 0.00 | 0.00 | 44 | 1014.0 |
| 20260901222718 | 24 | 240 | 9.7 | 22.5 | 0.00 | 0.00 | 0.00 | 44 | 1014.0 |
| 20260901222618 | 24 | 229 | 8.0 | 22.5 | 0.00 | 0.00 | 0.00 | 44 | 1014.1 |
| 20260901222535 | 24 | 138 | 8.0 | 22.5 | 0.00 | 0.00 | 0.00 | 44 | 1014.1 |
| 20260901222518 | 24 | 207 | 8.0 | 22.5 | 0.00 | 0.00 | 0.00 | 45 | 1014.1 |
| 20260901222418 | 24 | 198 | 8.0 | 22.5 | 0.00 | 0.00 | 0.00 | 44 | 1014.1 |
| 20260901222312 | 24 | 250 | 6.4 | 22.5 | 0.00 | 0.00 | 0.00 | 44 | 1014.1 |
| 20260901222212 | 24 | 279 | 6.4 | 22.5 | 0.00 | 0.00 | 0.00 | 44 | 1014.1 |
| 20260901222112 | 24 | 253 | 4.8 | 22.5 | 0.00 | 0.00 | 0.00 | 44 | 1014.1 |
| 20260901222033 | 24 | 208 | 4.8 | 17.7 | 0.00 | 0.00 | 0.00 | 44 | 1014.1 |
| 20260901222012 | 24 | 128 | 4.8 | 17.7 | 0.00 | 0.00 | 0.00 | 44 | 1014.1 |
| 20260901221912 | 24 | 250 | 3.2 | 17.7 | 0.00 | 0.00 | 0.00 | 45 | 1014.1 |
| 20260901221811 | 24 | 314 | 3.2 | 14.5 | 0.00 | 0.00 | 0.00 | 45 | 1014.1 |
| 20260901221710 | 24 | 328 | 3.2 | 14.5 | 0.00 | 0.00 | 0.00 | 45 | 1014.2 |
| 20260901221611 | 24 | 358 | 3.2 | 14.5 | 0.00 | 0.00 | 0.00 | 45 | 1014.2 |
| 20260901221535 | 24 | 326 | 3.2 | 14.5 | 0.00 | 0.00 | 0.00 | 45 | 1014.2 |
| 20260901221509 | 24 | 236 | 3.2 | 14.5 | 0.00 | 0.00 | 0.00 | 45 | 1014.3 |
| 20260901221406 | 24 | 286 | 3.2 | 14.5 | 0.00 | 0.00 | 0.00 | 45 | 1014.3 |
| 20260901221304 | 24 | 267 | 3.2 | 20.9 | 0.00 | 0.00 | 0.00 | 44 | 1014.3 |
| 20260901221300 | 24 | 242 | 3.2 | 17.7 | 0.00 | 0.00 | 0.00 | 45 | 1014.3 |
| 20260901221200 | 24 | 239 | 3.2 | 20.9 | 0.00 | 0.00 | 0.00 | 44 | 1014.3 |
| 20260901221143 | 24 | 165 | 3.2 | 20.9 | 0.00 | 0.00 | 0.00 | 44 | 1014.3 |
| 20260901221000 | 24 | 252 | 3.2 | 20.9 | 0.00 | 0.00 | 0.00 | 45 | 1014.4 |
| 20260901220900 | 24 | 151 | 3.2 | 20.9 | 0.00 | 0.00 | 0.00 | 44 | 1014.3 |
| 20260901220754 | 24 | 211 | 4.8 | 20.9 | 0.00 | 0.00 | 0.00 | 45 | 1014.4 |
| 20260901220654 | 24 | 307 | 4.8 | 20.9 | 0.00 | 0.00 | 0.00 | 45 | 1014.3 |
| 20260901220554 | 24 | 308 | 4.8 | 20.9 | 0.00 | 0.00 | 0.00 | 45 | 1014.4 |
| 20260901220534 | 24 | 307 | 4.8 | 20.9 | 0.00 | 0.00 | 0.00 | 45 | 1014.4 |
| 20260901220454 | 24 | 287 | 4.8 | 20.9 | 0.00 | 0.00 | 0.00 | 44 | 1014.5 |
| 20260901220356 | 24 | 259 | 4.8 | 20.9 | 0.00 | 0.00 | 0.00 | 44 | 1014.4 |
| 20260901220252 | 24 | 231 | 4.8 | 14.5 | 0.00 | 0.00 | 0.00 | 45 | 1014.4 |
| 20260901220243 | 24 | 203 | 4.8 | 14.5 | 0.00 | 0.00 | 0.00 | 46 | 1014.3 |
| 20260901220150 | 24 | 233 | 4.8 | 14.5 | 0.00 | 0.00 | 0.00 | 46 | 1014.3 |
| 20260901220136 | 24 | 270 | 4.8 | 14.5 | 0.00 | 0.00 | 0.00 | 46 | 1014.3 |
| 20260901215948 | 24 | 144 | 4.8 | 14.5 | 0.00 | 0.00 | 0.00 | 46 | 1014.4 |
| 20260901215846 | 24 | 238 | 4.8 | 16.1 | 0.00 | 0.00 | 0.00 | 46 | 1014.3 |
| 20260901215748 | 23 | 236 | 4.8 | 16.1 | 0.00 | 0.00 | 0.00 | 47 | 1014.3 |
| 20260901215742 | 24 | 197 | 4.8 | 16.1 | 0.00 | 0.00 | 0.00 | 47 | 1014.3 |
| 20260901215640 | 23 | 219 | 4.8 | 16.1 | 0.00 | 0.00 | 0.00 | 47 | 1014.3 |
| 20260901215630 | 23 | 233 | 4.8 | 16.1 | 0.00 | 0.00 | 0.00 | 47 | 1014.3 |
| 20260901215441 | 23 | 215 | 6.4 | 17.7 | 0.00 | 0.00 | 0.00 | 47 | 1014.3 |
| 20260901215340 | 23 | 230 | 6.4 | 22.5 | 0.00 | 0.00 | 0.00 | 47 | 1014.3 |
| 20260901215237 | 23 | 228 | 8.0 | 22.5 | 0.00 | 0.00 | 0.00 | 47 | 1014.4 |
| 20260901215136 | 23 | 153 | 8.0 | 22.5 | 0.00 | 0.00 | 0.00 | 46 | 1014.5 |
| 20260901215037 | 23 | 219 | 9.7 | 22.5 | 0.00 | 0.00 | 0.00 | 47 | 1014.4 |
| 20260901215013 | 23 | 231 | 9.7 | 22.5 | 0.00 | 0.00 | 0.00 | 46 | 1014.4 |
| 20260901214936 | 23 | 162 | 9.7 | 22.5 | 0.00 | 0.00 | 0.00 | 46 | 1014.4 |
| 20260901214833 | 23 | 259 | 8.0 | 22.5 | 0.00 | 0.00 | 0.00 | 45 | 1014.4 |
| 20260901214730 | 23 | 203 | 8.0 | 22.5 | 0.00 | 0.00 | 0.00 | 46 | 1014.5 |
| 20260901214629 | 23 | 242 | 6.4 | 22.5 | 0.00 | 0.00 | 0.00 | 46 | 1014.5 |
| 20260901214531 | 23 | 253 | 6.4 | 22.5 | 0.00 | 0.00 | 0.00 | 45 | 1014.5 |
| 20260901214508 | 24 | 238 | 4.8 | 22.5 | 0.00 | 0.00 | 0.00 | 45 | 1014.5 |
| 20260901214428 | 24 | 228 | 4.8 | 19.3 | 0.00 | 0.00 | 0.00 | 46 | 1014.5 |
| 20260901214329 | 24 | 193 | 4.8 | 19.3 | 0.00 | 0.00 | 0.00 | 46 | 1014.5 |
| 20260901214226 | 24 | 211 | 1.6 | 9.7 | 0.00 | 0.00 | 0.00 | 47 | 1014.4 |
| 20260901214222 | 24 | 225 | 3.2 | 19.3 | 0.00 | 0.00 | 0.00 | 46 | 1014.5 |
| 20260901214122 | 24 | 184 | 3.2 | 16.1 | 0.00 | 0.00 | 0.00 | 45 | 1014.5 |
| 20260901214113 | 24 | 229 | 1.6 | 9.7 | 0.00 | 0.00 | 0.00 | 46 | 1014.4 |
| 20260901213922 | 24 | 190 | 1.6 | 9.7 | 0.00 | 0.00 | 0.00 | 47 | 1014.4 |
| 20260901213716 | 24 | 259 | 3.2 | 11.3 | 0.00 | 0.00 | 0.00 | 46 | 1014.4 |
| 20260901213616 | 24 | 257 | 3.2 | 11.3 | 0.00 | 0.00 | 0.00 | 46 | 1014.5 |
| 20260901213517 | 24 | 257 | 3.2 | 12.9 | 0.00 | 0.00 | 0.00 | 47 | 1014.5 |
| 20260901213455 | 24 | 257 | 3.2 | 12.9 | 0.00 | 0.00 | 0.00 | 47 | 1014.5 |
| 20260901213416 | 24 | 259 | 3.2 | 17.7 | 0.00 | 0.00 | 0.00 | 47 | 1014.5 |
| 20260901213317 | 24 | 305 | 4.8 | 19.3 | 0.00 | 0.00 | 0.00 | 48 | 1014.5 |
| 20260901213210 | 24 | 338 | 4.8 | 19.3 | 0.00 | 0.00 | 0.00 | 47 | 1014.5 |
| 20260901213111 | 24 | 316 | 4.8 | 19.3 | 0.00 | 0.00 | 0.00 | 47 | 1014.5 |
| 20260901213011 | 23 | 232 | 4.8 | 19.3 | 0.00 | 0.00 | 0.00 | 47 | 1014.6 |
| 20260901212949 | 23 | 224 | 4.8 | 19.3 | 0.00 | 0.00 | 0.00 | 47 | 1014.6 |
| 20260901212910 | 23 | 238 | 4.8 | 19.3 | 0.00 | 0.00 | 0.00 | 49 | 1014.5 |
| 20260901212810 | 23 | 200 | 4.8 | 19.3 | 0.00 | 0.00 | 0.00 | 48 | 1014.5 |
| 20260901212714 | 23 | 252 | 4.8 | 19.3 | 0.00 | 0.00 | 0.00 | 46 | 1014.5 |
| 20260901212704 | 23 | 67 | 4.8 | 19.3 | 0.00 | 0.00 | 0.00 | 47 | 1014.4 |
| 20260901212604 | 23 | 249 | 6.4 | 19.3 | 0.00 | 0.00 | 0.00 | 47 | 1014.5 |
| 20260901212554 | 23 | 248 | 4.8 | 19.3 | 0.00 | 0.00 | 0.00 | 46 | 1014.5 |
| 20260901212404 | 23 | 225 | 4.8 | 17.7 | 0.00 | 0.00 | 0.00 | 47 | 1014.5 |
| 20260901212306 | 23 | 240 | 6.4 | 17.7 | 0.00 | 0.00 | 0.00 | 47 | 1014.5 |
| 20260901212158 | 23 | 266 | 6.4 | 17.7 | 0.00 | 0.00 | 0.00 | 47 | 1014.4 |
| 20260901212100 | 23 | 284 | 6.4 | 17.7 | 0.00 | 0.00 | 0.00 | 48 | 1014.5 |
| 20260901211958 | 23 | 284 | 6.4 | 17.7 | 0.00 | 0.00 | 0.00 | 49 | 1014.5 |
| 20260901211937 | 23 | 270 | 6.4 | 17.7 | 0.00 | 0.00 | 0.00 | 48 | 1014.5 |
| 20260901211859 | 23 | 97 | 6.4 | 17.7 | 0.00 | 0.00 | 0.00 | 48 | 1014.4 |
| 20260901211758 | 23 | 165 | 6.4 | 17.7 | 0.00 | 0.00 | 0.00 | 48 | 1014.4 |
| 20260901211652 | 23 | 159 | 6.4 | 17.7 | 0.00 | 0.00 | 0.00 | 48 | 1014.4 |
| 20260901211552 | 23 | 203 | 6.4 | 17.7 | 0.00 | 0.00 | 0.00 | 48 | 1014.4 |
| 20260901211452 | 23 | 219 | 8.0 | 17.7 | 0.00 | 0.00 | 0.00 | 48 | 1014.5 |
| 20260901211431 | 23 | 217 | 8.0 | 17.7 | 0.00 | 0.00 | 0.00 | 48 | 1014.5 |
| 20260901211352 | 23 | 231 | 8.0 | 17.7 | 0.00 | 0.00 | 0.00 | 48 | 1014.5 |
| 20260901211252 | 23 | 218 | 8.0 | 17.7 | 0.00 | 0.00 | 0.00 | 49 | 1014.5 |
| 20260901211149 | 23 | 136 | 8.0 | 17.7 | 0.00 | 0.00 | 0.00 | 48 | 1014.5 |
| 20260901211048 | 23 | 219 | 6.4 | 17.7 | 0.00 | 0.00 | 0.00 | 48 | 1014.5 |
| 20260901210947 | 23 | 199 | 6.4 | 17.7 | 0.00 | 0.00 | 0.00 | 49 | 1014.5 |
| 20260901210925 | 23 | 198 | 6.4 | 17.7 | 0.00 | 0.00 | 0.00 | 49 | 1014.5 |
| 20260901210846 | 23 | 215 | 6.4 | 17.7 | 0.00 | 0.00 | 0.00 | 49 | 1014.6 |
| 20260901210746 | 23 | 232 | 6.4 | 17.7 | 0.00 | 0.00 | 0.00 | 48 | 1014.5 |
| 20260901210640 | 23 | 288 | 4.8 | 17.7 | 0.00 | 0.00 | 0.00 | 48 | 1014.5 |
| 20260901210541 | 23 | 245 | 4.8 | 17.7 | 0.00 | 0.00 | 0.00 | 47 | 1014.6 |
| 20260901210440 | 24 | 281 | 4.8 | 17.7 | 0.00 | 0.00 | 0.00 | 47 | 1014.6 |
| 20260901210419 | 24 | 242 | 4.8 | 17.7 | 0.00 | 0.00 | 0.00 | 48 | 1014.6 |
| 20260901210341 | 24 | 239 | 4.8 | 17.7 | 0.00 | 0.00 | 0.00 | 48 | 1014.6 |
| 20260901210240 | 24 | 246 | 4.8 | 17.7 | 0.00 | 0.00 | 0.00 | 49 | 1014.5 |
| 20260901210142 | 23 | 221 | 6.4 | 17.7 | 0.00 | 0.00 | 0.00 | 48 | 1014.5 |
| 20260901210138 | 23 | 215 | 4.8 | 17.7 | 0.00 | 0.00 | 0.00 | 49 | 1014.5 |
| 20260901210038 | 23 | 233 | 4.8 | 17.7 | 0.00 | 0.00 | 0.00 | 48 | 1014.5 |
| 20260901210024 | 23 | 232 | 6.4 | 17.7 | 0.00 | 0.00 | 0.00 | 48 | 1014.6 |
| 20260901205836 | 23 | 281 | 6.4 | 17.7 | 0.00 | 0.00 | 0.00 | 48 | 1014.5 |
| 20260901205734 | 23 | 120 | 6.4 | 17.7 | 0.00 | 0.00 | 0.00 | 48 | 1014.6 |
| 20260901205628 | 23 | 129 | 6.4 | 17.7 | 0.00 | 0.00 | 0.00 | 48 | 1014.6 |
| 20260901205532 | 23 | 171 | 6.4 | 17.7 | 0.00 | 0.00 | 0.00 | 49 | 1014.6 |
| 20260901205428 | 23 | 208 | 6.4 | 17.7 | 0.00 | 0.00 | 0.00 | 48 | 1014.7 |
| 20260901205407 | 23 | 201 | 4.8 | 17.7 | 0.00 | 0.00 | 0.00 | 49 | 1014.7 |
| 20260901205328 | 23 | 243 | 4.8 | 17.7 | 0.00 | 0.00 | 0.00 | 49 | 1014.7 |
| 20260901205229 | 23 | 99 | 4.8 | 17.7 | 0.00 | 0.00 | 0.00 | 48 | 1014.8 |
| 20260901205123 | 23 | 238 | 6.4 | 17.7 | 0.00 | 0.00 | 0.00 | 48 | 1014.7 |
| 20260901205023 | 23 | 235 | 6.4 | 17.7 | 0.00 | 0.00 | 0.00 | 49 | 1014.8 |
| 20260901204923 | 23 | 231 | 4.8 | 17.7 | 0.00 | 0.00 | 0.00 | 51 | 1014.8 |
| 20260901204901 | 23 | 240 | 4.8 | 17.7 | 0.00 | 0.00 | 0.00 | 51 | 1014.8 |
| 20260901204823 | 23 | 153 | 4.8 | 17.7 | 0.00 | 0.00 | 0.00 | 51 | 1014.8 |
| 20260901204723 | 22 | 187 | 6.4 | 17.7 | 0.00 | 0.00 | 0.00 | 51 | 1014.8 |
| 20260901204619 | 22 | 129 | 6.4 | 17.7 | 0.00 | 0.00 | 0.00 | 51 | 1014.8 |
| 20260901204516 | 22 | 252 | 6.4 | 17.7 | 0.00 | 0.00 | 0.00 | 50 | 1014.8 |
| 20260901204416 | 23 | 211 | 6.4 | 17.7 | 0.00 | 0.00 | 0.00 | 50 | 1014.9 |
| 20260901204357 | 23 | 246 | 6.4 | 17.7 | 0.00 | 0.00 | 0.00 | 50 | 1014.9 |
| 20260901204316 | 23 | 301 | 6.4 | 17.7 | 0.00 | 0.00 | 0.00 | 50 | 1014.9 |
| 20260901204216 | 23 | 212 | 4.8 | 17.7 | 0.00 | 0.00 | 0.00 | 50 | 1014.9 |
| 20260901204116 | 22 | 200 | 4.8 | 20.9 | 0.00 | 0.00 | 0.00 | 52 | 1014.9 |
| 20260901204111 | 23 | 177 | 4.8 | 16.1 | 0.00 | 0.00 | 0.00 | 51 | 1014.9 |
| 20260901204010 | 23 | 153 | 4.8 | 16.1 | 0.00 | 0.00 | 0.00 | 52 | 1014.9 |
| 20260901204000 | 22 | 238 | 4.8 | 20.9 | 0.00 | 0.00 | 0.00 | 52 | 1014.9 |
| 20260901203811 | 22 | 191 | 4.8 | 20.9 | 0.00 | 0.00 | 0.00 | 52 | 1014.9 |
| 20260901203710 | 22 | 173 | 3.2 | 20.9 | 0.00 | 0.00 | 0.00 | 51 | 1014.9 |
| 20260901203609 | 22 | 245 | 3.2 | 20.9 | 0.00 | 0.00 | 0.00 | 52 | 1014.9 |
| 20260901203509 | 22 | 276 | 3.2 | 20.9 | 0.00 | 0.00 | 0.00 | 52 | 1014.9 |
| 20260901203409 | 22 | 226 | 3.2 | 20.9 | 0.00 | 0.00 | 0.00 | 52 | 1014.9 |
| 20260901203347 | 22 | 222 | 3.2 | 20.9 | 0.00 | 0.00 | 0.00 | 52 | 1014.9 |
| 20260901203307 | 22 | 243 | 3.2 | 20.9 | 0.00 | 0.00 | 0.00 | 52 | 1014.9 |
| 20260901203205 | 22 | 153 | 3.2 | 20.9 | 0.00 | 0.00 | 0.00 | 53 | 1015.0 |
| 20260901203107 | 22 | 221 | 3.2 | 14.5 | 0.00 | 0.00 | 0.00 | 52 | 1015.0 |
| 20260901203102 | 22 | 231 | 3.2 | 20.9 | 0.00 | 0.00 | 0.00 | 52 | 1014.9 |
| 20260901202959 | 22 | 136 | 3.2 | 20.9 | 0.00 | 0.00 | 0.00 | 52 | 1015.0 |
| 20260901202948 | 22 | 208 | 3.2 | 19.3 | 0.00 | 0.00 | 0.00 | 52 | 1015.0 |
| 20260901202758 | 22 | 217 | 3.2 | 17.7 | 0.00 | 0.00 | 0.00 | 53 | 1014.9 |
| 20260901202658 | 22 | 241 | 4.8 | 19.3 | 0.00 | 0.00 | 0.00 | 52 | 1014.9 |
| 20260901202555 | 22 | 246 | 4.8 | 19.3 | 0.00 | 0.00 | 0.00 | 52 | 1014.9 |
| 20260901202452 | 22 | 243 | 4.8 | 19.3 | 0.00 | 0.00 | 0.00 | 52 | 1014.9 |
| 20260901202352 | 22 | 260 | 4.8 | 19.3 | 0.00 | 0.00 | 0.00 | 53 | 1014.9 |
| 20260901202332 | 22 | 257 | 4.8 | 19.3 | 0.00 | 0.00 | 0.00 | 53 | 1014.9 |
| 20260901202253 | 22 | 228 | 6.4 | 19.3 | 0.00 | 0.00 | 0.00 | 53 | 1014.9 |
| 20260901202152 | 22 | 267 | 6.4 | 19.3 | 0.00 | 0.00 | 0.00 | 53 | 1015.0 |
| 20260901202047 | 22 | 245 | 6.4 | 19.3 | 0.00 | 0.00 | 0.00 | 52 | 1014.9 |
| 20260901201947 | 22 | 239 | 6.4 | 19.3 | 0.00 | 0.00 | 0.00 | 52 | 1015.0 |
| 20260901201847 | 22 | 271 | 6.4 | 19.3 | 0.00 | 0.00 | 0.00 | 51 | 1015.0 |
| 20260901201825 | 22 | 239 | 6.4 | 19.3 | 0.00 | 0.00 | 0.00 | 51 | 1015.0 |
| 20260901201746 | 22 | 252 | 6.4 | 16.1 | 0.00 | 0.00 | 0.00 | 52 | 1015.1 |
| 20260901201646 | 22 | 252 | 6.4 | 16.1 | 0.00 | 0.00 | 0.00 | 52 | 1015.1 |
| 20260901201546 | 23 | 216 | 6.4 | 16.1 | 0.00 | 0.00 | 0.00 | 51 | 1015.0 |
| 20260901201542 | 22 | 160 | 6.4 | 16.1 | 0.00 | 0.00 | 0.00 | 52 | 1015.0 |
| 20260901201442 | 23 | 205 | 6.4 | 16.1 | 0.00 | 0.00 | 0.00 | 52 | 1015.1 |
| 20260901201433 | 23 | 229 | 6.4 | 16.1 | 0.00 | 0.00 | 0.00 | 51 | 1015.0 |
| 20260901201240 | 23 | 243 | 4.8 | 16.1 | 0.00 | 0.00 | 0.00 | 51 | 1015.1 |
| 20260901201140 | 23 | 193 | 4.8 | 14.5 | 0.00 | 0.00 | 0.00 | 52 | 1015.1 |
| 20260901201037 | 23 | 233 | 4.8 | 14.5 | 0.00 | 0.00 | 0.00 | 52 | 1015.1 |
| 20260901200934 | 23 | 243 | 4.8 | 14.5 | 0.00 | 0.00 | 0.00 | 52 | 1015.1 |
| 20260901200834 | 23 | 291 | 4.8 | 14.5 | 0.00 | 0.00 | 0.00 | 52 | 1015.1 |
| 20260901200814 | 23 | 242 | 3.2 | 14.5 | 0.00 | 0.00 | 0.00 | 52 | 1015.2 |
| 20260901200735 | 23 | 238 | 3.2 | 14.5 | 0.00 | 0.00 | 0.00 | 52 | 1015.2 |
| 20260901200634 | 23 | 228 | 3.2 | 14.5 | 0.00 | 0.00 | 0.00 | 51 | 1015.2 |
| 20260901200534 | 23 | 307 | 3.2 | 14.5 | 0.00 | 0.00 | 0.00 | 51 | 1015.1 |
| 20260901200428 | 23 | 239 | 3.2 | 14.5 | 0.00 | 0.00 | 0.00 | 52 | 1015.2 |
| 20260901200328 | 23 | 236 | 3.2 | 14.5 | 0.00 | 0.00 | 0.00 | 52 | 1015.2 |
| 20260901200307 | 23 | 243 | 3.2 | 14.5 | 0.00 | 0.00 | 0.00 | 52 | 1015.2 |
| 20260901200229 | 23 | 204 | 3.2 | 12.9 | 0.00 | 0.00 | 0.00 | 53 | 1015.2 |
| 20260901200128 | 23 | 210 | 3.2 | 14.5 | 0.00 | 0.00 | 0.00 | 54 | 1015.2 |
| 20260901200032 | 22 | 208 | 3.2 | 14.5 | 0.00 | 0.00 | 0.00 | 54 | 1015.1 |
| 20260901195926 | 22 | 239 | 4.8 | 14.5 | 0.00 | 0.00 | 0.00 | 53 | 1015.1 |
| 20260901195826 | 22 | 239 | 4.8 | 14.5 | 0.00 | 0.00 | 0.00 | 54 | 1015.2 |
| 20260901195801 | 22 | 238 | 4.8 | 14.5 | 0.00 | 0.00 | 0.00 | 54 | 1015.1 |
| 20260901195725 | 22 | 239 | 4.8 | 14.5 | 0.00 | 0.00 | 0.00 | 54 | 1015.1 |
| 20260901195623 | 22 | 239 | 6.4 | 14.5 | 0.00 | 0.00 | 0.00 | 54 | 1015.2 |
| 20260901195516 | 22 | 242 | 6.4 | 14.5 | 0.00 | 0.00 | 0.00 | 54 | 1015.2 |
| 20260901195416 | 22 | 217 | 6.4 | 14.5 | 0.00 | 0.00 | 0.00 | 52 | 1015.2 |
| 20260901195316 | 22 | 229 | 6.4 | 14.5 | 0.00 | 0.00 | 0.00 | 52 | 1015.3 |
| 20260901195255 | 23 | 214 | 4.8 | 14.5 | 0.00 | 0.00 | 0.00 | 52 | 1015.3 |
| 20260901195217 | 23 | 166 | 4.8 | 14.5 | 0.00 | 0.00 | 0.00 | 52 | 1015.3 |
| 20260901195117 | 23 | 224 | 3.2 | 14.5 | 0.00 | 0.00 | 0.00 | 53 | 1015.3 |
| 20260901195017 | 22 | 234 | 3.2 | 14.5 | 0.00 | 0.00 | 0.00 | 54 | 1015.3 |
| 20260901194915 | 22 | 236 | 3.2 | 14.5 | 0.00 | 0.00 | 0.00 | 54 | 1015.3 |
| 20260901194815 | 22 | 233 | 3.2 | 14.5 | 0.00 | 0.00 | 0.00 | 54 | 1015.3 |
| 20260901194749 | 22 | 198 | 4.8 | 14.5 | 0.00 | 0.00 | 0.00 | 54 | 1015.3 |
| 20260901194729 | 22 | 226 | 6.4 | 17.7 | 0.00 | 0.00 | 0.00 | 57 | 1015.3 |
| 20260901194714 | 22 | 222 | 4.8 | 16.1 | 0.00 | 0.00 | 0.00 | 54 | 1015.3 |
| 20260901194621 | 22 | 217 | 4.8 | 16.1 | 0.00 | 0.00 | 0.00 | 54 | 1015.3 |
| 20260901194507 | 22 | 224 | 4.8 | 16.1 | 0.00 | 0.00 | 0.00 | 54 | 1015.2 |
| 20260901194406 | 22 | 201 | 6.4 | 16.1 | 0.00 | 0.00 | 0.00 | 57 | 1015.3 |
| 20260901194354 | 22 | 201 | 6.4 | 16.1 | 0.00 | 0.00 | 0.00 | 57 | 1015.3 |
| 20260901194205 | 22 | 238 | 8.0 | 20.9 | 0.00 | 0.00 | 0.00 | 56 | 1015.3 |
| 20260901194105 | 22 | 238 | 8.0 | 20.9 | 0.00 | 0.00 | 0.00 | 56 | 1015.3 |
| 20260901193958 | 22 | 239 | 8.0 | 20.9 | 0.00 | 0.00 | 0.00 | 55 | 1015.4 |
| 20260901193858 | 22 | 238 | 6.4 | 20.9 | 0.00 | 0.00 | 0.00 | 55 | 1015.4 |
| 20260901193758 | 22 | 219 | 6.4 | 20.9 | 0.00 | 0.00 | 0.00 | 55 | 1015.4 |
| 20260901193738 | 22 | 224 | 6.4 | 20.9 | 0.00 | 0.00 | 0.00 | 55 | 1015.4 |
| 20260901193659 | 22 | 246 | 6.4 | 20.9 | 0.00 | 0.00 | 0.00 | 55 | 1015.4 |
| 20260901193559 | 22 | 225 | 4.8 | 20.9 | 0.00 | 0.00 | 0.00 | 55 | 1015.4 |
| 20260901193456 | 22 | 242 | 4.8 | 20.9 | 0.00 | 0.00 | 0.00 | 55 | 1015.4 |
| 20260901193356 | 22 | 183 | 4.8 | 20.9 | 0.00 | 0.00 | 0.00 | 55 | 1015.4 |
| 20260901193256 | 22 | 233 | 3.2 | 20.9 | 0.00 | 0.00 | 0.00 | 55 | 1015.4 |
| 20260901193231 | 22 | 248 | 3.2 | 20.9 | 0.00 | 0.00 | 0.00 | 55 | 1015.4 |
| 20260901193154 | 22 | 255 | 3.2 | 11.3 | 0.00 | 0.00 | 0.00 | 57 | 1015.4 |
| 20260901193052 | 22 | 232 | 3.2 | 11.3 | 0.00 | 0.00 | 0.00 | 57 | 1015.4 |
| 20260901192951 | 22 | 221 | 3.2 | 9.7 | 0.00 | 0.00 | 0.00 | 58 | 1015.3 |
| 20260901192936 | 22 | 291 | 4.8 | 14.5 | 0.00 | 0.00 | 0.00 | 57 | 1015.5 |
| 20260901192850 | 22 | 252 | 3.2 | 11.3 | 0.00 | 0.00 | 0.00 | 57 | 1015.4 |
| 20260901192830 | 22 | 252 | 3.2 | 11.3 | 0.00 | 0.00 | 0.00 | 57 | 1015.5 |
| 20260901192819 | 22 | 245 | 3.2 | 12.9 | 0.00 | 0.00 | 0.00 | 57 | 1015.5 |
| 20260901192648 | 22 | 278 | 3.2 | 12.9 | 0.00 | 0.00 | 0.00 | 57 | 1015.4 |
| 20260901192555 | 22 | 238 | 3.2 | 12.9 | 0.00 | 0.00 | 0.00 | 57 | 1015.5 |
| 20260901192440 | 22 | 255 | 3.2 | 12.9 | 0.00 | 0.00 | 0.00 | 57 | 1015.5 |
| 20260901192344 | 22 | 226 | 4.8 | 14.5 | 0.00 | 0.00 | 0.00 | 57 | 1015.5 |
| 20260901192330 | 22 | 215 | 4.8 | 14.5 | 0.00 | 0.00 | 0.00 | 57 | 1015.4 |
| 20260901192141 | 22 | 291 | 4.8 | 14.5 | 0.00 | 0.00 | 0.00 | 57 | 1015.5 |
| 20260901192041 | 22 | 239 | 4.8 | 14.5 | 0.00 | 0.00 | 0.00 | 57 | 1015.5 |
| 20260901191941 | 22 | 243 | 4.8 | 14.5 | 0.00 | 0.00 | 0.00 | 57 | 1015.4 |
| 20260901191936 | 22 | 276 | 4.8 | 14.5 | 0.00 | 0.00 | 0.00 | 56 | 1015.5 |
| 20260901191837 | 22 | 203 | 4.8 | 14.5 | 0.00 | 0.00 | 0.00 | 57 | 1015.5 |
| 20260901191824 | 22 | 217 | 4.8 | 14.5 | 0.00 | 0.00 | 0.00 | 57 | 1015.5 |
| 20260901191637 | 22 | 243 | 4.8 | 14.5 | 0.00 | 0.00 | 0.00 | 57 | 1015.4 |
| 20260901191535 | 22 | 200 | 4.8 | 14.5 | 0.00 | 0.00 | 0.00 | 57 | 1015.5 |
| 20260901191428 | 22 | 233 | 3.2 | 14.5 | 0.00 | 0.00 | 0.00 | 57 | 1015.5 |
| 20260901191328 | 22 | 235 | 3.2 | 12.9 | 0.00 | 0.00 | 0.00 | 56 | 1015.5 |
| 20260901191228 | 22 | 222 | 3.2 | 12.9 | 0.00 | 0.00 | 0.00 | 57 | 1015.5 |
| 20260901191208 | 22 | 238 | 4.8 | 12.9 | 0.00 | 0.00 | 0.00 | 57 | 1015.5 |
| 20260901191128 | 22 | 275 | 4.8 | 17.7 | 0.00 | 0.00 | 0.00 | 57 | 1015.5 |
| 20260901191029 | 22 | 219 | 4.8 | 19.3 | 0.00 | 0.00 | 0.00 | 58 | 1015.5 |
| 20260901190930 | 21 | 225 | 4.8 | 19.3 | 0.00 | 0.00 | 0.00 | 58 | 1015.5 |
| 20260901190924 | 22 | 240 | 4.8 | 19.3 | 0.00 | 0.00 | 0.00 | 58 | 1015.5 |
| 20260901190825 | 22 | 290 | 4.8 | 19.3 | 0.00 | 0.00 | 0.00 | 58 | 1015.5 |
| 20260901190811 | 21 | 307 | 4.8 | 19.3 | 0.00 | 0.00 | 0.00 | 58 | 1015.5 |
| 20260901190622 | 21 | 225 | 4.8 | 19.3 | 0.00 | 0.00 | 0.00 | 59 | 1015.5 |
| 20260901190522 | 21 | 257 | 6.4 | 19.3 | 0.00 | 0.00 | 0.00 | 59 | 1015.5 |
| 20260901190427 | 21 | 230 | 6.4 | 19.3 | 0.00 | 0.00 | 0.00 | 59 | 1015.6 |
| 20260901190317 | 21 | 248 | 6.4 | 19.3 | 0.00 | 0.00 | 0.00 | 58 | 1015.6 |
| 20260901190217 | 21 | 218 | 6.4 | 19.3 | 0.00 | 0.00 | 0.00 | 59 | 1015.6 |
| 20260901190156 | 21 | 215 | 4.8 | 19.3 | 0.00 | 0.00 | 0.00 | 59 | 1015.6 |
| 20260901190117 | 21 | 231 | 4.8 | 19.3 | 0.00 | 0.00 | 0.00 | 59 | 1015.6 |
| 20260901190016 | 21 | 282 | 4.8 | 19.3 | 0.00 | 0.00 | 0.00 | 59 | 1015.6 |
| 20260901185914 | 21 | 230 | 4.8 | 19.3 | 0.00 | 0.00 | 0.00 | 61 | 1015.6 |
| 20260901185814 | 21 | 210 | 4.8 | 19.3 | 0.00 | 0.00 | 0.00 | 61 | 1015.6 |
| 20260901185713 | 21 | 217 | 4.8 | 19.3 | 0.00 | 0.00 | 0.00 | 61 | 1015.6 |
| 20260901185650 | 21 | 239 | 4.8 | 19.3 | 0.00 | 0.00 | 0.00 | 61 | 1015.6 |
| 20260901185613 | 21 | 211 | 4.8 | 19.3 | 0.00 | 0.00 | 0.00 | 60 | 1015.6 |
| 20260901185511 | 21 | 172 | 4.8 | 16.1 | 0.00 | 0.00 | 0.00 | 61 | 1015.7 |
| 20260901185404 | 21 | 231 | 4.8 | 16.1 | 0.00 | 0.00 | 0.00 | 61 | 1015.7 |
| 20260901185306 | 21 | 238 | 4.8 | 14.5 | 0.00 | 0.00 | 0.00 | 61 | 1015.6 |
| 20260901185205 | 21 | 273 | 4.8 | 14.5 | 0.00 | 0.00 | 0.00 | 62 | 1015.7 |
| 20260901185143 | 21 | 233 | 4.8 | 14.5 | 0.00 | 0.00 | 0.00 | 62 | 1015.7 |
| 20260901185104 | 21 | 242 | 4.8 | 14.5 | 0.00 | 0.00 | 0.00 | 61 | 1015.7 |
| 20260901185006 | 21 | 239 | 4.8 | 14.5 | 0.00 | 0.00 | 0.00 | 61 | 1015.7 |
| 20260901184901 | 21 | 264 | 4.8 | 17.7 | 0.00 | 0.00 | 0.00 | 62 | 1015.7 |
| 20260901184800 | 20 | 222 | 4.8 | 17.7 | 0.00 | 0.00 | 0.00 | 62 | 1015.7 |
| 20260901184701 | 20 | 218 | 4.8 | 17.7 | 0.00 | 0.00 | 0.00 | 61 | 1015.7 |
| 20260901184638 | 20 | 219 | 4.8 | 17.7 | 0.00 | 0.00 | 0.00 | 61 | 1015.7 |
| 20260901184600 | 20 | 256 | 4.8 | 17.7 | 0.00 | 0.00 | 0.00 | 61 | 1015.7 |
| 20260901184459 | 20 | 248 | 4.8 | 17.7 | 0.00 | 0.00 | 0.00 | 61 | 1015.8 |
| 20260901184357 | 20 | 212 | 4.8 | 17.7 | 0.00 | 0.00 | 0.00 | 61 | 1015.8 |
| 20260901184256 | 20 | 229 | 4.8 | 17.7 | 0.00 | 0.00 | 0.00 | 61 | 1015.8 |
| 20260901184156 | 20 | 219 | 4.8 | 17.7 | 0.00 | 0.00 | 0.00 | 61 | 1015.8 |
| 20260901184131 | 20 | 236 | 4.8 | 17.7 | 0.00 | 0.00 | 0.00 | 61 | 1015.8 |
| 20260901184056 | 20 | 236 | 4.8 | 17.7 | 0.00 | 0.00 | 0.00 | 61 | 1015.8 |
| 20260901183952 | 20 | 242 | 4.8 | 17.7 | 0.00 | 0.00 | 0.00 | 61 | 1015.8 |
| 20260901183847 | 21 | 236 | 4.8 | 16.1 | 0.00 | 0.00 | 0.00 | 61 | 1015.8 |
| 20260901183747 | 21 | 229 | 4.8 | 16.1 | 0.00 | 0.00 | 0.00 | 61 | 1015.8 |
| 20260901183625 | 20 | 236 | 6.4 | 16.1 | 0.00 | 0.00 | 0.00 | 61 | 1015.8 |
| 20260901183546 | 21 | 236 | 6.4 | 16.1 | 0.00 | 0.00 | 0.00 | 60 | 1015.8 |
| 20260901183446 | 21 | 259 | 6.4 | 19.3 | 0.00 | 0.00 | 0.00 | 61 | 1015.8 |
| 20260901183342 | 21 | 245 | 6.4 | 19.3 | 0.00 | 0.00 | 0.00 | 60 | 1015.8 |
| 20260901183242 | 21 | 243 | 6.4 | 19.3 | 0.00 | 0.00 | 0.00 | 61 | 1015.7 |
| 20260901183143 | 21 | 235 | 4.8 | 19.3 | 0.00 | 0.00 | 0.00 | 61 | 1015.7 |
| 20260901183120 | 21 | 239 | 4.8 | 19.3 | 0.00 | 0.00 | 0.00 | 61 | 1015.7 |
| 20260901183042 | 21 | 245 | 6.4 | 19.3 | 0.00 | 0.00 | 0.00 | 60 | 1015.7 |
| 20260901182940 | 21 | 235 | 6.4 | 19.3 | 0.00 | 0.00 | 0.00 | 60 | 1015.7 |
| 20260901182835 | 21 | 222 | 6.4 | 19.3 | 0.00 | 0.00 | 0.00 | 60 | 1015.7 |
| 20260901182735 | 21 | 242 | 6.4 | 19.3 | 0.00 | 0.00 | 0.00 | 60 | 1015.8 |
| 20260901182635 | 21 | 267 | 4.8 | 19.3 | 0.00 | 0.00 | 0.00 | 60 | 1015.8 |
| 20260901182614 | 21 | 203 | 4.8 | 19.3 | 0.00 | 0.00 | 0.00 | 59 | 1015.8 |
| 20260901182536 | 21 | 236 | 4.8 | 19.3 | 0.00 | 0.00 | 0.00 | 59 | 1015.8 |
| 20260901182435 | 21 | 225 | 3.2 | 16.1 | 0.00 | 0.00 | 0.00 | 61 | 1015.8 |
| 20260901182331 | 21 | 256 | 3.2 | 16.1 | 0.00 | 0.00 | 0.00 | 61 | 1015.7 |
| 20260901182229 | 21 | 223 | 3.2 | 16.1 | 0.00 | 0.00 | 0.00 | 61 | 1015.7 |
| 20260901182129 | 21 | 253 | 3.2 | 16.1 | 0.00 | 0.00 | 0.00 | 61 | 1015.7 |
| 20260901182106 | 21 | 225 | 3.2 | 16.1 | 0.00 | 0.00 | 0.00 | 61 | 1015.7 |
| 20260901182030 | 21 | 226 | 3.2 | 12.9 | 0.00 | 0.00 | 0.00 | 61 | 1015.7 |
| 20260901181927 | 21 | 243 | 3.2 | 12.9 | 0.00 | 0.00 | 0.00 | 62 | 1015.7 |
| 20260901181824 | 21 | 235 | 1.6 | 12.9 | 0.00 | 0.00 | 0.00 | 62 | 1015.8 |
| 20260901181722 | 21 | 231 | 1.6 | 12.9 | 0.00 | 0.00 | 0.00 | 64 | 1015.8 |
| 20260901181622 | 20 | 250 | 3.2 | 12.9 | 0.00 | 0.00 | 0.00 | 64 | 1015.8 |
| 20260901181602 | 20 | 250 | 3.2 | 12.9 | 0.00 | 0.00 | 0.00 | 65 | 1015.8 |
| 20260901181523 | 20 | 250 | 3.2 | 12.9 | 0.00 | 0.00 | 0.00 | 65 | 1015.8 |
| 20260901181423 | 20 | 250 | 3.2 | 12.9 | 0.00 | 0.00 | 0.00 | 63 | 1015.8 |
| 20260901181321 | 20 | 248 | 6.4 | 17.7 | 0.00 | 0.00 | 0.00 | 64 | 1015.8 |
| 20260901181317 | 20 | 235 | 4.8 | 14.5 | 0.00 | 0.00 | 0.00 | 64 | 1015.8 |
| 20260901181217 | 20 | 208 | 4.8 | 17.7 | 0.00 | 0.00 | 0.00 | 64 | 1015.8 |
| 20260901181207 | 20 | 266 | 4.8 | 17.7 | 0.00 | 0.00 | 0.00 | 65 | 1015.8 |
| 20260901181017 | 20 | 231 | 6.4 | 17.7 | 0.00 | 0.00 | 0.00 | 64 | 1015.8 |
| 20260901180917 | 20 | 229 | 6.4 | 17.7 | 0.00 | 0.00 | 0.00 | 64 | 1015.7 |
| 20260901180812 | 20 | 230 | 6.4 | 17.7 | 0.00 | 0.00 | 0.00 | 64 | 1015.8 |
| 20260901180713 | 20 | 232 | 6.4 | 17.7 | 0.00 | 0.00 | 0.00 | 63 | 1015.8 |
| 20260901180613 | 20 | 245 | 6.4 | 17.7 | 0.00 | 0.00 | 0.00 | 63 | 1015.7 |
| 20260901180550 | 20 | 233 | 6.4 | 17.7 | 0.00 | 0.00 | 0.00 | 63 | 1015.7 |
| 20260901180513 | 20 | 230 | 6.4 | 17.7 | 0.00 | 0.00 | 0.00 | 63 | 1015.8 |
| 20260901180412 | 20 | 236 | 6.4 | 17.7 | 0.00 | 0.00 | 0.00 | 62 | 1015.7 |
| 20260901180312 | 20 | 245 | 6.4 | 17.7 | 0.00 | 0.00 | 0.00 | 63 | 1015.7 |
| 20260901180212 | 20 | 228 | 4.8 | 17.7 | 0.00 | 0.00 | 0.00 | 63 | 1015.7 |
| 20260901180112 | 20 | 225 | 4.8 | 17.7 | 0.00 | 0.00 | 0.00 | 63 | 1015.7 |
| 20260901180057 | 20 | 233 | 4.8 | 17.7 | 0.00 | 0.00 | 0.00 | 63 | 1015.7 |
| 20260901180012 | 20 | 205 | 4.8 | 17.7 | 0.00 | 0.00 | 0.00 | 63 | 1015.8 |
| 20260901175912 | 20 | 219 | 4.8 | 17.7 | 0.00 | 0.00 | 0.00 | 62 | 1015.7 |
| 20260901175813 | 20 | 287 | 4.8 | 17.7 | 0.00 | 0.00 | 0.00 | 62 | 1015.7 |
| 20260901175711 | 20 | 165 | 4.8 | 16.1 | 0.00 | 0.00 | 0.00 | 63 | 1015.7 |
| 20260901175610 | 20 | 214 | 4.8 | 14.5 | 0.00 | 0.00 | 0.00 | 63 | 1015.7 |
| 20260901175538 | 20 | 141 | 4.8 | 14.5 | 0.00 | 0.00 | 0.00 | 63 | 1015.7 |
| 20260901175510 | 20 | 238 | 4.8 | 14.5 | 0.00 | 0.00 | 0.00 | 63 | 1015.7 |
| 20260901175411 | 20 | 146 | 4.8 | 14.5 | 0.00 | 0.00 | 0.00 | 63 | 1015.7 |
| 20260901175311 | 20 | 212 | 3.2 | 9.7 | 0.00 | 0.00 | 0.00 | 64 | 1015.7 |
| 20260901175209 | 20 | 226 | 3.2 | 9.7 | 0.00 | 0.00 | 0.00 | 65 | 1015.7 |
| 20260901175108 | 20 | 193 | 4.8 | 9.7 | 0.00 | 0.00 | 0.00 | 65 | 1015.7 |
| 20260901175034 | 20 | 250 | 4.8 | 9.7 | 0.00 | 0.00 | 0.00 | 65 | 1015.7 |
| 20260901175009 | 20 | 250 | 4.8 | 9.7 | 0.00 | 0.00 | 0.00 | 64 | 1015.7 |
| 20260901174909 | 20 | 224 | 4.8 | 9.7 | 0.00 | 0.00 | 0.00 | 64 | 1015.7 |
| 20260901174808 | 20 | 219 | 4.8 | 17.7 | 0.00 | 0.00 | 0.00 | 64 | 1015.6 |
| 20260901174708 | 20 | 218 | 4.8 | 17.7 | 0.00 | 0.00 | 0.00 | 65 | 1015.6 |
| 20260901174604 | 20 | 217 | 6.4 | 17.7 | 0.00 | 0.00 | 0.00 | 64 | 1015.6 |
| 20260901174533 | 20 | 228 | 6.4 | 19.3 | 0.00 | 0.00 | 0.00 | 64 | 1015.6 |
| 20260901174504 | 20 | 150 | 6.4 | 19.3 | 0.00 | 0.00 | 0.00 | 64 | 1015.6 |
| 20260901174404 | 20 | 243 | 6.4 | 19.3 | 0.00 | 0.00 | 0.00 | 64 | 1015.6 |
| 20260901174305 | 20 | 233 | 6.4 | 19.3 | 0.00 | 0.00 | 0.00 | 65 | 1015.6 |
| 20260901174203 | 19 | 233 | 6.4 | 19.3 | 0.00 | 0.00 | 0.00 | 65 | 1015.6 |
| 20260901174057 | 19 | 219 | 6.4 | 19.3 | 0.00 | 0.00 | 0.00 | 65 | 1015.7 |
| 20260901174031 | 19 | 160 | 6.4 | 19.3 | 0.00 | 0.00 | 0.00 | 65 | 1015.7 |
| 20260901173957 | 20 | 231 | 8.0 | 19.3 | 0.00 | 0.00 | 0.00 | 64 | 1015.6 |
| 20260901173858 | 20 | 235 | 6.4 | 19.3 | 0.00 | 0.00 | 0.00 | 64 | 1015.6 |
| 20260901173756 | 20 | 228 | 6.4 | 19.3 | 0.00 | 0.00 | 0.00 | 65 | 1015.6 |
| 20260901173657 | 20 | 214 | 6.4 | 19.3 | 0.00 | 0.00 | 0.00 | 65 | 1015.6 |
| 20260901173552 | 19 | 224 | 4.8 | 19.3 | 0.00 | 0.00 | 0.00 | 64 | 1015.6 |
| 20260901173533 | 19 | 228 | 4.8 | 19.3 | 0.00 | 0.00 | 0.00 | 64 | 1015.6 |
| 20260901173450 | 19 | 229 | 4.8 | 17.7 | 0.00 | 0.00 | 0.00 | 64 | 1015.6 |
| 20260901173351 | 19 | 235 | 4.8 | 17.7 | 0.00 | 0.00 | 0.00 | 64 | 1015.6 |
| 20260901173251 | 19 | 214 | 6.4 | 17.7 | 0.00 | 0.00 | 0.00 | 65 | 1015.6 |
| 20260901173150 | 19 | 246 | 6.4 | 17.7 | 0.00 | 0.00 | 0.00 | 65 | 1015.6 |
| 20260901173049 | 19 | 233 | 6.4 | 17.7 | 0.00 | 0.00 | 0.00 | 65 | 1015.6 |
| 20260901173032 | 19 | 241 | 6.4 | 17.7 | 0.00 | 0.00 | 0.00 | 65 | 1015.6 |
| 20260901172948 | 19 | 242 | 4.8 | 17.7 | 0.00 | 0.00 | 0.00 | 66 | 1015.6 |
| 20260901172846 | 19 | 155 | 4.8 | 17.7 | 0.00 | 0.00 | 0.00 | 66 | 1015.6 |
| 20260901172747 | 19 | 222 | 4.8 | 17.7 | 0.00 | 0.00 | 0.00 | 66 | 1015.5 |
| 20260901172645 | 19 | 228 | 6.4 | 17.7 | 0.00 | 0.00 | 0.00 | 66 | 1015.6 |
| 20260901172543 | 19 | 156 | 6.4 | 17.7 | 0.00 | 0.00 | 0.00 | 66 | 1015.6 |
| 20260901172442 | 19 | 236 | 6.4 | 17.7 | 0.00 | 0.00 | 0.00 | 66 | 1015.6 |
| 20260901172340 | 19 | 264 | 8.0 | 17.7 | 0.00 | 0.00 | 0.00 | 66 | 1015.6 |
| 20260901172253 | 19 | 242 | 8.0 | 16.1 | 0.00 | 0.00 | 0.00 | 67 | 1015.5 |
| 20260901172241 | 19 | 218 | 6.4 | 16.1 | 0.00 | 0.00 | 0.00 | 66 | 1015.6 |
| 20260901172149 | 19 | 264 | 8.0 | 16.1 | 0.00 | 0.00 | 0.00 | 67 | 1015.6 |
| 20260901172139 | 19 | 242 | 8.0 | 16.1 | 0.00 | 0.00 | 0.00 | 67 | 1015.5 |
| 20260901171932 | 19 | 246 | 8.0 | 16.1 | 0.00 | 0.00 | 0.00 | 67 | 1015.5 |
| 20260901171833 | 19 | 235 | 9.7 | 16.1 | 0.00 | 0.00 | 0.00 | 67 | 1015.6 |
| 20260901171732 | 19 | 245 | 9.7 | 19.3 | 0.00 | 0.00 | 0.00 | 66 | 1015.5 |
| 20260901171632 | 19 | 208 | 9.7 | 19.3 | 0.00 | 0.00 | 0.00 | 67 | 1015.5 |
| 20260901171528 | 19 | 235 | 8.0 | 19.3 | 0.00 | 0.00 | 0.00 | 66 | 1015.5 |
| 20260901171426 | 19 | 236 | 8.0 | 19.3 | 0.00 | 0.00 | 0.00 | 66 | 1015.5 |
| 20260901171327 | 19 | 169 | 8.0 | 19.3 | 0.00 | 0.00 | 0.00 | 66 | 1015.6 |
| 20260901171227 | 19 | 193 | 6.4 | 19.3 | 0.00 | 0.00 | 0.00 | 66 | 1015.5 |
| 20260901171126 | 19 | 211 | 6.4 | 19.3 | 0.00 | 0.00 | 0.00 | 66 | 1015.6 |
| 20260901171044 | 20 | 214 | 6.4 | 19.3 | 0.00 | 0.00 | 0.00 | 66 | 1015.5 |
| 20260901171023 | 20 | 222 | 6.4 | 19.3 | 0.00 | 0.00 | 0.00 | 67 | 1015.5 |
| 20260901170920 | 20 | 210 | 6.4 | 19.3 | 0.00 | 0.00 | 0.00 | 66 | 1015.5 |
| 20260901170822 | 20 | 243 | 6.4 | 19.3 | 0.00 | 0.00 | 0.00 | 67 | 1015.5 |
| 20260901170751 | 20 | 253 | 4.8 | 14.5 | 0.00 | 0.00 | 0.00 | 68 | 1015.4 |
| 20260901170721 | 20 | 235 | 4.8 | 14.5 | 0.00 | 0.00 | 0.00 | 67 | 1015.5 |
| 20260901170642 | 20 | 259 | 4.8 | 14.5 | 0.00 | 0.00 | 0.00 | 68 | 1015.4 |
| 20260901170515 | 20 | 228 | 4.8 | 14.5 | 0.00 | 0.00 | 0.00 | 67 | 1015.4 |
| 20260901170415 | 20 | 224 | 4.8 | 14.5 | 0.00 | 0.00 | 0.00 | 68 | 1015.4 |
| 20260901170314 | 19 | 249 | 4.8 | 14.5 | 0.00 | 0.00 | 0.00 | 69 | 1015.4 |
| 20260901170215 | 19 | 203 | 6.4 | 14.5 | 0.00 | 0.00 | 0.00 | 69 | 1015.4 |
| 20260901170114 | 19 | 203 | 6.4 | 14.5 | 0.00 | 0.00 | 0.00 | 69 | 1015.4 |
| 20260901170030 | 19 | 210 | 6.4 | 14.5 | 0.00 | 0.00 | 0.00 | 69 | 1015.4 |
| 20260901170007 | 19 | 150 | 6.4 | 14.5 | 0.00 | 0.00 | 0.00 | 69 | 1015.4 |
| 20260901165906 | 19 | 212 | 6.4 | 14.5 | 0.00 | 0.00 | 0.00 | 69 | 1015.5 |
| 20260901165806 | 19 | 236 | 6.4 | 14.5 | 0.00 | 0.00 | 0.00 | 70 | 1015.5 |
| 20260901165706 | 18 | 242 | 6.4 | 14.5 | 0.00 | 0.00 | 0.00 | 71 | 1015.4 |
| 20260901165607 | 18 | 158 | 6.4 | 14.5 | 0.00 | 0.00 | 0.00 | 71 | 1015.4 |
| 20260901165528 | 18 | 200 | 6.4 | 14.5 | 0.00 | 0.00 | 0.00 | 70 | 1015.4 |
| 20260901165503 | 18 | 221 | 6.4 | 14.5 | 0.00 | 0.00 | 0.00 | 70 | 1015.4 |
| 20260901165400 | 18 | 233 | 8.0 | 16.1 | 0.00 | 0.00 | 0.00 | 69 | 1015.4 |
| 20260901165300 | 18 | 225 | 8.0 | 16.1 | 0.00 | 0.00 | 0.00 | 70 | 1015.4 |
| 20260901165201 | 18 | 167 | 8.0 | 16.1 | 0.00 | 0.00 | 0.00 | 69 | 1015.5 |
| 20260901165100 | 18 | 248 | 8.0 | 16.1 | 0.00 | 0.00 | 0.00 | 69 | 1015.5 |
| 20260901165028 | 18 | 241 | 8.0 | 16.1 | 0.00 | 0.00 | 0.00 | 68 | 1015.5 |
| 20260901164955 | 19 | 217 | 8.0 | 16.1 | 0.00 | 0.00 | 0.00 | 68 | 1015.5 |
| 20260901164854 | 19 | 218 | 8.0 | 16.1 | 0.00 | 0.00 | 0.00 | 68 | 1015.5 |
| 20260901164801 | 19 | 141 | 6.4 | 16.1 | 0.00 | 0.00 | 0.00 | 69 | 1015.5 |
| 20260901164754 | 19 | 231 | 8.0 | 16.1 | 0.00 | 0.00 | 0.00 | 69 | 1015.5 |
| 20260901164655 | 19 | 226 | 6.4 | 16.1 | 0.00 | 0.00 | 0.00 | 69 | 1015.5 |
| 20260901164639 | 19 | 150 | 6.4 | 16.1 | 0.00 | 0.00 | 0.00 | 69 | 1015.5 |
| 20260901164451 | 19 | 157 | 6.4 | 16.1 | 0.00 | 0.00 | 0.00 | 69 | 1015.5 |
| 20260901164349 | 19 | 210 | 6.4 | 14.5 | 0.00 | 0.00 | 0.00 | 69 | 1015.5 |
| 20260901164248 | 19 | 253 | 4.8 | 12.9 | 0.00 | 0.00 | 0.00 | 69 | 1015.4 |
| 20260901164148 | 19 | 259 | 4.8 | 12.9 | 0.00 | 0.00 | 0.00 | 69 | 1015.4 |
| 20260901164048 | 19 | 224 | 4.8 | 11.3 | 0.00 | 0.00 | 0.00 | 68 | 1015.4 |
| 20260901164028 | 19 | 236 | 4.8 | 11.3 | 0.00 | 0.00 | 0.00 | 68 | 1015.4 |
| 20260901163946 | 19 | 231 | 4.8 | 11.3 | 0.00 | 0.00 | 0.00 | 68 | 1015.5 |
| 20260901163847 | 19 | 216 | 4.8 | 11.3 | 0.00 | 0.00 | 0.00 | 70 | 1015.5 |
| 20260901163744 | 19 | 158 | 4.8 | 11.3 | 0.00 | 0.00 | 0.00 | 70 | 1015.5 |
| 20260901163644 | 18 | 238 | 4.8 | 11.3 | 0.00 | 0.00 | 0.00 | 70 | 1015.5 |
| 20260901163542 | 18 | 229 | 4.8 | 11.3 | 0.00 | 0.00 | 0.00 | 69 | 1015.5 |
| 20260901163528 | 18 | 167 | 4.8 | 11.3 | 0.00 | 0.00 | 0.00 | 69 | 1015.5 |
| 20260901163438 | 18 | 210 | 4.8 | 11.3 | 0.00 | 0.00 | 0.00 | 69 | 1015.5 |
| 20260901163339 | 18 | 146 | 4.8 | 11.3 | 0.00 | 0.00 | 0.00 | 70 | 1015.4 |
| 20260901163238 | 18 | 167 | 4.8 | 11.3 | 0.00 | 0.00 | 0.00 | 70 | 1015.4 |
| 20260901163139 | 18 | 236 | 4.8 | 11.3 | 0.00 | 0.00 | 0.00 | 70 | 1015.5 |
| 20260901163037 | 18 | 195 | 4.8 | 9.7 | 0.00 | 0.00 | 0.00 | 71 | 1015.4 |
| 20260901163026 | 18 | 167 | 4.8 | 9.7 | 0.00 | 0.00 | 0.00 | 71 | 1015.4 |
| 20260901162930 | 18 | 142 | 4.8 | 9.7 | 0.00 | 0.00 | 0.00 | 71 | 1015.4 |
| 20260901162831 | 18 | 248 | 4.8 | 12.9 | 0.00 | 0.00 | 0.00 | 72 | 1015.4 |
| 20260901162751 | 18 | 198 | 4.8 | 12.9 | 0.00 | 0.00 | 0.00 | 70 | 1015.3 |
| 20260901162728 | 18 | 224 | 4.8 | 12.9 | 0.00 | 0.00 | 0.00 | 71 | 1015.4 |
| 20260901162645 | 18 | 221 | 4.8 | 12.9 | 0.00 | 0.00 | 0.00 | 71 | 1015.4 |
| 20260901162635 | 18 | 198 | 4.8 | 12.9 | 0.00 | 0.00 | 0.00 | 70 | 1015.3 |
| 20260901162423 | 18 | 239 | 6.4 | 12.9 | 0.00 | 0.00 | 0.00 | 70 | 1015.3 |
| 20260901162322 | 18 | 221 | 6.4 | 14.5 | 0.00 | 0.00 | 0.00 | 70 | 1015.3 |
| 20260901162222 | 18 | 221 | 6.4 | 14.5 | 0.00 | 0.00 | 0.00 | 70 | 1015.3 |
| 20260901162123 | 18 | 166 | 6.4 | 14.5 | 0.00 | 0.00 | 0.00 | 70 | 1015.4 |
| 20260901162025 | 18 | 172 | 6.4 | 16.1 | 0.00 | 0.00 | 0.00 | 70 | 1015.3 |
| 20260901161917 | 18 | 163 | 6.4 | 16.1 | 0.00 | 0.00 | 0.00 | 70 | 1015.3 |
| 20260901161817 | 18 | 163 | 4.8 | 16.1 | 0.00 | 0.00 | 0.00 | 71 | 1015.3 |
| 20260901161740 | 18 | 231 | 6.4 | 16.1 | 0.00 | 0.00 | 0.00 | 71 | 1015.4 |
| 20260901161716 | 18 | 150 | 4.8 | 16.1 | 0.00 | 0.00 | 0.00 | 71 | 1015.3 |
| 20260901161616 | 18 | 190 | 4.8 | 16.1 | 0.00 | 0.00 | 0.00 | 70 | 1015.3 |
| 20260901161523 | 18 | 231 | 6.4 | 16.1 | 0.00 | 0.00 | 0.00 | 71 | 1015.4 |
| 20260901161410 | 18 | 208 | 6.4 | 16.1 | 0.00 | 0.00 | 0.00 | 70 | 1015.4 |
| 20260901161311 | 18 | 225 | 6.4 | 16.1 | 0.00 | 0.00 | 0.00 | 70 | 1015.3 |
| 20260901161211 | 18 | 233 | 4.8 | 16.1 | 0.00 | 0.00 | 0.00 | 70 | 1015.4 |
| 20260901161111 | 18 | 136 | 4.8 | 14.5 | 0.00 | 0.00 | 0.00 | 71 | 1015.2 |
| 20260901161012 | 18 | 193 | 4.8 | 12.9 | 0.00 | 0.00 | 0.00 | 70 | 1015.3 |
| 20260901160904 | 18 | 232 | 4.8 | 12.9 | 0.00 | 0.00 | 0.00 | 70 | 1015.4 |
| 20260901160804 | 18 | 138 | 4.8 | 12.9 | 0.00 | 0.00 | 0.00 | 70 | 1015.4 |
| 20260901160729 | 18 | 162 | 4.8 | 12.9 | 0.00 | 0.00 | 0.00 | 70 | 1015.4 |
| 20260901160704 | 18 | 210 | 4.8 | 12.9 | 0.00 | 0.00 | 0.00 | 70 | 1015.3 |
| 20260901160621 | 18 | 236 | 4.8 | 12.9 | 0.00 | 0.00 | 0.00 | 70 | 1015.3 |
| 20260901160610 | 18 | 162 | 4.8 | 12.9 | 0.00 | 0.00 | 0.00 | 70 | 1015.4 |
| 20260901160401 | 18 | 177 | 4.8 | 11.3 | 0.00 | 0.00 | 0.00 | 70 | 1015.3 |
| 20260901160258 | 18 | 104 | 4.8 | 11.3 | 0.00 | 0.00 | 0.00 | 70 | 1015.3 |
| 20260901160158 | 18 | 213 | 4.8 | 11.3 | 0.00 | 0.00 | 0.00 | 71 | 1015.3 |
| 20260901160058 | 18 | 139 | 4.8 | 11.3 | 0.00 | 0.00 | 0.00 | 71 | 1015.3 |
| 20260901160003 | 18 | 127 | 4.8 | 11.3 | 0.00 | 0.00 | 0.00 | 71 | 1015.3 |
| 20260901155958 | 18 | 177 | 4.8 | 11.3 | 0.00 | 0.00 | 0.00 | 71 | 1015.3 |
| 20260901155856 | 17 | 115 | 4.8 | 16.1 | 0.00 | 0.00 | 0.00 | 71 | 1015.3 |
| 20260901155756 | 17 | 130 | 4.8 | 16.1 | 0.00 | 0.00 | 0.00 | 71 | 1015.2 |
| 20260901155655 | 17 | 133 | 4.8 | 16.1 | 0.00 | 0.00 | 0.00 | 71 | 1015.2 |
| 20260901155555 | 17 | 141 | 4.8 | 16.1 | 0.00 | 0.00 | 0.00 | 71 | 1015.2 |
| 20260901155459 | 17 | 205 | 4.8 | 16.1 | 0.00 | 0.00 | 0.00 | 71 | 1015.2 |
| 20260901155451 | 17 | 198 | 4.8 | 16.1 | 0.00 | 0.00 | 0.00 | 71 | 1015.2 |
| 20260901155352 | 17 | 221 | 4.8 | 16.1 | 0.00 | 0.00 | 0.00 | 71 | 1015.2 |
| 20260901155250 | 17 | 208 | 4.8 | 16.1 | 0.00 | 0.00 | 0.00 | 71 | 1015.2 |
| 20260901155150 | 17 | 242 | 4.8 | 16.1 | 0.00 | 0.00 | 0.00 | 72 | 1015.2 |
| 20260901155050 | 17 | 187 | 4.8 | 16.1 | 0.00 | 0.00 | 0.00 | 72 | 1015.2 |
| 20260901154959 | 17 | 178 | 4.8 | 16.1 | 0.00 | 0.00 | 0.00 | 72 | 1015.2 |
| 20260901154946 | 17 | 134 | 4.8 | 16.1 | 0.00 | 0.00 | 0.00 | 72 | 1015.2 |
| 20260901154840 | 17 | 243 | 3.2 | 14.5 | 0.00 | 0.00 | 0.00 | 73 | 1015.2 |
| 20260901154741 | 17 | 134 | 3.2 | 9.7 | 0.00 | 0.00 | 0.00 | 73 | 1015.2 |
| 20260901154640 | 17 | 200 | 3.2 | 11.3 | 0.00 | 0.00 | 0.00 | 73 | 1015.1 |
| 20260901154541 | 17 | 224 | 4.8 | 11.3 | 0.00 | 0.00 | 0.00 | 74 | 1015.2 |
| 20260901154500 | 17 | 161 | 4.8 | 11.3 | 0.00 | 0.00 | 0.00 | 74 | 1015.1 |
| 20260901154440 | 17 | 207 | 4.8 | 11.3 | 0.00 | 0.00 | 0.00 | 74 | 1015.1 |
| 20260901154337 | 17 | 166 | 4.8 | 11.3 | 0.00 | 0.00 | 0.00 | 74 | 1015.1 |
| 20260901154237 | 17 | 139 | 4.8 | 11.3 | 0.00 | 0.00 | 0.00 | 74 | 1015.1 |
| 20260901154137 | 17 | 161 | 4.8 | 11.3 | 0.00 | 0.00 | 0.00 | 75 | 1015.1 |
| 20260901154037 | 16 | 134 | 4.8 | 11.3 | 0.00 | 0.00 | 0.00 | 75 | 1015.1 |
| 20260901153957 | 16 | 124 | 4.8 | 11.3 | 0.00 | 0.00 | 0.00 | 75 | 1015.1 |
| 20260901153934 | 16 | 143 | 4.8 | 11.3 | 0.00 | 0.00 | 0.00 | 75 | 1015.1 |
| 20260901153830 | 16 | 163 | 4.8 | 11.3 | 0.00 | 0.00 | 0.00 | 75 | 1015.1 |
| 20260901153728 | 16 | 141 | 6.4 | 11.3 | 0.00 | 0.00 | 0.00 | 75 | 1015.0 |
| 20260901153628 | 16 | 152 | 6.4 | 16.1 | 0.00 | 0.00 | 0.00 | 76 | 1015.0 |
| 20260901153529 | 16 | 161 | 6.4 | 16.1 | 0.00 | 0.00 | 0.00 | 76 | 1015.0 |
| 20260901153458 | 16 | 143 | 6.4 | 16.1 | 0.00 | 0.00 | 0.00 | 76 | 1015.0 |
| 20260901153428 | 16 | 136 | 6.4 | 16.1 | 0.00 | 0.00 | 0.00 | 77 | 1015.0 |
| 20260901153324 | 16 | 134 | 6.4 | 16.1 | 0.00 | 0.00 | 0.00 | 76 | 1015.1 |
| 20260901153222 | 16 | 225 | 6.4 | 16.1 | 0.00 | 0.00 | 0.00 | 77 | 1015.0 |
| 20260901153122 | 16 | 132 | 6.4 | 16.1 | 0.00 | 0.00 | 0.00 | 77 | 1015.0 |
| 20260901153024 | 16 | 132 | 6.4 | 16.1 | 0.00 | 0.00 | 0.00 | 78 | 1015.0 |
| 20260901152957 | 16 | 141 | 6.4 | 16.1 | 0.00 | 0.00 | 0.00 | 78 | 1015.0 |
| 20260901152923 | 16 | 141 | 6.4 | 16.1 | 0.00 | 0.00 | 0.00 | 77 | 1015.0 |
| 20260901152817 | 16 | 149 | 4.8 | 16.1 | 0.00 | 0.00 | 0.00 | 77 | 1015.0 |
| 20260901152716 | 16 | 139 | 4.8 | 16.1 | 0.00 | 0.00 | 0.00 | 78 | 1015.0 |
| 20260901152617 | 15 | 138 | 4.8 | 11.3 | 0.00 | 0.00 | 0.00 | 78 | 1014.9 |
| 20260901152517 | 15 | 159 | 3.2 | 9.7 | 0.00 | 0.00 | 0.00 | 79 | 1014.9 |
| 20260901152457 | 15 | 112 | 3.2 | 9.7 | 0.00 | 0.00 | 0.00 | 79 | 1014.9 |
| 20260901152416 | 15 | 117 | 3.2 | 9.7 | 0.00 | 0.00 | 0.00 | 79 | 1014.8 |
| 20260901152311 | 15 | 226 | 3.2 | 9.7 | 0.00 | 0.00 | 0.00 | 79 | 1014.9 |
| 20260901152218 | 15 | 200 | 3.2 | 9.7 | 0.00 | 0.00 | 0.00 | 79 | 1014.8 |
| 20260901152210 | 15 | 122 | 3.2 | 9.7 | 0.00 | 0.00 | 0.00 | 79 | 1014.9 |
| 20260901152119 | 15 | 154 | 3.2 | 9.7 | 0.00 | 0.00 | 0.00 | 79 | 1014.9 |
| 20260901152111 | 15 | 200 | 3.2 | 9.7 | 0.00 | 0.00 | 0.00 | 79 | 1014.8 |
| 20260901151910 | 15 | 155 | 3.2 | 9.7 | 0.00 | 0.00 | 0.00 | 79 | 1014.8 |
| 20260901151807 | 15 | 162 | 3.2 | 9.7 | 0.00 | 0.00 | 0.00 | 79 | 1014.8 |
| 20260901151704 | 15 | 130 | 3.2 | 8.0 | 0.00 | 0.00 | 0.00 | 80 | 1014.7 |
| 20260901151604 | 15 | 138 | 3.2 | 8.0 | 0.00 | 0.00 | 0.00 | 80 | 1014.8 |
| 20260901151509 | 15 | 218 | 3.2 | 8.0 | 0.00 | 0.00 | 0.00 | 80 | 1014.7 |
| 20260901151456 | 15 | 226 | 3.2 | 8.0 | 0.00 | 0.00 | 0.00 | 80 | 1014.7 |
| 20260901151404 | 15 | 162 | 3.2 | 8.0 | 0.00 | 0.00 | 0.00 | 80 | 1014.7 |
| 20260901151258 | 15 | 134 | 3.2 | 9.7 | 0.00 | 0.00 | 0.00 | 80 | 1014.7 |
| 20260901151158 | 15 | 115 | 3.2 | 9.7 | 0.00 | 0.00 | 0.00 | 80 | 1014.7 |
| 20260901151059 | 15 | 175 | 3.2 | 9.7 | 0.00 | 0.00 | 0.00 | 80 | 1014.7 |
| 20260901151004 | 15 | 136 | 3.2 | 9.7 | 0.00 | 0.00 | 0.00 | 80 | 1014.7 |
| 20260901150954 | 15 | 136 | 3.2 | 9.7 | 0.00 | 0.00 | 0.00 | 81 | 1014.7 |
| 20260901150858 | 15 | 117 | 3.2 | 9.7 | 0.00 | 0.00 | 0.00 | 81 | 1014.7 |
| 20260901150754 | 15 | 139 | 3.2 | 9.7 | 0.00 | 0.00 | 0.00 | 81 | 1014.7 |
| 20260901150732 | 15 | 138 | 3.2 | 9.7 | 0.00 | 0.00 | 0.00 | 81 | 1014.6 |
| 20260901150652 | 15 | 165 | 3.2 | 9.7 | 0.00 | 0.00 | 0.00 | 81 | 1014.7 |
| 20260901150622 | 15 | 218 | 3.2 | 9.7 | 0.00 | 0.00 | 0.00 | 81 | 1014.7 |
| 20260901150452 | 15 | 141 | 3.2 | 9.7 | 0.00 | 0.00 | 0.00 | 81 | 1014.6 |
| 20260901150351 | 15 | 153 | 3.2 | 9.7 | 0.00 | 0.00 | 0.00 | 81 | 1014.6 |
| 20260901150248 | 15 | 146 | 3.2 | 8.0 | 0.00 | 0.00 | 0.00 | 81 | 1014.6 |
| 20260901150146 | 15 | 89 | 3.2 | 8.0 | 0.00 | 0.00 | 0.00 | 81 | 1014.6 |
| 20260901150047 | 15 | 150 | 3.2 | 8.0 | 0.00 | 0.00 | 0.00 | 81 | 1014.6 |
| 20260901145953 | 15 | 141 | 3.2 | 8.0 | 0.00 | 0.00 | 0.00 | 81 | 1014.6 |
| 20260901145947 | 15 | 143 | 3.2 | 8.0 | 0.00 | 0.00 | 0.00 | 81 | 1014.6 |
| 20260901145846 | 15 | 133 | 3.2 | 9.7 | 0.00 | 0.00 | 0.00 | 81 | 1014.6 |
| 20260901145741 | 15 | 128 | 3.2 | 9.7 | 0.00 | 0.00 | 0.00 | 81 | 1014.6 |
| 20260901145640 | 14 | 211 | 3.2 | 9.7 | 0.00 | 0.00 | 0.00 | 81 | 1014.6 |
| 20260901145542 | 14 | 114 | 3.2 | 9.7 | 0.00 | 0.00 | 0.00 | 81 | 1014.5 |
| 20260901145452 | 14 | 136 | 4.8 | 9.7 | 0.00 | 0.00 | 0.00 | 82 | 1014.5 |
| 20260901145441 | 14 | 124 | 4.8 | 9.7 | 0.00 | 0.00 | 0.00 | 82 | 1014.5 |
| 20260901145340 | 14 | 115 | 4.8 | 9.7 | 0.00 | 0.00 | 0.00 | 82 | 1014.5 |
| 20260901145239 | 14 | 126 | 4.8 | 9.7 | 0.00 | 0.00 | 0.00 | 82 | 1014.5 |
| 20260901145138 | 14 | 180 | 4.8 | 9.7 | 0.00 | 0.00 | 0.00 | 82 | 1014.4 |
| 20260901145039 | 14 | 141 | 4.8 | 9.7 | 0.00 | 0.00 | 0.00 | 82 | 1014.4 |
| 20260901144952 | 14 | 158 | 3.2 | 9.7 | 0.00 | 0.00 | 0.00 | 82 | 1014.4 |
| 20260901144938 | 14 | 127 | 3.2 | 9.7 | 0.00 | 0.00 | 0.00 | 82 | 1014.4 |
| 20260901144838 | 14 | 131 | 3.2 | 9.7 | 0.00 | 0.00 | 0.00 | 82 | 1014.4 |
| 20260901144738 | 14 | 163 | 3.2 | 9.7 | 0.00 | 0.00 | 0.00 | 82 | 1014.4 |
| 20260901144639 | 14 | 132 | 3.2 | 9.7 | 0.00 | 0.00 | 0.00 | 82 | 1014.4 |
| 20260901144539 | 14 | 146 | 3.2 | 9.7 | 0.00 | 0.00 | 0.00 | 83 | 1014.5 |
| 20260901144451 | 14 | 121 | 3.2 | 9.7 | 0.00 | 0.00 | 0.00 | 83 | 1014.5 |
| 20260901144439 | 14 | 84 | 3.2 | 9.7 | 0.00 | 0.00 | 0.00 | 83 | 1014.5 |
| 20260901144338 | 14 | 176 | 3.2 | 9.7 | 0.00 | 0.00 | 0.00 | 83 | 1014.4 |
| 20260901144239 | 14 | 106 | 3.2 | 9.7 | 0.00 | 0.00 | 0.00 | 83 | 1014.4 |
| 20260901144138 | 14 | 150 | 3.2 | 9.7 | 0.00 | 0.00 | 0.00 | 83 | 1014.4 |
| 20260901144040 | 14 | 108 | 4.8 | 11.3 | 0.00 | 0.00 | 0.00 | 83 | 1014.4 |
| 20260901143951 | 14 | 150 | 4.8 | 11.3 | 0.00 | 0.00 | 0.00 | 83 | 1014.3 |
| 20260901143936 | 14 | 120 | 4.8 | 11.3 | 0.00 | 0.00 | 0.00 | 83 | 1014.3 |
| 20260901143837 | 14 | 183 | 4.8 | 11.3 | 0.00 | 0.00 | 0.00 | 83 | 1014.3 |
| 20260901143736 | 13 | 148 | 4.8 | 11.3 | 0.00 | 0.00 | 0.00 | 83 | 1014.3 |
| 20260901143636 | 13 | 139 | 3.2 | 11.3 | 0.00 | 0.00 | 0.00 | 84 | 1014.3 |
| 20260901143532 | 13 | 136 | 3.2 | 11.3 | 0.00 | 0.00 | 0.00 | 84 | 1014.4 |
| 20260901143452 | 13 | 163 | 3.2 | 11.3 | 0.00 | 0.00 | 0.00 | 84 | 1014.3 |
| 20260901143430 | 13 | 167 | 3.2 | 11.3 | 0.00 | 0.00 | 0.00 | 84 | 1014.3 |
| 20260901143332 | 13 | 140 | 3.2 | 11.3 | 0.00 | 0.00 | 0.00 | 84 | 1014.3 |
| 20260901143230 | 13 | 168 | 3.2 | 11.3 | 0.00 | 0.00 | 0.00 | 84 | 1014.3 |
| 20260901143130 | 13 | 155 | 3.2 | 11.3 | 0.00 | 0.00 | 0.00 | 84 | 1014.3 |
| 20260901143029 | 13 | 153 | 3.2 | 11.3 | 0.00 | 0.00 | 0.00 | 85 | 1014.3 |
| 20260901142950 | 13 | 145 | 3.2 | 11.3 | 0.00 | 0.00 | 0.00 | 85 | 1014.3 |
| 20260901142928 | 13 | 150 | 3.2 | 11.3 | 0.00 | 0.00 | 0.00 | 85 | 1014.3 |
| 20260901142828 | 13 | 153 | 3.2 | 11.3 | 0.00 | 0.00 | 0.00 | 85 | 1014.3 |
| 20260901142726 | 13 | 123 | 3.2 | 11.3 | 0.00 | 0.00 | 0.00 | 85 | 1014.2 |
| 20260901142624 | 13 | 136 | 3.2 | 11.3 | 0.00 | 0.00 | 0.00 | 86 | 1014.3 |
| 20260901142524 | 13 | 98 | 3.2 | 11.3 | 0.00 | 0.00 | 0.00 | 86 | 1014.2 |
| 20260901142503 | 13 | 92 | 3.2 | 11.3 | 0.00 | 0.00 | 0.00 | 86 | 1014.2 |
| 20260901142418 | 13 | 162 | 3.2 | 11.3 | 0.00 | 0.00 | 0.00 | 86 | 1014.2 |
| 20260901142319 | 13 | 132 | 3.2 | 11.3 | 0.00 | 0.00 | 0.00 | 86 | 1014.2 |
| 20260901142219 | 13 | 157 | 3.2 | 11.3 | 0.00 | 0.00 | 0.00 | 86 | 1014.2 |
| 20260901142118 | 13 | 148 | 1.6 | 11.3 | 0.00 | 0.00 | 0.00 | 86 | 1014.2 |
| 20260901142016 | 13 | 162 | 1.6 | 6.4 | 0.00 | 0.00 | 0.00 | 86 | 1014.2 |
| 20260901141949 | 13 | 129 | 1.6 | 6.4 | 0.00 | 0.00 | 0.00 | 86 | 1014.2 |
| 20260901141916 | 13 | 163 | 1.6 | 6.4 | 0.00 | 0.00 | 0.00 | 86 | 1014.1 |
| 20260901141815 | 13 | 93 | 1.6 | 6.4 | 0.00 | 0.00 | 0.00 | 86 | 1014.1 |
| 20260901141715 | 12 | 129 | 1.6 | 6.4 | 0.00 | 0.00 | 0.00 | 86 | 1014.1 |
| 20260901141706 | 12 | 127 | 1.6 | 6.4 | 0.00 | 0.00 | 0.00 | 87 | 1014.1 |
| 20260901141612 | 12 | 150 | 1.6 | 6.4 | 0.00 | 0.00 | 0.00 | 86 | 1014.1 |
| 20260901141600 | 12 | 127 | 1.6 | 6.4 | 0.00 | 0.00 | 0.00 | 87 | 1014.1 |
| 20260901141410 | 12 | 102 | 1.6 | 6.4 | 0.00 | 0.00 | 0.00 | 87 | 1014.1 |
| 20260901141310 | 12 | 113 | 1.6 | 6.4 | 0.00 | 0.00 | 0.00 | 87 | 1014.0 |
| 20260901141208 | 12 | 117 | 1.6 | 6.4 | 0.00 | 0.00 | 0.00 | 87 | 1014.0 |
| 20260901141107 | 12 | 111 | 1.6 | 6.4 | 0.00 | 0.00 | 0.00 | 87 | 1014.0 |
| 20260901141005 | 12 | 111 | 1.6 | 6.4 | 0.00 | 0.00 | 0.00 | 87 | 1013.9 |
| 20260901140949 | 12 | 98 | 1.6 | 6.4 | 0.00 | 0.00 | 0.00 | 87 | 1013.9 |
| 20260901140904 | 12 | 106 | 1.6 | 6.4 | 0.00 | 0.00 | 0.00 | 87 | 1013.9 |
| 20260901140802 | 12 | 129 | 1.6 | 6.4 | 0.00 | 0.00 | 0.00 | 87 | 1013.9 |
| 20260901140707 | 12 | 161 | 1.6 | 6.4 | 0.00 | 0.00 | 0.00 | 87 | 1013.8 |
| 20260901140702 | 12 | 143 | 1.6 | 6.4 | 0.00 | 0.00 | 0.00 | 87 | 1013.8 |
| 20260901140607 | 12 | 160 | 1.6 | 6.4 | 0.00 | 0.00 | 0.00 | 87 | 1013.8 |
| 20260901140558 | 12 | 161 | 1.6 | 6.4 | 0.00 | 0.00 | 0.00 | 87 | 1013.8 |
| 20260901140355 | 12 | 162 | 1.6 | 6.4 | 0.00 | 0.00 | 0.00 | 87 | 1013.8 |
| 20260901140254 | 12 | 94 | 1.6 | 6.4 | 0.00 | 0.00 | 0.00 | 87 | 1013.8 |
| 20260901140155 | 12 | 117 | 1.6 | 6.4 | 0.00 | 0.00 | 0.00 | 87 | 1013.7 |
| 20260901140054 | 12 | 101 | 1.6 | 6.4 | 0.00 | 0.00 | 0.00 | 87 | 1013.7 |
| 20260901135954 | 12 | 153 | 1.6 | 6.4 | 0.00 | 0.00 | 0.00 | 87 | 1013.7 |
| 20260901135949 | 12 | 148 | 1.6 | 6.4 | 0.00 | 0.00 | 0.00 | 87 | 1013.7 |
| 20260901135848 | 12 | 97 | 1.6 | 6.4 | 0.00 | 0.00 | 0.00 | 87 | 1013.6 |
| 20260901135749 | 12 | 113 | 1.6 | 6.4 | 0.00 | 0.00 | 0.00 | 87 | 1013.6 |
| 20260901135648 | 12 | 137 | 3.2 | 6.4 | 0.00 | 0.00 | 0.00 | 87 | 1013.6 |
| 20260901135548 | 12 | 117 | 3.2 | 6.4 | 0.00 | 0.00 | 0.00 | 87 | 1013.6 |
| 20260901135451 | 12 | 115 | 3.2 | 6.4 | 0.00 | 0.00 | 0.00 | 87 | 1013.6 |
| 20260901135446 | 12 | 98 | 3.2 | 6.4 | 0.00 | 0.00 | 0.00 | 87 | 1013.6 |
| 20260901135346 | 12 | 150 | 3.2 | 6.4 | 0.00 | 0.00 | 0.00 | 87 | 1013.6 |
| 20260901135245 | 12 | 104 | 3.2 | 6.4 | 0.00 | 0.00 | 0.00 | 87 | 1013.6 |
| 20260901135220 | 12 | 104 | 1.6 | 6.4 | 0.00 | 0.00 | 0.00 | 87 | 1013.5 |
| 20260901135144 | 12 | 191 | 3.2 | 6.4 | 0.00 | 0.00 | 0.00 | 87 | 1013.5 |
| 20260901135045 | 12 | 106 | 3.2 | 6.4 | 0.00 | 0.00 | 0.00 | 87 | 1013.5 |
| 20260901134944 | 12 | 110 | 1.6 | 6.4 | 0.00 | 0.00 | 0.00 | 87 | 1013.5 |
| 20260901134844 | 12 | 143 | 1.6 | 6.4 | 0.00 | 0.00 | 0.00 | 87 | 1013.5 |
| 20260901134745 | 12 | 121 | 1.6 | 6.4 | 0.00 | 0.00 | 0.00 | 87 | 1013.4 |
| 20260901134644 | 12 | 107 | 1.6 | 6.4 | 0.00 | 0.00 | 0.00 | 87 | 1013.5 |
| 20260901134545 | 12 | 114 | 1.6 | 4.8 | 0.00 | 0.00 | 0.00 | 87 | 1013.5 |
| 20260901134444 | 12 | 141 | 1.6 | 4.8 | 0.00 | 0.00 | 0.00 | 87 | 1013.5 |
| 20260901134342 | 12 | 146 | 1.6 | 6.4 | 0.00 | 0.00 | 0.00 | 87 | 1013.5 |
| 20260901134240 | 12 | 129 | 1.6 | 6.4 | 0.00 | 0.00 | 0.00 | 87 | 1013.5 |
| 20260901134140 | 12 | 143 | 1.6 | 6.4 | 0.00 | 0.00 | 0.00 | 87 | 1013.5 |
| 20260901133938 | 12 | 155 | 1.6 | 6.4 | 0.00 | 0.00 | 0.00 | 88 | 1013.5 |
| 20260901133837 | 12 | 139 | 1.6 | 6.4 | 0.00 | 0.00 | 0.00 | 87 | 1013.4 |
| 20260901133734 | 12 | 177 | 1.6 | 6.4 | 0.00 | 0.00 | 0.00 | 88 | 1013.5 |
| 20260901133634 | 12 | 148 | 1.6 | 6.4 | 0.00 | 0.00 | 0.00 | 88 | 1013.5 |
| 20260901133533 | 12 | 117 | 1.6 | 6.4 | 0.00 | 0.00 | 0.00 | 88 | 1013.4 |
| 20260901133446 | 12 | 123 | 1.6 | 6.4 | 0.00 | 0.00 | 0.00 | 88 | 1013.4 |
| 20260901133433 | 12 | 122 | 1.6 | 6.4 | 0.00 | 0.00 | 0.00 | 88 | 1013.4 |
| 20260901133335 | 12 | 87 | 1.6 | 6.4 | 0.00 | 0.00 | 0.00 | 88 | 1013.4 |
| 20260901133231 | 12 | 123 | 1.6 | 6.4 | 0.00 | 0.00 | 0.00 | 88 | 1013.4 |
| 20260901133128 | 12 | 131 | 1.6 | 6.4 | 0.00 | 0.00 | 0.00 | 88 | 1013.4 |
| 20260901133029 | 12 | 136 | 1.6 | 4.8 | 0.00 | 0.00 | 0.00 | 88 | 1013.4 |
| 20260901132928 | 12 | 136 | 1.6 | 4.8 | 0.00 | 0.00 | 0.00 | 88 | 1013.4 |
| 20260901132828 | 12 | 132 | 1.6 | 4.8 | 0.00 | 0.00 | 0.00 | 88 | 1013.4 |
| 20260901132728 | 12 | 129 | 1.6 | 4.8 | 0.00 | 0.00 | 0.00 | 88 | 1013.4 |
| 20260901132626 | 12 | 160 | 1.6 | 4.8 | 0.00 | 0.00 | 0.00 | 88 | 1013.5 |
| 20260901132528 | 12 | 141 | 1.6 | 4.8 | 0.00 | 0.00 | 0.00 | 88 | 1013.5 |
| 20260901132424 | 12 | 132 | 1.6 | 4.8 | 0.00 | 0.00 | 0.00 | 88 | 1013.5 |
| 20260901132325 | 12 | 116 | 1.6 | 6.4 | 0.00 | 0.00 | 0.00 | 88 | 1013.5 |
| 20260901132223 | 12 | 138 | 1.6 | 6.4 | 0.00 | 0.00 | 0.00 | 88 | 1013.5 |
| 20260901132122 | 12 | 214 | 1.6 | 6.4 | 0.00 | 0.00 | 0.00 | 88 | 1013.5 |
| 20260901132024 | 12 | 125 | 1.6 | 6.4 | 0.00 | 0.00 | 0.00 | 88 | 1013.4 |
| 20260901131923 | 12 | 126 | 1.6 | 6.4 | 0.00 | 0.00 | 0.00 | 88 | 1013.4 |
| 20260901131822 | 12 | 143 | 1.6 | 6.4 | 0.00 | 0.00 | 0.00 | 88 | 1013.4 |
| 20260901131718 | 12 | 139 | 1.6 | 6.4 | 0.00 | 0.00 | 0.00 | 88 | 1013.4 |
| 20260901131617 | 12 | 147 | 1.6 | 6.4 | 0.00 | 0.00 | 0.00 | 88 | 1013.4 |
| 20260901131518 | 12 | 146 | 1.6 | 6.4 | 0.00 | 0.00 | 0.00 | 88 | 1013.4 |
| 20260901131439 | 12 | 109 | 1.6 | 6.4 | 0.00 | 0.00 | 0.00 | 88 | 1013.4 |
| 20260901131415 | 12 | 104 | 1.6 | 6.4 | 0.00 | 0.00 | 0.00 | 88 | 1013.4 |
| 20260901131314 | 12 | 155 | 1.6 | 4.8 | 0.00 | 0.00 | 0.00 | 88 | 1013.3 |
| 20260901131209 | 12 | 146 | 1.6 | 4.8 | 0.00 | 0.00 | 0.00 | 88 | 1013.4 |
| 20260901131110 | 12 | 174 | 1.6 | 4.8 | 0.00 | 0.00 | 0.00 | 88 | 1013.3 |
| 20260901131008 | 12 | 136 | 1.6 | 6.4 | 0.00 | 0.00 | 0.00 | 88 | 1013.3 |
| 20260901130940 | 12 | 136 | 1.6 | 6.4 | 0.00 | 0.00 | 0.00 | 88 | 1013.3 |
| 20260901130906 | 12 | 129 | 1.6 | 6.4 | 0.00 | 0.00 | 0.00 | 88 | 1013.3 |
| 20260901130806 | 12 | 110 | 1.6 | 6.4 | 0.00 | 0.00 | 0.00 | 88 | 1013.3 |
| 20260901130701 | 12 | 107 | 1.6 | 6.4 | 0.00 | 0.00 | 0.00 | 88 | 1013.3 |
| 20260901130600 | 12 | 142 | 1.6 | 6.4 | 0.00 | 0.00 | 0.00 | 88 | 1013.2 |
| 20260901130500 | 12 | 143 | 1.6 | 6.4 | 0.00 | 0.00 | 0.00 | 88 | 1013.2 |
| 20260901130441 | 12 | 133 | 1.6 | 6.4 | 0.00 | 0.00 | 0.00 | 88 | 1013.2 |
| 20260901130400 | 12 | 100 | 1.6 | 6.4 | 0.00 | 0.00 | 0.00 | 88 | 1013.2 |
| 20260901130300 | 12 | 101 | 1.6 | 6.4 | 0.00 | 0.00 | 0.00 | 88 | 1013.2 |
| 20260901130157 | 12 | 101 | 1.6 | 6.4 | 0.00 | 0.00 | 0.00 | 88 | 1013.1 |
| 20260901130057 | 12 | 118 | 1.6 | 6.4 | 0.00 | 0.00 | 0.00 | 88 | 1013.2 |
| 20260901125956 | 12 | 103 | 1.6 | 3.2 | 0.00 | 0.00 | 0.00 | 88 | 1013.1 |
| 20260901125933 | 12 | 108 | 1.6 | 3.2 | 0.00 | 0.00 | 0.00 | 88 | 1013.1 |
| 20260901125857 | 12 | 109 | 1.6 | 3.2 | 0.00 | 0.00 | 0.00 | 88 | 1013.2 |
| 20260901125754 | 12 | 108 | 1.6 | 3.2 | 0.00 | 0.00 | 0.00 | 88 | 1013.2 |
| 20260901125657 | 12 | 145 | 1.6 | 4.8 | 0.00 | 0.00 | 0.00 | 87 | 1013.2 |
| 20260901125652 | 12 | 109 | 1.6 | 4.8 | 0.00 | 0.00 | 0.00 | 88 | 1013.1 |
| 20260901125553 | 12 | 147 | 1.6 | 4.8 | 0.00 | 0.00 | 0.00 | 88 | 1013.2 |
| 20260901125539 | 12 | 145 | 1.6 | 4.8 | 0.00 | 0.00 | 0.00 | 87 | 1013.2 |
| 20260901125350 | 12 | 125 | 1.6 | 4.8 | 0.00 | 0.00 | 0.00 | 87 | 1013.2 |
| 20260901125248 | 12 | 166 | 1.6 | 8.0 | 0.00 | 0.00 | 0.00 | 87 | 1013.1 |
| 20260901125144 | 12 | 167 | 1.6 | 8.0 | 0.00 | 0.00 | 0.00 | 87 | 1013.1 |
| 20260901125044 | 12 | 127 | 1.6 | 8.0 | 0.00 | 0.00 | 0.00 | 87 | 1013.1 |
| 20260901124944 | 12 | 103 | 1.6 | 8.0 | 0.00 | 0.00 | 0.00 | 87 | 1013.1 |
| 20260901124921 | 12 | 96 | 1.6 | 8.0 | 0.00 | 0.00 | 0.00 | 87 | 1013.1 |
| 20260901124844 | 12 | 158 | 1.6 | 8.0 | 0.00 | 0.00 | 0.00 | 87 | 1013.1 |
| 20260901124743 | 12 | 158 | 3.2 | 8.0 | 0.00 | 0.00 | 0.00 | 87 | 1013.1 |
| 20260901124650 | 12 | 146 | 3.2 | 8.0 | 0.00 | 0.00 | 0.00 | 87 | 1013.0 |
| 20260901124646 | 12 | 148 | 3.2 | 8.0 | 0.00 | 0.00 | 0.00 | 87 | 1013.0 |
| 20260901124555 | 12 | 99 | 3.2 | 8.0 | 0.00 | 0.00 | 0.00 | 87 | 1013.0 |
| 20260901124536 | 12 | 98 | 3.2 | 8.0 | 0.00 | 0.00 | 0.00 | 87 | 1013.0 |
| 20260901124337 | 12 | 162 | 3.2 | 6.4 | 0.00 | 0.00 | 0.00 | 87 | 1013.0 |
| 20260901124236 | 12 | 118 | 3.2 | 6.4 | 0.00 | 0.00 | 0.00 | 87 | 1013.0 |
| 20260901124132 | 12 | 131 | 1.6 | 6.4 | 0.00 | 0.00 | 0.00 | 87 | 1013.0 |
| 20260901124030 | 12 | 116 | 1.6 | 6.4 | 0.00 | 0.00 | 0.00 | 87 | 1013.0 |
| 20260901123930 | 12 | 115 | 1.6 | 8.0 | 0.00 | 0.00 | 0.00 | 87 | 1013.0 |
| 20260901123909 | 12 | 112 | 3.2 | 8.0 | 0.00 | 0.00 | 0.00 | 87 | 1013.0 |
| 20260901123831 | 12 | 111 | 3.2 | 8.0 | 0.00 | 0.00 | 0.00 | 87 | 1013.0 |
| 20260901123730 | 12 | 115 | 1.6 | 8.0 | 0.00 | 0.00 | 0.00 | 87 | 1013.0 |
| 20260901123626 | 12 | 103 | 1.6 | 8.0 | 0.00 | 0.00 | 0.00 | 87 | 1013.0 |
| 20260901123527 | 12 | 90 | 1.6 | 8.0 | 0.00 | 0.00 | 0.00 | 86 | 1013.0 |
| 20260901123426 | 12 | 107 | 1.6 | 8.0 | 0.00 | 0.00 | 0.00 | 86 | 1013.0 |
| 20260901123403 | 12 | 107 | 3.2 | 8.0 | 0.00 | 0.00 | 0.00 | 86 | 1013.1 |
| 20260901123327 | 12 | 108 | 3.2 | 8.0 | 0.00 | 0.00 | 0.00 | 86 | 1013.1 |
| 20260901123224 | 12 | 107 | 3.2 | 8.0 | 0.00 | 0.00 | 0.00 | 86 | 1013.0 |
| 20260901123118 | 12 | 107 | 4.8 | 9.7 | 0.00 | 0.00 | 0.00 | 86 | 1013.0 |
| 20260901123025 | 12 | 108 | 4.8 | 9.7 | 0.00 | 0.00 | 0.00 | 86 | 1013.0 |
| 20260901122918 | 12 | 112 | 4.8 | 9.7 | 0.00 | 0.00 | 0.00 | 86 | 1013.0 |
| 20260901122900 | 12 | 98 | 4.8 | 9.7 | 0.00 | 0.00 | 0.00 | 86 | 1013.0 |
| 20260901122818 | 12 | 102 | 4.8 | 9.7 | 0.00 | 0.00 | 0.00 | 86 | 1013.0 |
| 20260901122718 | 13 | 74 | 3.2 | 9.7 | 0.00 | 0.00 | 0.00 | 86 | 1013.0 |
| 20260901122615 | 13 | 118 | 3.2 | 9.7 | 0.00 | 0.00 | 0.00 | 86 | 1013.0 |
| 20260901122512 | 13 | 114 | 3.2 | 9.7 | 0.00 | 0.00 | 0.00 | 86 | 1012.9 |
| 20260901122413 | 13 | 113 | 3.2 | 9.7 | 0.00 | 0.00 | 0.00 | 86 | 1012.9 |
| 20260901122352 | 13 | 80 | 3.2 | 9.7 | 0.00 | 0.00 | 0.00 | 86 | 1012.9 |
| 20260901122313 | 13 | 90 | 3.2 | 9.7 | 0.00 | 0.00 | 0.00 | 86 | 1012.9 |
| 20260901122212 | 13 | 115 | 3.2 | 9.7 | 0.00 | 0.00 | 0.00 | 86 | 1012.9 |
| 20260901122106 | 13 | 103 | 1.6 | 8.0 | 0.00 | 0.00 | 0.00 | 86 | 1012.8 |
| 20260901122006 | 13 | 129 | 1.6 | 8.0 | 0.00 | 0.00 | 0.00 | 86 | 1012.9 |
| 20260901121906 | 13 | 95 | 1.6 | 6.4 | 0.00 | 0.00 | 0.00 | 86 | 1012.9 |
| 20260901121845 | 13 | 127 | 1.6 | 6.4 | 0.00 | 0.00 | 0.00 | 86 | 1012.9 |
| 20260901121807 | 13 | 103 | 1.6 | 6.4 | 0.00 | 0.00 | 0.00 | 86 | 1012.9 |
| 20260901121706 | 13 | 127 | 1.6 | 6.4 | 0.00 | 0.00 | 0.00 | 86 | 1012.9 |
| 20260901121607 | 13 | 126 | 1.6 | 6.4 | 0.00 | 0.00 | 0.00 | 86 | 1012.9 |
| 20260901121506 | 13 | 139 | 1.6 | 6.4 | 0.00 | 0.00 | 0.00 | 86 | 1012.9 |
| 20260901121339 | 13 | 139 | 1.6 | 6.4 | 0.00 | 0.00 | 0.00 | 86 | 1012.9 |
| 20260901121302 | 13 | 131 | 1.6 | 6.4 | 0.00 | 0.00 | 0.00 | 86 | 1012.9 |
| 20260901121201 | 13 | 131 | 1.6 | 6.4 | 0.00 | 0.00 | 0.00 | 86 | 1012.9 |
| 20260901121055 | 13 | 131 | 1.6 | 6.4 | 0.00 | 0.00 | 0.00 | 86 | 1012.9 |
| 20260901120954 | 13 | 124 | 1.6 | 6.4 | 0.00 | 0.00 | 0.00 | 86 | 1013.0 |
| 20260901120854 | 13 | 138 | 1.6 | 4.8 | 0.00 | 0.00 | 0.00 | 86 | 1012.9 |
| 20260901120834 | 13 | 139 | 1.6 | 4.8 | 0.00 | 0.00 | 0.00 | 86 | 1012.9 |
| 20260901120755 | 13 | 138 | 1.6 | 4.8 | 0.00 | 0.00 | 0.00 | 86 | 1013.0 |
| 20260901120654 | 13 | 162 | 1.6 | 4.8 | 0.00 | 0.00 | 0.00 | 86 | 1013.0 |
| 20260901120552 | 13 | 135 | 1.6 | 4.8 | 0.00 | 0.00 | 0.00 | 86 | 1013.0 |
| 20260901120548 | 13 | 136 | 1.6 | 4.8 | 0.00 | 0.00 | 0.00 | 86 | 1013.0 |
| 20260901120448 | 13 | 136 | 1.6 | 4.8 | 0.00 | 0.00 | 0.00 | 86 | 1013.0 |
| 20260901120438 | 13 | 135 | 1.6 | 4.8 | 0.00 | 0.00 | 0.00 | 86 | 1013.0 |
| 20260901120248 | 13 | 126 | 1.6 | 4.8 | 0.00 | 0.00 | 0.00 | 86 | 1012.9 |
| 20260901120148 | 13 | 121 | 1.6 | 4.8 | 0.00 | 0.00 | 0.00 | 86 | 1012.9 |
| 20260901120052 | 13 | 210 | 1.6 | 4.8 | 0.00 | 0.00 | 0.00 | 85 | 1013.0 |
| 20260901120046 | 13 | 133 | 1.6 | 4.8 | 0.00 | 0.00 | 0.00 | 86 | 1013.0 |
| 20260901115946 | 13 | 139 | 1.6 | 4.8 | 0.00 | 0.00 | 0.00 | 85 | 1012.9 |
| 20260901115936 | 13 | 210 | 1.6 | 4.8 | 0.00 | 0.00 | 0.00 | 86 | 1013.0 |
| 20260901115642 | 13 | 121 | 1.6 | 4.8 | 0.00 | 0.00 | 0.00 | 85 | 1012.9 |
| 20260901115542 | 13 | 136 | 1.6 | 4.8 | 0.00 | 0.00 | 0.00 | 85 | 1012.9 |
| 20260901115440 | 13 | 129 | 1.6 | 4.8 | 0.00 | 0.00 | 0.00 | 85 | 1013.0 |
| 20260901115326 | 13 | 136 | 1.6 | 4.8 | 0.00 | 0.00 | 0.00 | 85 | 1013.0 |
| 20260901115239 | 13 | 136 | 1.6 | 4.8 | 0.00 | 0.00 | 0.00 | 85 | 1013.0 |
| 20260901115136 | 13 | 136 | 3.2 | 4.8 | 0.00 | 0.00 | 0.00 | 85 | 1012.9 |
| 20260901115031 | 13 | 136 | 3.2 | 4.8 | 0.00 | 0.00 | 0.00 | 85 | 1012.9 |
| 20260901114930 | 13 | 139 | 3.2 | 4.8 | 0.00 | 0.00 | 0.00 | 85 | 1012.9 |
| 20260901114824 | 13 | 139 | 3.2 | 4.8 | 0.00 | 0.00 | 0.00 | 85 | 1012.9 |
| 20260901114730 | 13 | 162 | 3.2 | 4.8 | 0.00 | 0.00 | 0.00 | 85 | 1013.0 |
| 20260901114630 | 13 | 129 | 1.6 | 4.8 | 0.00 | 0.00 | 0.00 | 85 | 1013.0 |
| 20260901114526 | 13 | 135 | 1.6 | 4.8 | 0.00 | 0.00 | 0.00 | 85 | 1013.0 |
| 20260901114424 | 13 | 141 | 1.6 | 4.8 | 0.00 | 0.00 | 0.00 | 85 | 1013.0 |
| 20260901114330 | 13 | 164 | 1.6 | 4.8 | 0.00 | 0.00 | 0.00 | 84 | 1013.0 |
| 20260901114324 | 13 | 163 | 1.6 | 4.8 | 0.00 | 0.00 | 0.00 | 84 | 1013.0 |
| 20260901114224 | 13 | 145 | 1.6 | 4.8 | 0.00 | 0.00 | 0.00 | 84 | 1013.0 |
| 20260901114123 | 13 | 169 | 1.6 | 4.8 | 0.00 | 0.00 | 0.00 | 84 | 1013.0 |
| 20260901114026 | 13 | 149 | 1.6 | 4.8 | 0.00 | 0.00 | 0.00 | 84 | 1013.0 |
| 20260901113922 | 13 | 139 | 1.6 | 4.8 | 0.00 | 0.00 | 0.00 | 84 | 1012.9 |
| 20260901113822 | 13 | 150 | 1.6 | 4.8 | 0.00 | 0.00 | 0.00 | 84 | 1012.9 |
| 20260901113720 | 13 | 146 | 1.6 | 6.4 | 0.00 | 0.00 | 0.00 | 84 | 1012.9 |
| 20260901113619 | 13 | 146 | 1.6 | 6.4 | 0.00 | 0.00 | 0.00 | 84 | 1012.8 |
| 20260901113512 | 13 | 113 | 3.2 | 6.4 | 0.00 | 0.00 | 0.00 | 84 | 1012.8 |
| 20260901113412 | 13 | 113 | 3.2 | 6.4 | 0.00 | 0.00 | 0.00 | 84 | 1012.8 |
| 20260901113322 | 13 | 97 | 3.2 | 6.4 | 0.00 | 0.00 | 0.00 | 84 | 1012.8 |
| 20260901113316 | 13 | 120 | 3.2 | 6.4 | 0.00 | 0.00 | 0.00 | 84 | 1012.8 |
| 20260901113213 | 13 | 129 | 3.2 | 6.4 | 0.00 | 0.00 | 0.00 | 84 | 1012.8 |
| 20260901113113 | 13 | 137 | 3.2 | 6.4 | 0.00 | 0.00 | 0.00 | 84 | 1012.8 |
| 20260901113006 | 13 | 129 | 3.2 | 6.4 | 0.00 | 0.00 | 0.00 | 84 | 1012.7 |
| 20260901112907 | 13 | 143 | 3.2 | 6.4 | 0.00 | 0.00 | 0.00 | 84 | 1012.7 |
| 20260901112821 | 13 | 133 | 3.2 | 6.4 | 0.00 | 0.00 | 0.00 | 84 | 1012.7 |
| 20260901112806 | 13 | 132 | 3.2 | 6.4 | 0.00 | 0.00 | 0.00 | 84 | 1012.7 |
| 20260901112707 | 13 | 135 | 3.2 | 6.4 | 0.00 | 0.00 | 0.00 | 84 | 1012.7 |
| 20260901112607 | 13 | 137 | 3.2 | 6.4 | 0.00 | 0.00 | 0.00 | 84 | 1012.8 |
| 20260901112505 | 13 | 125 | 3.2 | 6.4 | 0.00 | 0.00 | 0.00 | 84 | 1012.7 |
| 20260901112404 | 13 | 134 | 3.2 | 6.4 | 0.00 | 0.00 | 0.00 | 84 | 1012.8 |
| 20260901112322 | 13 | 134 | 3.2 | 6.4 | 0.00 | 0.00 | 0.00 | 84 | 1012.8 |
| 20260901112306 | 13 | 131 | 1.6 | 6.4 | 0.00 | 0.00 | 0.00 | 84 | 1012.8 |
| 20260901112202 | 13 | 129 | 1.6 | 6.4 | 0.00 | 0.00 | 0.00 | 84 | 1012.8 |
| 20260901112100 | 13 | 146 | 1.6 | 4.8 | 0.00 | 0.00 | 0.00 | 83 | 1012.7 |
| 20260901111954 | 13 | 136 | 1.6 | 8.0 | 0.00 | 0.00 | 0.00 | 83 | 1012.8 |
| 20260901111855 | 13 | 134 | 3.2 | 11.3 | 0.00 | 0.00 | 0.00 | 83 | 1012.7 |
| 20260901111820 | 13 | 134 | 3.2 | 11.3 | 0.00 | 0.00 | 0.00 | 83 | 1012.7 |
| 20260901111755 | 13 | 134 | 3.2 | 11.3 | 0.00 | 0.00 | 0.00 | 83 | 1012.8 |
| 20260901111654 | 13 | 136 | 3.2 | 11.3 | 0.00 | 0.00 | 0.00 | 83 | 1012.8 |
| 20260901111554 | 13 | 219 | 3.2 | 11.3 | 0.00 | 0.00 | 0.00 | 83 | 1012.7 |
| 20260901111454 | 13 | 218 | 3.2 | 11.3 | 0.00 | 0.00 | 0.00 | 83 | 1012.7 |
| 20260901111352 | 13 | 122 | 3.2 | 11.3 | 0.00 | 0.00 | 0.00 | 83 | 1012.7 |
| 20260901111319 | 13 | 123 | 3.2 | 11.3 | 0.00 | 0.00 | 0.00 | 83 | 1012.7 |
| 20260901111252 | 13 | 138 | 3.2 | 11.3 | 0.00 | 0.00 | 0.00 | 83 | 1012.7 |
| 20260901111151 | 13 | 123 | 4.8 | 11.3 | 0.00 | 0.00 | 0.00 | 83 | 1012.7 |
| 20260901111048 | 13 | 113 | 4.8 | 11.3 | 0.00 | 0.00 | 0.00 | 83 | 1012.7 |
| 20260901110942 | 13 | 154 | 4.8 | 9.7 | 0.00 | 0.00 | 0.00 | 83 | 1012.7 |
| 20260901110843 | 13 | 158 | 4.8 | 9.7 | 0.00 | 0.00 | 0.00 | 83 | 1012.6 |
| 20260901110820 | 13 | 137 | 4.8 | 9.7 | 0.00 | 0.00 | 0.00 | 83 | 1012.6 |
| 20260901110742 | 13 | 135 | 4.8 | 9.7 | 0.00 | 0.00 | 0.00 | 83 | 1012.7 |
| 20260901110642 | 13 | 136 | 4.8 | 9.7 | 0.00 | 0.00 | 0.00 | 83 | 1012.7 |
| 20260901110543 | 13 | 136 | 4.8 | 9.7 | 0.00 | 0.00 | 0.00 | 83 | 1012.7 |
| 20260901110436 | 13 | 148 | 4.8 | 9.7 | 0.00 | 0.00 | 0.00 | 82 | 1012.7 |
| 20260901110336 | 13 | 156 | 4.8 | 9.7 | 0.00 | 0.00 | 0.00 | 82 | 1012.7 |
| 20260901110321 | 13 | 150 | 4.8 | 9.7 | 0.00 | 0.00 | 0.00 | 82 | 1012.7 |
| 20260901110237 | 13 | 144 | 4.8 | 9.7 | 0.00 | 0.00 | 0.00 | 82 | 1012.7 |
| 20260901110137 | 13 | 155 | 4.8 | 9.7 | 0.00 | 0.00 | 0.00 | 83 | 1012.7 |
| 20260901105932 | 13 | 129 | 4.8 | 9.7 | 0.00 | 0.00 | 0.00 | 82 | 1012.7 |
| 20260901105830 | 13 | 121 | 4.8 | 9.7 | 0.00 | 0.00 | 0.00 | 82 | 1012.7 |
| 20260901105820 | 13 | 158 | 4.8 | 9.7 | 0.00 | 0.00 | 0.00 | 82 | 1012.7 |
| 20260901105730 | 13 | 141 | 4.8 | 9.7 | 0.00 | 0.00 | 0.00 | 82 | 1012.7 |
| 20260901105630 | 13 | 149 | 4.8 | 9.7 | 0.00 | 0.00 | 0.00 | 82 | 1012.7 |
| 20260901105531 | 13 | 167 | 4.8 | 9.7 | 0.00 | 0.00 | 0.00 | 82 | 1012.7 |
| 20260901105424 | 13 | 191 | 3.2 | 9.7 | 0.00 | 0.00 | 0.00 | 82 | 1012.7 |
| 20260901105330 | 13 | 141 | 3.2 | 9.7 | 0.00 | 0.00 | 0.00 | 82 | 1012.7 |
| 20260901105319 | 13 | 160 | 3.2 | 9.7 | 0.00 | 0.00 | 0.00 | 82 | 1012.7 |
| 20260901105224 | 13 | 141 | 3.2 | 9.7 | 0.00 | 0.00 | 0.00 | 82 | 1012.7 |
| 20260901105125 | 13 | 141 | 3.2 | 9.7 | 0.00 | 0.00 | 0.00 | 82 | 1012.7 |
| 20260901105026 | 13 | 111 | 3.2 | 11.3 | 0.00 | 0.00 | 0.00 | 82 | 1012.7 |
| 20260901104925 | 13 | 159 | 3.2 | 11.3 | 0.00 | 0.00 | 0.00 | 82 | 1012.7 |
| 20260901104829 | 13 | 138 | 3.2 | 11.3 | 0.00 | 0.00 | 0.00 | 82 | 1012.7 |
| 20260901104819 | 13 | 155 | 3.2 | 11.3 | 0.00 | 0.00 | 0.00 | 82 | 1012.7 |
| 20260901104725 | 13 | 129 | 3.2 | 11.3 | 0.00 | 0.00 | 0.00 | 82 | 1012.7 |
| 20260901104625 | 13 | 136 | 3.2 | 11.3 | 0.00 | 0.00 | 0.00 | 82 | 1012.7 |
| 20260901104525 | 13 | 148 | 3.2 | 11.3 | 0.00 | 0.00 | 0.00 | 82 | 1012.7 |
| 20260901104425 | 13 | 143 | 3.2 | 11.3 | 0.00 | 0.00 | 0.00 | 82 | 1012.7 |
| 20260901104319 | 13 | 132 | 3.2 | 11.3 | 0.00 | 0.00 | 0.00 | 83 | 1012.7 |
| 20260901104224 | 13 | 161 | 3.2 | 11.3 | 0.00 | 0.00 | 0.00 | 83 | 1012.6 |
| 20260901104124 | 13 | 141 | 3.2 | 11.3 | 0.00 | 0.00 | 0.00 | 83 | 1012.5 |
| 20260901104026 | 13 | 108 | 3.2 | 11.3 | 0.00 | 0.00 | 0.00 | 83 | 1012.5 |
| 20260901103925 | 13 | 116 | 3.2 | 11.3 | 0.00 | 0.00 | 0.00 | 82 | 1012.5 |
| 20260901103824 | 13 | 155 | 4.8 | 11.3 | 0.00 | 0.00 | 0.00 | 82 | 1012.5 |
| 20260901103723 | 13 | 143 | 3.2 | 11.3 | 0.00 | 0.00 | 0.00 | 82 | 1012.5 |
| 20260901103622 | 13 | 149 | 4.8 | 11.3 | 0.00 | 0.00 | 0.00 | 82 | 1012.5 |
| 20260901103524 | 13 | 125 | 4.8 | 11.3 | 0.00 | 0.00 | 0.00 | 82 | 1012.5 |
| 20260901103422 | 13 | 162 | 3.2 | 11.3 | 0.00 | 0.00 | 0.00 | 82 | 1012.5 |
| 20260901103324 | 13 | 122 | 3.2 | 11.3 | 0.00 | 0.00 | 0.00 | 82 | 1012.4 |
| 20260901103216 | 14 | 121 | 4.8 | 11.3 | 0.00 | 0.00 | 0.00 | 83 | 1012.4 |
| 20260901103116 | 13 | 143 | 4.8 | 11.3 | 0.00 | 0.00 | 0.00 | 83 | 1012.4 |
| 20260901103022 | 13 | 92 | 3.2 | 9.7 | 0.00 | 0.00 | 0.00 | 83 | 1012.4 |
| 20260901102916 | 13 | 134 | 4.8 | 9.7 | 0.00 | 0.00 | 0.00 | 83 | 1012.4 |
| 20260901102818 | 13 | 160 | 4.8 | 9.7 | 0.00 | 0.00 | 0.00 | 83 | 1012.4 |
| 20260901102712 | 13 | 150 | 4.8 | 9.7 | 0.00 | 0.00 | 0.00 | 83 | 1012.4 |
| 20260901102610 | 13 | 158 | 4.8 | 9.7 | 0.00 | 0.00 | 0.00 | 83 | 1012.4 |
| 20260901102510 | 13 | 148 | 4.8 | 9.7 | 0.00 | 0.00 | 0.00 | 83 | 1012.4 |
| 20260901102411 | 13 | 165 | 4.8 | 9.7 | 0.00 | 0.00 | 0.00 | 83 | 1012.4 |
| 20260901102315 | 13 | 131 | 4.8 | 9.7 | 0.00 | 0.00 | 0.00 | 83 | 1012.5 |
| 20260901102205 | 13 | 195 | 4.8 | 9.7 | 0.00 | 0.00 | 0.00 | 83 | 1012.5 |
| 20260901102104 | 13 | 136 | 3.2 | 9.7 | 0.00 | 0.00 | 0.00 | 83 | 1012.4 |
| 20260901102004 | 13 | 107 | 3.2 | 8.0 | 0.00 | 0.00 | 0.00 | 83 | 1012.4 |
| 20260901101905 | 13 | 134 | 3.2 | 8.0 | 0.00 | 0.00 | 0.00 | 83 | 1012.4 |
| 20260901101806 | 13 | 146 | 3.2 | 8.0 | 0.00 | 0.00 | 0.00 | 83 | 1012.4 |
| 20260901101704 | 13 | 136 | 3.2 | 8.0 | 0.00 | 0.00 | 0.00 | 83 | 1012.4 |
| 20260901101603 | 13 | 141 | 3.2 | 8.0 | 0.00 | 0.00 | 0.00 | 83 | 1012.4 |
| 20260901101502 | 13 | 139 | 3.2 | 8.0 | 0.00 | 0.00 | 0.00 | 83 | 1012.4 |
| 20260901101401 | 13 | 162 | 3.2 | 8.0 | 0.00 | 0.00 | 0.00 | 83 | 1012.4 |
| 20260901101304 | 13 | 162 | 3.2 | 8.0 | 0.00 | 0.00 | 0.00 | 84 | 1012.3 |
| 20260901101258 | 13 | 165 | 3.2 | 8.0 | 0.00 | 0.00 | 0.00 | 84 | 1012.3 |
| 20260901101156 | 13 | 124 | 3.2 | 9.7 | 0.00 | 0.00 | 0.00 | 84 | 1012.4 |
| 20260901101057 | 13 | 214 | 3.2 | 9.7 | 0.00 | 0.00 | 0.00 | 84 | 1012.4 |
| 20260901100956 | 13 | 127 | 3.2 | 9.7 | 0.00 | 0.00 | 0.00 | 84 | 1012.4 |
| 20260901100854 | 13 | 113 | 3.2 | 9.7 | 0.00 | 0.00 | 0.00 | 84 | 1012.5 |
| 20260901100802 | 13 | 111 | 3.2 | 9.7 | 0.00 | 0.00 | 0.00 | 84 | 1012.4 |
| 20260901100752 | 13 | 138 | 3.2 | 9.7 | 0.00 | 0.00 | 0.00 | 84 | 1012.4 |
| 20260901100653 | 13 | 121 | 4.8 | 9.7 | 0.00 | 0.00 | 0.00 | 84 | 1012.4 |
| 20260901100551 | 13 | 146 | 3.2 | 9.7 | 0.00 | 0.00 | 0.00 | 84 | 1012.5 |
| 20260901100451 | 13 | 95 | 3.2 | 9.7 | 0.00 | 0.00 | 0.00 | 84 | 1012.5 |
| 20260901100348 | 13 | 119 | 3.2 | 9.7 | 0.00 | 0.00 | 0.00 | 84 | 1012.6 |
| 20260901100301 | 13 | 127 | 3.2 | 9.7 | 0.00 | 0.00 | 0.00 | 84 | 1012.6 |
| 20260901100246 | 13 | 146 | 3.2 | 9.7 | 0.00 | 0.00 | 0.00 | 84 | 1012.6 |
| 20260901100140 | 13 | 146 | 3.2 | 8.0 | 0.00 | 0.00 | 0.00 | 84 | 1012.5 |
| 20260901100040 | 13 | 136 | 3.2 | 8.0 | 0.00 | 0.00 | 0.00 | 84 | 1012.6 |
| 20260901095940 | 13 | 136 | 3.2 | 8.0 | 0.00 | 0.00 | 0.00 | 84 | 1012.6 |
| 20260901095840 | 13 | 169 | 3.2 | 8.0 | 0.00 | 0.00 | 0.00 | 84 | 1012.6 |
| 20260901095759 | 13 | 100 | 3.2 | 8.0 | 0.00 | 0.00 | 0.00 | 84 | 1012.6 |
| 20260901095739 | 13 | 114 | 3.2 | 8.0 | 0.00 | 0.00 | 0.00 | 84 | 1012.6 |
| 20260901095635 | 13 | 110 | 3.2 | 8.0 | 0.00 | 0.00 | 0.00 | 84 | 1012.6 |
| 20260901095535 | 13 | 146 | 3.2 | 8.0 | 0.00 | 0.00 | 0.00 | 84 | 1012.7 |
| 20260901095434 | 13 | 139 | 3.2 | 8.0 | 0.00 | 0.00 | 0.00 | 84 | 1012.7 |
| 20260901095334 | 13 | 120 | 3.2 | 8.0 | 0.00 | 0.00 | 0.00 | 84 | 1012.6 |
| 20260901095300 | 13 | 214 | 3.2 | 8.0 | 0.00 | 0.00 | 0.00 | 84 | 1012.6 |
| 20260901095234 | 13 | 230 | 3.2 | 8.0 | 0.00 | 0.00 | 0.00 | 84 | 1012.6 |
| 20260901095132 | 13 | 86 | 3.2 | 8.0 | 0.00 | 0.00 | 0.00 | 84 | 1012.7 |
| 20260901095033 | 13 | 84 | 3.2 | 8.0 | 0.00 | 0.00 | 0.00 | 84 | 1012.6 |
| 20260901094932 | 13 | 142 | 3.2 | 8.0 | 0.00 | 0.00 | 0.00 | 84 | 1012.6 |
| 20260901094830 | 13 | 141 | 3.2 | 8.0 | 0.00 | 0.00 | 0.00 | 84 | 1012.7 |
| 20260901094800 | 13 | 130 | 3.2 | 8.0 | 0.00 | 0.00 | 0.00 | 84 | 1012.6 |
| 20260901094729 | 13 | 150 | 3.2 | 8.0 | 0.00 | 0.00 | 0.00 | 84 | 1012.6 |
| 20260901094625 | 13 | 139 | 3.2 | 8.0 | 0.00 | 0.00 | 0.00 | 84 | 1012.7 |
| 20260901094528 | 13 | 146 | 3.2 | 8.0 | 0.00 | 0.00 | 0.00 | 84 | 1012.6 |
| 20260901094519 | 13 | 145 | 3.2 | 8.0 | 0.00 | 0.00 | 0.00 | 84 | 1012.5 |
| 20260901094424 | 13 | 138 | 3.2 | 8.0 | 0.00 | 0.00 | 0.00 | 84 | 1012.6 |
| 20260901094414 | 13 | 117 | 3.2 | 8.0 | 0.00 | 0.00 | 0.00 | 84 | 1012.6 |
| 20260901094222 | 13 | 155 | 3.2 | 8.0 | 0.00 | 0.00 | 0.00 | 84 | 1012.6 |
| 20260901094116 | 13 | 211 | 3.2 | 8.0 | 0.00 | 0.00 | 0.00 | 84 | 1012.6 |
| 20260901094021 | 13 | 100 | 3.2 | 8.0 | 0.00 | 0.00 | 0.00 | 84 | 1012.5 |
| 20260901093916 | 13 | 103 | 3.2 | 8.0 | 0.00 | 0.00 | 0.00 | 84 | 1012.5 |
| 20260901093816 | 13 | 143 | 3.2 | 8.0 | 0.00 | 0.00 | 0.00 | 84 | 1012.5 |
| 20260901093800 | 13 | 107 | 3.2 | 8.0 | 0.00 | 0.00 | 0.00 | 84 | 1012.6 |
| 20260901093716 | 13 | 117 | 3.2 | 8.0 | 0.00 | 0.00 | 0.00 | 84 | 1012.5 |
| 20260901093611 | 13 | 141 | 3.2 | 8.0 | 0.00 | 0.00 | 0.00 | 84 | 1012.5 |
| 20260901093531 | 13 | 150 | 3.2 | 8.0 | 0.00 | 0.00 | 0.00 | 84 | 1012.5 |
| 20260901093512 | 13 | 136 | 3.2 | 8.0 | 0.00 | 0.00 | 0.00 | 84 | 1012.5 |
| 20260901093435 | 13 | 141 | 3.2 | 8.0 | 0.00 | 0.00 | 0.00 | 84 | 1012.5 |
| 20260901093426 | 13 | 150 | 3.2 | 8.0 | 0.00 | 0.00 | 0.00 | 84 | 1012.5 |
| 20260901093210 | 13 | 191 | 3.2 | 8.0 | 0.00 | 0.00 | 0.00 | 84 | 1012.5 |
| 20260901093105 | 13 | 107 | 3.2 | 8.0 | 0.00 | 0.00 | 0.00 | 84 | 1012.5 |
| 20260901093004 | 13 | 96 | 3.2 | 8.0 | 0.00 | 0.00 | 0.00 | 84 | 1012.5 |
| 20260901092904 | 13 | 117 | 3.2 | 8.0 | 0.00 | 0.00 | 0.00 | 84 | 1012.5 |
| 20260901092810 | 13 | 139 | 3.2 | 8.0 | 0.00 | 0.00 | 0.00 | 84 | 1012.5 |
| 20260901092759 | 13 | 129 | 3.2 | 8.0 | 0.00 | 0.00 | 0.00 | 84 | 1012.5 |
| 20260901092705 | 13 | 124 | 3.2 | 8.0 | 0.00 | 0.00 | 0.00 | 84 | 1012.5 |
| 20260901092604 | 13 | 105 | 3.2 | 8.0 | 0.00 | 0.00 | 0.00 | 84 | 1012.5 |
| 20260901092503 | 13 | 104 | 3.2 | 8.0 | 0.00 | 0.00 | 0.00 | 84 | 1012.5 |
| 20260901092402 | 13 | 104 | 3.2 | 8.0 | 0.00 | 0.00 | 0.00 | 84 | 1012.5 |
| 20260901092300 | 13 | 165 | 3.2 | 8.0 | 0.00 | 0.00 | 0.00 | 84 | 1012.4 |
| 20260901092159 | 13 | 107 | 3.2 | 8.0 | 0.00 | 0.00 | 0.00 | 84 | 1012.5 |
| 20260901092053 | 13 | 114 | 3.2 | 8.0 | 0.00 | 0.00 | 0.00 | 84 | 1012.5 |
| 20260901091952 | 13 | 116 | 3.2 | 8.0 | 0.00 | 0.00 | 0.00 | 84 | 1012.5 |
| 20260901091852 | 13 | 114 | 3.2 | 8.0 | 0.00 | 0.00 | 0.00 | 84 | 1012.5 |
| 20260901091759 | 13 | 132 | 3.2 | 8.0 | 0.00 | 0.00 | 0.00 | 84 | 1012.6 |
| 20260901091753 | 13 | 121 | 3.2 | 8.0 | 0.00 | 0.00 | 0.00 | 84 | 1012.6 |
| 20260901091652 | 13 | 154 | 3.2 | 8.0 | 0.00 | 0.00 | 0.00 | 84 | 1012.5 |
| 20260901091548 | 13 | 115 | 3.2 | 8.0 | 0.00 | 0.00 | 0.00 | 84 | 1012.5 |
| 20260901091448 | 13 | 113 | 3.2 | 8.0 | 0.00 | 0.00 | 0.00 | 84 | 1012.6 |
| 20260901091348 | 13 | 129 | 3.2 | 8.0 | 0.00 | 0.00 | 0.00 | 84 | 1012.6 |
| 20260901091258 | 13 | 101 | 3.2 | 8.0 | 0.00 | 0.00 | 0.00 | 84 | 1012.6 |
| 20260901091248 | 13 | 158 | 3.2 | 8.0 | 0.00 | 0.00 | 0.00 | 84 | 1012.6 |
| 20260901091146 | 13 | 111 | 3.2 | 8.0 | 0.00 | 0.00 | 0.00 | 84 | 1012.6 |
| 20260901091042 | 13 | 135 | 1.6 | 8.0 | 0.00 | 0.00 | 0.00 | 84 | 1012.6 |
| 20260901090940 | 13 | 148 | 1.6 | 8.0 | 0.00 | 0.00 | 0.00 | 84 | 1012.7 |
| 20260901090840 | 13 | 110 | 1.6 | 8.0 | 0.00 | 0.00 | 0.00 | 84 | 1012.6 |
| 20260901090758 | 13 | 140 | 1.6 | 8.0 | 0.00 | 0.00 | 0.00 | 84 | 1012.6 |
| 20260901090741 | 13 | 141 | 1.6 | 8.0 | 0.00 | 0.00 | 0.00 | 84 | 1012.6 |
| 20260901090640 | 13 | 148 | 1.6 | 8.0 | 0.00 | 0.00 | 0.00 | 84 | 1012.6 |
| 20260901090536 | 13 | 155 | 1.6 | 8.0 | 0.00 | 0.00 | 0.00 | 84 | 1012.7 |
| 20260901090435 | 13 | 157 | 3.2 | 8.0 | 0.00 | 0.00 | 0.00 | 84 | 1012.7 |
| 20260901090334 | 13 | 115 | 1.6 | 8.0 | 0.00 | 0.00 | 0.00 | 84 | 1012.7 |
| 20260901090258 | 13 | 93 | 1.6 | 8.0 | 0.00 | 0.00 | 0.00 | 84 | 1012.7 |
| 20260901090234 | 13 | 93 | 1.6 | 8.0 | 0.00 | 0.00 | 0.00 | 83 | 1012.7 |
| 20260901090135 | 13 | 150 | 3.2 | 8.0 | 0.00 | 0.00 | 0.00 | 83 | 1012.7 |
| 20260901090032 | 13 | 141 | 3.2 | 8.0 | 0.00 | 0.00 | 0.00 | 83 | 1012.7 |
| 20260901085932 | 13 | 154 | 3.2 | 8.0 | 0.00 | 0.00 | 0.00 | 83 | 1012.7 |
| 20260901085832 | 13 | 91 | 3.2 | 4.8 | 0.00 | 0.00 | 0.00 | 83 | 1012.7 |
| 20260901085757 | 13 | 97 | 3.2 | 8.0 | 0.00 | 0.00 | 0.00 | 83 | 1012.7 |
| 20260901085732 | 13 | 105 | 3.2 | 8.0 | 0.00 | 0.00 | 0.00 | 83 | 1012.7 |
| 20260901085633 | 13 | 104 | 3.2 | 8.0 | 0.00 | 0.00 | 0.00 | 83 | 1012.7 |
| 20260901085525 | 13 | 88 | 3.2 | 12.9 | 0.00 | 0.00 | 0.00 | 83 | 1012.7 |
| 20260901085422 | 13 | 138 | 3.2 | 12.9 | 0.00 | 0.00 | 0.00 | 83 | 1012.7 |
| 20260901085323 | 13 | 121 | 3.2 | 12.9 | 0.00 | 0.00 | 0.00 | 83 | 1012.7 |
| 20260901085257 | 14 | 218 | 3.2 | 12.9 | 0.00 | 0.00 | 0.00 | 83 | 1012.7 |
| 20260901085221 | 14 | 115 | 3.2 | 12.9 | 0.00 | 0.00 | 0.00 | 83 | 1012.7 |
| 20260901085119 | 14 | 110 | 3.2 | 12.9 | 0.00 | 0.00 | 0.00 | 83 | 1012.7 |
| 20260901085012 | 14 | 162 | 3.2 | 12.9 | 0.00 | 0.00 | 0.00 | 83 | 1012.7 |
| 20260901084912 | 14 | 131 | 3.2 | 12.9 | 0.00 | 0.00 | 0.00 | 83 | 1012.7 |
| 20260901084813 | 14 | 138 | 3.2 | 12.9 | 0.00 | 0.00 | 0.00 | 83 | 1012.7 |
| 20260901084752 | 14 | 129 | 3.2 | 12.9 | 0.00 | 0.00 | 0.00 | 83 | 1012.7 |
| 20260901084712 | 14 | 138 | 4.8 | 12.9 | 0.00 | 0.00 | 0.00 | 83 | 1012.7 |
| 20260901084612 | 14 | 155 | 4.8 | 11.3 | 0.00 | 0.00 | 0.00 | 83 | 1012.7 |
| 20260901084511 | 14 | 155 | 3.2 | 11.3 | 0.00 | 0.00 | 0.00 | 83 | 1012.7 |
| 20260901084410 | 14 | 161 | 3.2 | 11.3 | 0.00 | 0.00 | 0.00 | 83 | 1012.7 |
| 20260901084310 | 14 | 124 | 3.2 | 11.3 | 0.00 | 0.00 | 0.00 | 83 | 1012.7 |
| 20260901084246 | 14 | 169 | 3.2 | 11.3 | 0.00 | 0.00 | 0.00 | 83 | 1012.7 |
| 20260901084209 | 14 | 120 | 4.8 | 11.3 | 0.00 | 0.00 | 0.00 | 83 | 1012.7 |
| 20260901084107 | 14 | 152 | 3.2 | 11.3 | 0.00 | 0.00 | 0.00 | 83 | 1012.7 |
| 20260901084000 | 14 | 144 | 4.8 | 11.3 | 0.00 | 0.00 | 0.00 | 83 | 1012.7 |
| 20260901083901 | 14 | 150 | 4.8 | 11.3 | 0.00 | 0.00 | 0.00 | 83 | 1012.7 |
| 20260901083800 | 14 | 141 | 4.8 | 12.9 | 0.00 | 0.00 | 0.00 | 83 | 1012.7 |
| 20260901083739 | 14 | 146 | 4.8 | 12.9 | 0.00 | 0.00 | 0.00 | 83 | 1012.7 |
| 20260901083700 | 14 | 146 | 4.8 | 12.9 | 0.00 | 0.00 | 0.00 | 83 | 1012.7 |
| 20260901083601 | 14 | 120 | 4.8 | 12.9 | 0.00 | 0.00 | 0.00 | 83 | 1012.7 |
| 20260901083459 | 14 | 120 | 4.8 | 12.9 | 0.00 | 0.00 | 0.00 | 83 | 1012.7 |
| 20260901083358 | 14 | 131 | 4.8 | 12.9 | 0.00 | 0.00 | 0.00 | 83 | 1012.7 |
| 20260901083256 | 14 | 146 | 4.8 | 12.9 | 0.00 | 0.00 | 0.00 | 83 | 1012.8 |
| 20260901083233 | 14 | 99 | 4.8 | 12.9 | 0.00 | 0.00 | 0.00 | 83 | 1012.8 |
| 20260901083156 | 14 | 155 | 4.8 | 12.9 | 0.00 | 0.00 | 0.00 | 83 | 1012.7 |
| 20260901083054 | 14 | 151 | 4.8 | 12.9 | 0.00 | 0.00 | 0.00 | 83 | 1012.7 |
| 20260901082948 | 14 | 145 | 4.8 | 12.9 | 0.00 | 0.00 | 0.00 | 83 | 1012.7 |